Wetterdaten: Montag, 16.05.2016
Datum Zeit Temp. A. Feuchte A. Luftdruck Regen Wind Richtung Richtung Sonnenschein ET UV Solar Taupunkt Windchill Windben Empfang
16.05.2016 00:00 6,8 C 82 % 1018,9 hPa 0,0 l/m 7,1 km/h (2 Bft) S-SW 204 0 min 0,000 mm 0,0 UV-I 0 W/m 3,9 C 6,2 C 11,3 km/h (2 Bft) 100,00 %
16.05.2016 00:02 6,8 C 82 % 1018,9 hPa 0,0 l/m 5,7 km/h (1 Bft) SW 215 0 min 0,000 mm 0,0 UV-I 0 W/m 3,9 C 6,8 C 11,3 km/h (2 Bft) 97,67 %
16.05.2016 00:03 6,8 C 82 % 1018,9 hPa 0,0 l/m 5,9 km/h (2 Bft) S-SW 207 0 min 0,000 mm 0,0 UV-I 0 W/m 3,9 C 6,8 C 8,0 km/h (2 Bft) 95,65 %
16.05.2016 00:04 6,8 C 82 % 1018,9 hPa 0,0 l/m 4,5 km/h (1 Bft) SW 215 0 min 0,000 mm 0,0 UV-I 0 W/m 3,9 C 6,8 C 6,4 km/h (2 Bft) 100,00 %
16.05.2016 00:05 6,8 C 82 % 1018,9 hPa 0,0 l/m 4,4 km/h (1 Bft) SW 219 0 min 0,000 mm 0,0 UV-I 0 W/m 3,9 C 6,8 C 6,4 km/h (2 Bft) 100,00 %
16.05.2016 00:06 6,8 C 82 % 1018,9 hPa 0,0 l/m 6,1 km/h (2 Bft) SW 219 0 min 0,000 mm 0,0 UV-I 0 W/m 3,9 C 6,8 C 8,0 km/h (2 Bft) 100,00 %
16.05.2016 00:07 6,7 C 82 % 1018,9 hPa 0,0 l/m 6,4 km/h (2 Bft) W-SW 240 0 min 0,000 mm 0,0 UV-I 0 W/m 3,8 C 6,7 C 8,0 km/h (2 Bft) 100,00 %
16.05.2016 00:08 6,7 C 82 % 1019,0 hPa 0,0 l/m 5,1 km/h (1 Bft) SW 220 0 min 0,000 mm 0,0 UV-I 0 W/m 3,8 C 6,7 C 8,0 km/h (2 Bft) 100,00 %
16.05.2016 00:09 6,7 C 82 % 1019,0 hPa 0,0 l/m 5,1 km/h (1 Bft) S-SW 213 0 min 0,000 mm 0,0 UV-I 0 W/m 3,8 C 6,7 C 6,4 km/h (2 Bft) 91,67 %
16.05.2016 00:10 6,7 C 82 % 1019,1 hPa 0,0 l/m 7,6 km/h (2 Bft) SW 223 0 min 0,000 mm 0,0 UV-I 0 W/m 3,8 C 5,7 C 9,7 km/h (2 Bft) 100,00 %
16.05.2016 00:11 6,7 C 82 % 1019,1 hPa 0,0 l/m 8,4 km/h (2 Bft) SW 225 0 min 0,000 mm 0,0 UV-I 0 W/m 3,8 C 5,1 C 11,3 km/h (2 Bft) 96,55 %
16.05.2016 00:12 6,7 C 83 % 1019,1 hPa 0,0 l/m 7,2 km/h (2 Bft) W-SW 241 0 min 0,000 mm 0,0 UV-I 0 W/m 4,0 C 6,0 C 8,0 km/h (2 Bft) 100,00 %
16.05.2016 00:13 6,7 C 83 % 1019,1 hPa 0,0 l/m 8,3 km/h (2 Bft) W-SW 242 0 min 0,000 mm 0,0 UV-I 0 W/m 4,0 C 5,2 C 11,3 km/h (2 Bft) 100,00 %
16.05.2016 00:14 6,7 C 83 % 1019,0 hPa 0,0 l/m 6,8 km/h (2 Bft) W-SW 248 0 min 0,000 mm 0,0 UV-I 0 W/m 4,0 C 6,4 C 11,3 km/h (2 Bft) 100,00 %
16.05.2016 00:15 6,7 C 83 % 1019,0 hPa 0,0 l/m 6,8 km/h (2 Bft) W-SW 244 0 min 0,000 mm 0,0 UV-I 0 W/m 4,0 C 6,4 C 12,9 km/h (3 Bft) 100,00 %
16.05.2016 00:16 6,7 C 83 % 1019,0 hPa 0,0 l/m 5,9 km/h (2 Bft) SW 230 0 min 0,000 mm 0,0 UV-I 0 W/m 4,0 C 6,7 C 8,0 km/h (2 Bft) 95,65 %
16.05.2016 00:17 6,7 C 83 % 1019,0 hPa 0,0 l/m 7,4 km/h (2 Bft) SW 228 0 min 0,000 mm 0,0 UV-I 0 W/m 4,0 C 5,9 C 9,7 km/h (2 Bft) 100,00 %
16.05.2016 00:18 6,7 C 83 % 1019,0 hPa 0,0 l/m 6,4 km/h (2 Bft) S-SW 210 0 min 0,000 mm 0,0 UV-I 0 W/m 4,0 C 6,7 C 8,0 km/h (2 Bft) 100,00 %
16.05.2016 00:19 6,7 C 84 % 1019,1 hPa 0,0 l/m 7,4 km/h (2 Bft) SW 215 0 min 0,000 mm 0,0 UV-I 0 W/m 4,2 C 5,9 C 9,7 km/h (2 Bft) 96,30 %
16.05.2016 00:20 6,7 C 84 % 1019,1 hPa 0,0 l/m 7,2 km/h (2 Bft) W-SW 248 0 min 0,000 mm 0,0 UV-I 0 W/m 4,2 C 6,0 C 9,7 km/h (2 Bft) 98,65 %
16.05.2016 00:21 6,7 C 84 % 1019,1 hPa 0,0 l/m 7,7 km/h (2 Bft) SW 228 0 min 0,000 mm 0,0 UV-I 0 W/m 4,2 C 5,6 C 11,3 km/h (2 Bft) 97,56 %
16.05.2016 00:22 6,7 C 83 % 1019,1 hPa 0,0 l/m 8,0 km/h (2 Bft) SW 225 0 min 0,000 mm 0,0 UV-I 0 W/m 4,0 C 5,4 C 12,9 km/h (3 Bft) 96,15 %
16.05.2016 00:23 6,7 C 83 % 1019,1 hPa 0,0 l/m 7,2 km/h (2 Bft) SW 227 0 min 0,000 mm 0,0 UV-I 0 W/m 4,0 C 6,0 C 9,7 km/h (2 Bft) 100,00 %
16.05.2016 00:24 6,7 C 83 % 1019,1 hPa 0,0 l/m 6,1 km/h (2 Bft) SW 234 0 min 0,000 mm 0,0 UV-I 0 W/m 4,0 C 6,7 C 8,0 km/h (2 Bft) 92,86 %
16.05.2016 00:25 6,7 C 83 % 1019,1 hPa 0,0 l/m 6,9 km/h (2 Bft) SW 218 0 min 0,000 mm 0,0 UV-I 0 W/m 4,0 C 6,3 C 8,0 km/h (2 Bft) 100,00 %
16.05.2016 00:26 6,7 C 83 % 1019,1 hPa 0,0 l/m 5,3 km/h (1 Bft) SW 219 0 min 0,000 mm 0,0 UV-I 0 W/m 4,0 C 6,7 C 8,0 km/h (2 Bft) 96,15 %
16.05.2016 00:27 6,7 C 83 % 1019,1 hPa 0,0 l/m 6,7 km/h (2 Bft) S-SW 194 0 min 0,000 mm 0,0 UV-I 0 W/m 4,0 C 6,5 C 11,3 km/h (2 Bft) 96,30 %
16.05.2016 00:28 6,7 C 83 % 1019,0 hPa 0,0 l/m 9,2 km/h (2 Bft) SW 234 0 min 0,000 mm 0,0 UV-I 0 W/m 4,0 C 4,5 C 11,3 km/h (2 Bft) 100,00 %
16.05.2016 00:29 6,7 C 83 % 1019,0 hPa 0,0 l/m 8,5 km/h (2 Bft) W-SW 244 0 min 0,000 mm 0,0 UV-I 0 W/m 4,0 C 5,0 C 12,9 km/h (3 Bft) 94,44 %
16.05.2016 00:30 6,7 C 83 % 1019,0 hPa 0,0 l/m 10,0 km/h (2 Bft) SW 218 0 min 0,000 mm 0,0 UV-I 0 W/m 4,0 C 4,0 C 14,5 km/h (3 Bft) 100,00 %
16.05.2016 00:31 6,7 C 83 % 1019,0 hPa 0,0 l/m 7,4 km/h (2 Bft) W-SW 239 0 min 0,000 mm 0,0 UV-I 0 W/m 4,0 C 5,9 C 12,9 km/h (3 Bft) 95,83 %
16.05.2016 00:32 6,7 C 83 % 1019,0 hPa 0,0 l/m 5,1 km/h (1 Bft) SW 228 0 min 0,000 mm 0,0 UV-I 0 W/m 4,0 C 6,7 C 9,7 km/h (2 Bft) 100,00 %
16.05.2016 00:33 6,7 C 83 % 1019,0 hPa 0,0 l/m 7,3 km/h (2 Bft) SW 232 0 min 0,000 mm 0,0 UV-I 0 W/m 4,0 C 6,0 C 9,7 km/h (2 Bft) 95,83 %
16.05.2016 00:34 6,7 C 83 % 1019,0 hPa 0,0 l/m 7,2 km/h (2 Bft) SW 225 0 min 0,000 mm 0,0 UV-I 0 W/m 4,0 C 6,0 C 9,7 km/h (2 Bft) 100,00 %
16.05.2016 00:35 6,7 C 83 % 1019,0 hPa 0,0 l/m 8,0 km/h (2 Bft) SW 234 0 min 0,000 mm 0,0 UV-I 0 W/m 4,0 C 5,4 C 11,3 km/h (2 Bft) 93,33 %
16.05.2016 00:36 6,7 C 83 % 1019,0 hPa 0,0 l/m 8,7 km/h (2 Bft) SW 227 0 min 0,000 mm 0,0 UV-I 0 W/m 4,0 C 4,9 C 11,3 km/h (2 Bft) 100,00 %
16.05.2016 00:37 6,7 C 83 % 1019,0 hPa 0,0 l/m 8,9 km/h (2 Bft) W-SW 240 0 min 0,000 mm 0,0 UV-I 0 W/m 4,0 C 4,7 C 11,3 km/h (2 Bft) 91,30 %
16.05.2016 00:38 6,7 C 83 % 1019,0 hPa 0,0 l/m 9,1 km/h (2 Bft) SW 219 0 min 0,000 mm 0,0 UV-I 0 W/m 4,0 C 4,6 C 11,3 km/h (2 Bft) 96,30 %
16.05.2016 00:39 6,7 C 83 % 1019,0 hPa 0,0 l/m 9,1 km/h (2 Bft) SW 217 0 min 0,000 mm 0,0 UV-I 0 W/m 4,0 C 4,6 C 14,5 km/h (3 Bft) 100,00 %
16.05.2016 00:40 6,7 C 83 % 1019,0 hPa 0,0 l/m 7,8 km/h (2 Bft) W-SW 248 0 min 0,000 mm 0,0 UV-I 0 W/m 4,0 C 5,5 C 11,3 km/h (2 Bft) 96,30 %
16.05.2016 00:41 6,7 C 83 % 1019,0 hPa 0,0 l/m 8,6 km/h (2 Bft) SW 215 0 min 0,000 mm 0,0 UV-I 0 W/m 4,0 C 4,9 C 12,9 km/h (3 Bft) 100,00 %
16.05.2016 00:42 6,7 C 83 % 1019,0 hPa 0,0 l/m 7,4 km/h (2 Bft) SW 232 0 min 0,000 mm 0,0 UV-I 0 W/m 4,0 C 5,9 C 9,7 km/h (2 Bft) 96,30 %
16.05.2016 00:43 6,7 C 83 % 1019,0 hPa 0,0 l/m 9,0 km/h (2 Bft) SW 234 0 min 0,000 mm 0,0 UV-I 0 W/m 4,0 C 4,6 C 12,9 km/h (3 Bft) 100,00 %
16.05.2016 00:44 6,7 C 83 % 1019,0 hPa 0,0 l/m 9,2 km/h (2 Bft) SW 227 0 min 0,000 mm 0,0 UV-I 0 W/m 4,0 C 4,5 C 12,9 km/h (3 Bft) 95,83 %
16.05.2016 00:45 6,7 C 83 % 1019,0 hPa 0,0 l/m 11,8 km/h (2 Bft) W 274 0 min 0,000 mm 0,0 UV-I 0 W/m 4,0 C 2,8 C 19,3 km/h (3 Bft) 96,15 %
16.05.2016 00:46 6,8 C 82 % 1018,9 hPa 0,0 l/m 9,7 km/h (2 Bft) SW 222 0 min 0,000 mm 0,0 UV-I 0 W/m 3,9 C 4,3 C 12,9 km/h (3 Bft) 96,67 %
16.05.2016 00:47 6,8 C 82 % 1019,0 hPa 0,0 l/m 6,4 km/h (2 Bft) SW 216 0 min 0,000 mm 0,0 UV-I 0 W/m 3,9 C 6,8 C 8,0 km/h (2 Bft) 100,00 %
16.05.2016 00:48 6,8 C 82 % 1019,0 hPa 0,0 l/m 7,8 km/h (2 Bft) W-SW 248 0 min 0,000 mm 0,0 UV-I 0 W/m 3,9 C 5,6 C 11,3 km/h (2 Bft) 96,30 %
16.05.2016 00:49 6,8 C 82 % 1019,0 hPa 0,0 l/m 8,2 km/h (2 Bft) W-SW 242 0 min 0,000 mm 0,0 UV-I 0 W/m 3,9 C 5,3 C 11,3 km/h (2 Bft) 96,15 %
16.05.2016 00:50 6,8 C 82 % 1019,0 hPa 0,0 l/m 7,6 km/h (2 Bft) SW 232 0 min 0,000 mm 0,0 UV-I 0 W/m 3,9 C 5,8 C 11,3 km/h (2 Bft) 100,00 %
16.05.2016 00:51 6,8 C 82 % 1019,0 hPa 0,0 l/m 11,5 km/h (2 Bft) SW 236 0 min 0,000 mm 0,0 UV-I 0 W/m 3,9 C 3,1 C 16,1 km/h (3 Bft) 93,33 %
16.05.2016 00:52 6,8 C 82 % 1019,0 hPa 0,0 l/m 11,7 km/h (2 Bft) S-SW 208 0 min 0,000 mm 0,0 UV-I 0 W/m 3,9 C 3,0 C 14,5 km/h (3 Bft) 100,00 %
16.05.2016 00:53 6,9 C 82 % 1019,0 hPa 0,0 l/m 9,3 km/h (2 Bft) W-SW 239 0 min 0,000 mm 0,0 UV-I 0 W/m 4,0 C 4,6 C 11,3 km/h (2 Bft) 95,65 %
16.05.2016 00:54 6,9 C 82 % 1019,0 hPa 0,0 l/m 9,8 km/h (2 Bft) SW 236 0 min 0,000 mm 0,0 UV-I 0 W/m 4,0 C 4,3 C 14,5 km/h (3 Bft) 100,00 %
16.05.2016 00:55 6,9 C 82 % 1019,0 hPa 0,0 l/m 8,0 km/h (2 Bft) SW 220 0 min 0,000 mm 0,0 UV-I 0 W/m 4,0 C 5,6 C 9,7 km/h (2 Bft) 100,00 %
16.05.2016 00:56 6,9 C 82 % 1019,0 hPa 0,0 l/m 8,4 km/h (2 Bft) W-SW 241 0 min 0,000 mm 0,0 UV-I 0 W/m 4,0 C 5,3 C 11,3 km/h (2 Bft) 100,00 %
16.05.2016 00:57 6,9 C 82 % 1019,0 hPa 0,0 l/m 7,7 km/h (2 Bft) SW 234 0 min 0,000 mm 0,0 UV-I 0 W/m 4,0 C 5,8 C 9,7 km/h (2 Bft) 100,00 %
16.05.2016 00:58 6,9 C 82 % 1019,0 hPa 0,0 l/m 7,5 km/h (2 Bft) W-SW 238 0 min 0,000 mm 0,0 UV-I 0 W/m 4,0 C 6,0 C 11,3 km/h (2 Bft) 100,00 %
16.05.2016 00:59 6,9 C 82 % 1019,0 hPa 0,0 l/m 7,8 km/h (2 Bft) W-SW 240 0 min 0,000 mm 0,0 UV-I 0 W/m 4,0 C 5,8 C 11,3 km/h (2 Bft) 100,00 %
16.05.2016 01:00 6,9 C 82 % 1019,0 hPa 0,0 l/m 7,9 km/h (2 Bft) SW 214 0 min 0,025 mm 0,0 UV-I 0 W/m 4,0 C 5,7 C 11,3 km/h (2 Bft) 95,65 %
16.05.2016 01:01 6,9 C 82 % 1019,0 hPa 0,0 l/m 7,6 km/h (2 Bft) W-SW 242 0 min 0,000 mm 0,0 UV-I 0 W/m 4,0 C 5,9 C 8,0 km/h (2 Bft) 100,00 %
16.05.2016 01:02 6,9 C 82 % 1019,0 hPa 0,0 l/m 7,2 km/h (2 Bft) SW 231 0 min 0,000 mm 0,0 UV-I 0 W/m 4,0 C 6,2 C 11,3 km/h (2 Bft) 100,00 %
16.05.2016 01:03 6,9 C 82 % 1019,0 hPa 0,0 l/m 7,2 km/h (2 Bft) SW 236 0 min 0,000 mm 0,0 UV-I 0 W/m 4,0 C 6,2 C 9,7 km/h (2 Bft) 100,00 %
16.05.2016 01:04 6,9 C 82 % 1019,0 hPa 0,0 l/m 8,5 km/h (2 Bft) S-SW 205 0 min 0,000 mm 0,0 UV-I 0 W/m 4,0 C 5,2 C 9,7 km/h (2 Bft) 100,00 %
16.05.2016 01:05 6,9 C 82 % 1018,9 hPa 0,0 l/m 9,3 km/h (2 Bft) SW 229 0 min 0,000 mm 0,0 UV-I 0 W/m 4,0 C 4,6 C 12,9 km/h (3 Bft) 100,00 %
16.05.2016 01:06 6,9 C 82 % 1019,0 hPa 0,0 l/m 8,4 km/h (2 Bft) SW 236 0 min 0,000 mm 0,0 UV-I 0 W/m 4,0 C 5,3 C 11,3 km/h (2 Bft) 100,00 %
16.05.2016 01:07 6,8 C 82 % 1019,0 hPa 0,0 l/m 8,9 km/h (2 Bft) SW 221 0 min 0,000 mm 0,0 UV-I 0 W/m 3,9 C 4,8 C 11,3 km/h (2 Bft) 96,15 %
16.05.2016 01:08 6,8 C 82 % 1018,9 hPa 0,0 l/m 10,6 km/h (2 Bft) SW 233 0 min 0,000 mm 0,0 UV-I 0 W/m 3,9 C 3,7 C 12,9 km/h (3 Bft) 100,00 %
16.05.2016 01:09 6,8 C 82 % 1019,0 hPa 0,0 l/m 9,3 km/h (2 Bft) SW 231 0 min 0,000 mm 0,0 UV-I 0 W/m 3,9 C 4,5 C 12,9 km/h (3 Bft) 100,00 %
16.05.2016 01:10 6,8 C 82 % 1018,9 hPa 0,0 l/m 10,4 km/h (2 Bft) SW 227 0 min 0,000 mm 0,0 UV-I 0 W/m 3,9 C 3,8 C 12,9 km/h (3 Bft) 100,00 %
16.05.2016 01:11 6,8 C 82 % 1018,9 hPa 0,0 l/m 9,3 km/h (2 Bft) W-SW 241 0 min 0,000 mm 0,0 UV-I 0 W/m 3,9 C 4,5 C 14,5 km/h (3 Bft) 96,88 %
16.05.2016 01:12 6,8 C 82 % 1018,9 hPa 0,0 l/m 11,3 km/h (2 Bft) SW 233 0 min 0,000 mm 0,0 UV-I 0 W/m 3,9 C 3,2 C 16,1 km/h (3 Bft) 100,00 %
16.05.2016 01:13 6,8 C 82 % 1018,9 hPa 0,0 l/m 9,4 km/h (2 Bft) W-SW 255 0 min 0,000 mm 0,0 UV-I 0 W/m 3,9 C 4,5 C 12,9 km/h (3 Bft) 100,00 %
16.05.2016 01:14 6,8 C 81 % 1018,9 hPa 0,0 l/m 10,0 km/h (2 Bft) SW 236 0 min 0,000 mm 0,0 UV-I 0 W/m 3,8 C 4,1 C 12,9 km/h (3 Bft) 100,00 %
16.05.2016 01:15 6,8 C 81 % 1018,9 hPa 0,0 l/m 11,7 km/h (2 Bft) S-SW 211 0 min 0,000 mm 0,0 UV-I 0 W/m 3,8 C 3,0 C 20,9 km/h (4 Bft) 96,55 %
16.05.2016 01:16 6,8 C 81 % 1018,9 hPa 0,0 l/m 10,7 km/h (2 Bft) W-SW 249 0 min 0,000 mm 0,0 UV-I 0 W/m 3,8 C 3,6 C 14,5 km/h (3 Bft) 100,00 %
16.05.2016 01:17 6,8 C 81 % 1018,9 hPa 0,0 l/m 8,6 km/h (2 Bft) SW 230 0 min 0,000 mm 0,0 UV-I 0 W/m 3,8 C 5,0 C 12,9 km/h (3 Bft) 98,24 %
16.05.2016 01:18 6,8 C 81 % 1018,9 hPa 0,0 l/m 9,4 km/h (2 Bft) SW 229 0 min 0,000 mm 0,0 UV-I 0 W/m 3,8 C 4,5 C 14,5 km/h (3 Bft) 100,00 %
16.05.2016 01:19 6,8 C 81 % 1018,9 hPa 0,0 l/m 10,2 km/h (2 Bft) W-SW 243 0 min 0,000 mm 0,0 UV-I 0 W/m 3,8 C 3,9 C 16,1 km/h (3 Bft) 100,00 %
16.05.2016 01:20 6,8 C 81 % 1018,9 hPa 0,0 l/m 10,3 km/h (2 Bft) W 261 0 min 0,000 mm 0,0 UV-I 0 W/m 3,8 C 3,9 C 12,9 km/h (3 Bft) 100,00 %
16.05.2016 01:21 6,8 C 81 % 1019,0 hPa 0,0 l/m 7,2 km/h (2 Bft) W-SW 239 0 min 0,000 mm 0,0 UV-I 0 W/m 3,8 C 6,1 C 11,3 km/h (2 Bft) 100,00 %
16.05.2016 01:22 6,8 C 81 % 1018,9 hPa 0,0 l/m 10,1 km/h (2 Bft) W-SW 243 0 min 0,000 mm 0,0 UV-I 0 W/m 3,8 C 4,0 C 14,5 km/h (3 Bft) 100,00 %
16.05.2016 01:23 6,8 C 81 % 1019,0 hPa 0,0 l/m 8,5 km/h (2 Bft) SW 215 0 min 0,000 mm 0,0 UV-I 0 W/m 3,8 C 5,1 C 11,3 km/h (2 Bft) 100,00 %
16.05.2016 01:24 6,8 C 81 % 1019,0 hPa 0,0 l/m 7,5 km/h (2 Bft) W-SW 254 0 min 0,000 mm 0,0 UV-I 0 W/m 3,8 C 5,9 C 11,3 km/h (2 Bft) 96,30 %
16.05.2016 01:25 6,8 C 82 % 1019,0 hPa 0,0 l/m 8,3 km/h (2 Bft) W-SW 253 0 min 0,000 mm 0,0 UV-I 0 W/m 3,9 C 5,3 C 12,9 km/h (3 Bft) 100,00 %
16.05.2016 01:26 6,8 C 82 % 1019,0 hPa 0,0 l/m 10,5 km/h (2 Bft) S-SW 213 0 min 0,000 mm 0,0 UV-I 0 W/m 3,9 C 3,7 C 12,9 km/h (3 Bft) 100,00 %
16.05.2016 01:27 6,8 C 82 % 1019,0 hPa 0,0 l/m 7,9 km/h (2 Bft) W-SW 240 0 min 0,000 mm 0,0 UV-I 0 W/m 3,9 C 5,6 C 11,3 km/h (2 Bft) 100,00 %
16.05.2016 01:28 6,8 C 82 % 1019,0 hPa 0,0 l/m 6,1 km/h (2 Bft) W-SW 253 0 min 0,000 mm 0,0 UV-I 0 W/m 3,9 C 6,8 C 8,0 km/h (2 Bft) 95,83 %
16.05.2016 01:29 6,8 C 81 % 1019,0 hPa 0,0 l/m 8,9 km/h (2 Bft) W-SW 240 0 min 0,000 mm 0,0 UV-I 0 W/m 3,8 C 4,8 C 14,5 km/h (3 Bft) 100,00 %
16.05.2016 01:30 6,8 C 82 % 1019,0 hPa 0,0 l/m 7,8 km/h (2 Bft) W-SW 246 0 min 0,000 mm 0,0 UV-I 0 W/m 3,9 C 5,6 C 11,3 km/h (2 Bft) 95,83 %
16.05.2016 01:31 6,8 C 82 % 1019,0 hPa 0,0 l/m 6,4 km/h (2 Bft) W-SW 237 0 min 0,000 mm 0,0 UV-I 0 W/m 3,9 C 6,8 C 8,0 km/h (2 Bft) 100,00 %
16.05.2016 01:32 6,8 C 82 % 1019,0 hPa 0,0 l/m 9,7 km/h (2 Bft) SW 229 0 min 0,000 mm 0,0 UV-I 0 W/m 3,9 C 4,3 C 14,5 km/h (3 Bft) 100,00 %
16.05.2016 01:33 6,7 C 81 % 1018,9 hPa 0,0 l/m 10,5 km/h (2 Bft) W 266 0 min 0,000 mm 0,0 UV-I 0 W/m 3,7 C 3,6 C 16,1 km/h (3 Bft) 100,00 %
16.05.2016 01:34 6,8 C 81 % 1019,0 hPa 0,0 l/m 8,9 km/h (2 Bft) W-SW 242 0 min 0,000 mm 0,0 UV-I 0 W/m 3,8 C 4,8 C 12,9 km/h (3 Bft) 100,00 %
16.05.2016 01:35 6,8 C 81 % 1019,0 hPa 0,0 l/m 9,9 km/h (2 Bft) W 271 0 min 0,000 mm 0,0 UV-I 0 W/m 3,8 C 4,1 C 14,5 km/h (3 Bft) 100,00 %
16.05.2016 01:36 6,8 C 81 % 1019,0 hPa 0,0 l/m 7,3 km/h (2 Bft) SW 236 0 min 0,000 mm 0,0 UV-I 0 W/m 3,8 C 6,1 C 11,3 km/h (2 Bft) 100,00 %
16.05.2016 01:37 6,8 C 81 % 1019,0 hPa 0,0 l/m 7,6 km/h (2 Bft) SW 236 0 min 0,000 mm 0,0 UV-I 0 W/m 3,8 C 5,8 C 11,3 km/h (2 Bft) 100,00 %
16.05.2016 01:38 6,8 C 81 % 1019,0 hPa 0,0 l/m 8,3 km/h (2 Bft) W-SW 251 0 min 0,000 mm 0,0 UV-I 0 W/m 3,8 C 5,3 C 12,9 km/h (3 Bft) 100,00 %
16.05.2016 01:39 6,8 C 81 % 1019,0 hPa 0,0 l/m 10,2 km/h (2 Bft) S-SW 205 0 min 0,000 mm 0,0 UV-I 0 W/m 3,8 C 3,9 C 12,9 km/h (3 Bft) 100,00 %
16.05.2016 01:40 6,8 C 81 % 1018,9 hPa 0,0 l/m 7,5 km/h (2 Bft) W-SW 238 0 min 0,000 mm 0,0 UV-I 0 W/m 3,8 C 5,9 C 12,9 km/h (3 Bft) 100,00 %
16.05.2016 01:41 6,8 C 81 % 1019,0 hPa 0,0 l/m 10,1 km/h (2 Bft) W-SW 250 0 min 0,000 mm 0,0 UV-I 0 W/m 3,8 C 4,0 C 14,5 km/h (3 Bft) 100,00 %
16.05.2016 01:42 6,8 C 81 % 1019,0 hPa 0,0 l/m 9,3 km/h (2 Bft) SW 233 0 min 0,000 mm 0,0 UV-I 0 W/m 3,8 C 4,5 C 12,9 km/h (3 Bft) 100,00 %
16.05.2016 01:43 6,8 C 81 % 1019,0 hPa 0,0 l/m 9,6 km/h (2 Bft) W-SW 246 0 min 0,000 mm 0,0 UV-I 0 W/m 3,8 C 4,3 C 16,1 km/h (3 Bft) 95,83 %
16.05.2016 01:44 6,8 C 81 % 1019,0 hPa 0,0 l/m 8,2 km/h (2 Bft) W-SW 250 0 min 0,000 mm 0,0 UV-I 0 W/m 3,8 C 5,3 C 11,3 km/h (2 Bft) 100,00 %
16.05.2016 01:45 6,8 C 81 % 1018,9 hPa 0,0 l/m 8,0 km/h (2 Bft) SW 219 0 min 0,000 mm 0,0 UV-I 0 W/m 3,8 C 5,5 C 11,3 km/h (2 Bft) 100,00 %
16.05.2016 01:46 6,8 C 81 % 1019,0 hPa 0,0 l/m 8,1 km/h (2 Bft) S 191 0 min 0,000 mm 0,0 UV-I 0 W/m 3,8 C 5,4 C 11,3 km/h (2 Bft) 96,15 %
16.05.2016 01:47 6,8 C 81 % 1019,0 hPa 0,0 l/m 6,9 km/h (2 Bft) W 260 0 min 0,000 mm 0,0 UV-I 0 W/m 3,8 C 6,4 C 11,3 km/h (2 Bft) 100,00 %
16.05.2016 01:48 6,8 C 81 % 1019,0 hPa 0,0 l/m 8,6 km/h (2 Bft) SW 226 0 min 0,000 mm 0,0 UV-I 0 W/m 3,8 C 5,0 C 12,9 km/h (3 Bft) 100,00 %
16.05.2016 01:49 6,8 C 81 % 1019,0 hPa 0,0 l/m 8,0 km/h (2 Bft) W-SW 250 0 min 0,000 mm 0,0 UV-I 0 W/m 3,8 C 5,5 C 11,3 km/h (2 Bft) 100,00 %
16.05.2016 01:50 6,8 C 81 % 1019,0 hPa 0,0 l/m 7,8 km/h (2 Bft) W-SW 246 0 min 0,000 mm 0,0 UV-I 0 W/m 3,8 C 5,6 C 11,3 km/h (2 Bft) 100,00 %
16.05.2016 01:51 6,8 C 81 % 1019,0 hPa 0,0 l/m 8,4 km/h (2 Bft) S-SW 210 0 min 0,000 mm 0,0 UV-I 0 W/m 3,8 C 5,2 C 12,9 km/h (3 Bft) 100,00 %
16.05.2016 01:52 6,8 C 81 % 1019,0 hPa 0,0 l/m 10,7 km/h (2 Bft) W-SW 238 0 min 0,000 mm 0,0 UV-I 0 W/m 3,8 C 3,6 C 16,1 km/h (3 Bft) 96,15 %
16.05.2016 01:53 6,8 C 80 % 1019,0 hPa 0,0 l/m 9,1 km/h (2 Bft) W-SW 250 0 min 0,000 mm 0,0 UV-I 0 W/m 3,6 C 4,7 C 12,9 km/h (3 Bft) 100,00 %
16.05.2016 01:54 6,8 C 80 % 1019,0 hPa 0,0 l/m 8,1 km/h (2 Bft) W 259 0 min 0,000 mm 0,0 UV-I 0 W/m 3,6 C 5,4 C 11,3 km/h (2 Bft) 100,00 %
16.05.2016 01:55 6,8 C 81 % 1019,0 hPa 0,0 l/m 8,3 km/h (2 Bft) W-SW 248 0 min 0,000 mm 0,0 UV-I 0 W/m 3,8 C 5,3 C 11,3 km/h (2 Bft) 100,00 %
16.05.2016 01:56 6,8 C 80 % 1019,0 hPa 0,0 l/m 9,0 km/h (2 Bft) W-SW 244 0 min 0,000 mm 0,0 UV-I 0 W/m 3,6 C 4,7 C 12,9 km/h (3 Bft) 100,00 %
16.05.2016 01:57 6,8 C 80 % 1019,0 hPa 0,0 l/m 8,3 km/h (2 Bft) SW 235 0 min 0,000 mm 0,0 UV-I 0 W/m 3,6 C 5,3 C 12,9 km/h (3 Bft) 100,00 %
16.05.2016 01:58 6,8 C 80 % 1018,9 hPa 0,0 l/m 9,7 km/h (2 Bft) W-SW 242 0 min 0,000 mm 0,0 UV-I 0 W/m 3,6 C 4,3 C 11,3 km/h (2 Bft) 100,00 %
16.05.2016 01:59 6,8 C 81 % 1019,0 hPa 0,0 l/m 9,7 km/h (2 Bft) W-SW 243 0 min 0,000 mm 0,0 UV-I 0 W/m 3,8 C 4,3 C 16,1 km/h (3 Bft) 95,65 %
16.05.2016 02:00 6,7 C 81 % 1018,9 hPa 0,0 l/m 8,7 km/h (2 Bft) W-SW 255 0 min 0,026 mm 0,0 UV-I 0 W/m 3,7 C 4,9 C 14,5 km/h (3 Bft) 100,00 %
16.05.2016 02:01 6,7 C 81 % 1019,0 hPa 0,0 l/m 6,3 km/h (2 Bft) S-SW 196 0 min 0,000 mm 0,0 UV-I 0 W/m 3,7 C 6,7 C 8,0 km/h (2 Bft) 100,00 %
16.05.2016 02:02 6,7 C 81 % 1018,9 hPa 0,0 l/m 8,9 km/h (2 Bft) SW 218 0 min 0,000 mm 0,0 UV-I 0 W/m 3,7 C 4,7 C 11,3 km/h (2 Bft) 95,83 %
16.05.2016 02:03 6,7 C 81 % 1018,9 hPa 0,0 l/m 8,3 km/h (2 Bft) W-SW 248 0 min 0,000 mm 0,0 UV-I 0 W/m 3,7 C 5,2 C 11,3 km/h (2 Bft) 100,00 %
16.05.2016 02:04 6,7 C 81 % 1018,9 hPa 0,0 l/m 8,0 km/h (2 Bft) SW 232 0 min 0,000 mm 0,0 UV-I 0 W/m 3,7 C 5,4 C 11,3 km/h (2 Bft) 100,00 %
16.05.2016 02:05 6,7 C 81 % 1018,9 hPa 0,0 l/m 8,6 km/h (2 Bft) S-SW 213 0 min 0,000 mm 0,0 UV-I 0 W/m 3,7 C 4,9 C 11,3 km/h (2 Bft) 100,00 %
16.05.2016 02:06 6,7 C 81 % 1018,9 hPa 0,0 l/m 6,1 km/h (2 Bft) SW 220 0 min 0,000 mm 0,0 UV-I 0 W/m 3,7 C 6,7 C 8,0 km/h (2 Bft) 100,00 %
16.05.2016 02:07 6,7 C 81 % 1018,9 hPa 0,0 l/m 7,2 km/h (2 Bft) W-SW 237 0 min 0,000 mm 0,0 UV-I 0 W/m 3,7 C 6,0 C 9,7 km/h (2 Bft) 100,00 %
16.05.2016 02:08 6,6 C 81 % 1019,0 hPa 0,0 l/m 7,5 km/h (2 Bft) W-SW 243 0 min 0,000 mm 0,0 UV-I 0 W/m 3,6 C 5,7 C 9,7 km/h (2 Bft) 100,00 %
16.05.2016 02:09 6,6 C 81 % 1018,9 hPa 0,0 l/m 9,7 km/h (2 Bft) SW 227 0 min 0,000 mm 0,0 UV-I 0 W/m 3,6 C 4,0 C 12,9 km/h (3 Bft) 100,00 %
16.05.2016 02:10 6,6 C 81 % 1018,9 hPa 0,0 l/m 8,0 km/h (2 Bft) W-SW 257 0 min 0,000 mm 0,0 UV-I 0 W/m 3,6 C 5,3 C 12,9 km/h (3 Bft) 100,00 %
16.05.2016 02:11 6,6 C 81 % 1018,9 hPa 0,0 l/m 7,2 km/h (2 Bft) SW 235 0 min 0,000 mm 0,0 UV-I 0 W/m 3,6 C 5,9 C 11,3 km/h (2 Bft) 100,00 %
16.05.2016 02:12 6,6 C 81 % 1019,0 hPa 0,0 l/m 11,1 km/h (2 Bft) S-SW 209 0 min 0,000 mm 0,0 UV-I 0 W/m 3,6 C 3,1 C 17,7 km/h (3 Bft) 100,00 %
16.05.2016 02:13 6,6 C 81 % 1019,0 hPa 0,0 l/m 9,8 km/h (2 Bft) W-SW 244 0 min 0,000 mm 0,0 UV-I 0 W/m 3,6 C 4,0 C 12,9 km/h (3 Bft) 96,30 %
16.05.2016 02:14 6,6 C 81 % 1018,9 hPa 0,0 l/m 11,2 km/h (2 Bft) SW 216 0 min 0,000 mm 0,0 UV-I 0 W/m 3,6 C 3,1 C 16,1 km/h (3 Bft) 100,00 %
16.05.2016 02:15 6,6 C 81 % 1018,9 hPa 0,0 l/m 9,5 km/h (2 Bft) SW 221 0 min 0,000 mm 0,0 UV-I 0 W/m 3,6 C 4,2 C 12,9 km/h (3 Bft) 100,00 %
16.05.2016 02:16 6,6 C 81 % 1018,9 hPa 0,0 l/m 8,8 km/h (2 Bft) SW 227 0 min 0,000 mm 0,0 UV-I 0 W/m 3,6 C 4,7 C 14,5 km/h (3 Bft) 100,00 %
16.05.2016 02:17 6,6 C 80 % 1018,9 hPa 0,0 l/m 12,9 km/h (3 Bft) SW 221 0 min 0,000 mm 0,0 UV-I 0 W/m 3,4 C 2,1 C 16,1 km/h (3 Bft) 100,00 %
16.05.2016 02:18 6,6 C 81 % 1018,9 hPa 0,0 l/m 8,8 km/h (2 Bft) SW 223 0 min 0,000 mm 0,0 UV-I 0 W/m 3,6 C 4,7 C 12,9 km/h (3 Bft) 100,00 %
16.05.2016 02:19 6,6 C 81 % 1018,9 hPa 0,0 l/m 7,9 km/h (2 Bft) W-SW 257 0 min 0,000 mm 0,0 UV-I 0 W/m 3,6 C 5,4 C 12,9 km/h (3 Bft) 100,00 %
16.05.2016 02:20 6,6 C 81 % 1018,9 hPa 0,0 l/m 11,3 km/h (2 Bft) S-SW 213 0 min 0,000 mm 0,0 UV-I 0 W/m 3,6 C 3,0 C 14,5 km/h (3 Bft) 100,00 %
16.05.2016 02:21 6,6 C 80 % 1018,9 hPa 0,0 l/m 10,4 km/h (2 Bft) S-SW 207 0 min 0,000 mm 0,0 UV-I 0 W/m 3,4 C 3,6 C 16,1 km/h (3 Bft) 100,00 %
16.05.2016 02:22 6,6 C 80 % 1018,9 hPa 0,0 l/m 9,5 km/h (2 Bft) W-SW 239 0 min 0,000 mm 0,0 UV-I 0 W/m 3,4 C 4,2 C 12,9 km/h (3 Bft) 96,15 %
16.05.2016 02:23 6,6 C 80 % 1018,8 hPa 0,0 l/m 12,1 km/h (2 Bft) S-SW 213 0 min 0,000 mm 0,0 UV-I 0 W/m 3,4 C 2,5 C 16,1 km/h (3 Bft) 100,00 %
16.05.2016 02:24 6,6 C 81 % 1018,9 hPa 0,0 l/m 10,7 km/h (2 Bft) S-SW 208 0 min 0,000 mm 0,0 UV-I 0 W/m 3,6 C 3,4 C 14,5 km/h (3 Bft) 95,65 %
16.05.2016 02:25 6,6 C 81 % 1018,9 hPa 0,0 l/m 9,3 km/h (2 Bft) W-SW 243 0 min 0,000 mm 0,0 UV-I 0 W/m 3,6 C 4,3 C 12,9 km/h (3 Bft) 100,00 %
16.05.2016 02:26 6,6 C 81 % 1018,9 hPa 0,0 l/m 10,5 km/h (2 Bft) SW 220 0 min 0,000 mm 0,0 UV-I 0 W/m 3,6 C 3,5 C 12,9 km/h (3 Bft) 91,30 %
16.05.2016 02:27 6,6 C 81 % 1018,9 hPa 0,0 l/m 11,5 km/h (2 Bft) SW 236 0 min 0,000 mm 0,0 UV-I 0 W/m 3,6 C 2,9 C 16,1 km/h (3 Bft) 100,00 %
16.05.2016 02:28 6,6 C 81 % 1018,8 hPa 0,0 l/m 9,5 km/h (2 Bft) SW 223 0 min 0,000 mm 0,0 UV-I 0 W/m 3,6 C 4,2 C 12,9 km/h (3 Bft) 96,15 %
16.05.2016 02:29 6,6 C 81 % 1018,9 hPa 0,0 l/m 10,3 km/h (2 Bft) W-SW 248 0 min 0,000 mm 0,0 UV-I 0 W/m 3,6 C 3,6 C 14,5 km/h (3 Bft) 95,83 %
16.05.2016 02:30 6,6 C 80 % 1018,8 hPa 0,0 l/m 9,5 km/h (2 Bft) W-SW 239 0 min 0,000 mm 0,0 UV-I 0 W/m 3,4 C 4,2 C 14,5 km/h (3 Bft) 100,00 %
16.05.2016 02:31 6,6 C 80 % 1018,8 hPa 0,0 l/m 11,6 km/h (2 Bft) SW 220 0 min 0,000 mm 0,0 UV-I 0 W/m 3,4 C 2,8 C 16,1 km/h (3 Bft) 93,33 %
16.05.2016 02:32 6,5 C 80 % 1018,8 hPa 0,0 l/m 8,9 km/h (2 Bft) SW 236 0 min 0,000 mm 0,0 UV-I 0 W/m 3,3 C 4,5 C 12,9 km/h (3 Bft) 96,55 %
16.05.2016 02:33 6,5 C 80 % 1018,8 hPa 0,0 l/m 8,5 km/h (2 Bft) W-SW 251 0 min 0,000 mm 0,0 UV-I 0 W/m 3,3 C 4,8 C 11,3 km/h (2 Bft) 96,30 %
16.05.2016 02:34 6,6 C 80 % 1018,8 hPa 0,0 l/m 9,3 km/h (2 Bft) SW 225 0 min 0,000 mm 0,0 UV-I 0 W/m 3,4 C 4,3 C 12,9 km/h (3 Bft) 100,00 %
16.05.2016 02:35 6,5 C 80 % 1018,8 hPa 0,0 l/m 10,6 km/h (2 Bft) SW 222 0 min 0,000 mm 0,0 UV-I 0 W/m 3,3 C 3,3 C 14,5 km/h (3 Bft) 96,55 %
16.05.2016 02:36 6,5 C 80 % 1018,8 hPa 0,0 l/m 10,0 km/h (2 Bft) W-SW 237 0 min 0,000 mm 0,0 UV-I 0 W/m 3,3 C 3,7 C 14,5 km/h (3 Bft) 100,00 %
16.05.2016 02:37 6,5 C 80 % 1018,8 hPa 0,0 l/m 8,7 km/h (2 Bft) W 266 0 min 0,000 mm 0,0 UV-I 0 W/m 3,3 C 4,6 C 14,5 km/h (3 Bft) 95,65 %
16.05.2016 02:38 6,5 C 80 % 1018,8 hPa 0,0 l/m 10,8 km/h (2 Bft) S 172 0 min 0,000 mm 0,0 UV-I 0 W/m 3,3 C 3,2 C 12,9 km/h (3 Bft) 100,00 %
16.05.2016 02:39 6,5 C 80 % 1018,8 hPa 0,0 l/m 10,9 km/h (2 Bft) SW 229 0 min 0,000 mm 0,0 UV-I 0 W/m 3,3 C 3,1 C 14,5 km/h (3 Bft) 96,15 %
16.05.2016 02:40 6,5 C 80 % 1018,8 hPa 0,0 l/m 11,5 km/h (2 Bft) W-SW 247 0 min 0,000 mm 0,0 UV-I 0 W/m 3,3 C 2,8 C 17,7 km/h (3 Bft) 96,30 %
16.05.2016 02:41 6,5 C 80 % 1018,8 hPa 0,0 l/m 10,6 km/h (2 Bft) SW 222 0 min 0,000 mm 0,0 UV-I 0 W/m 3,3 C 3,3 C 12,9 km/h (3 Bft) 100,00 %
16.05.2016 02:42 6,5 C 80 % 1018,8 hPa 0,0 l/m 10,5 km/h (2 Bft) W-SW 243 0 min 0,000 mm 0,0 UV-I 0 W/m 3,3 C 3,4 C 12,9 km/h (3 Bft) 96,30 %
16.05.2016 02:43 6,5 C 80 % 1018,8 hPa 0,0 l/m 12,1 km/h (2 Bft) SW 229 0 min 0,000 mm 0,0 UV-I 0 W/m 3,3 C 2,4 C 16,1 km/h (3 Bft) 100,00 %
16.05.2016 02:44 6,5 C 80 % 1018,8 hPa 0,0 l/m 10,2 km/h (2 Bft) W-SW 251 0 min 0,000 mm 0,0 UV-I 0 W/m 3,3 C 3,6 C 12,9 km/h (3 Bft) 91,67 %
16.05.2016 02:45 6,5 C 80 % 1018,8 hPa 0,0 l/m 11,3 km/h (2 Bft) W-SW 251 0 min 0,000 mm 0,0 UV-I 0 W/m 3,3 C 2,9 C 16,1 km/h (3 Bft) 100,00 %
16.05.2016 02:46 6,5 C 80 % 1018,8 hPa 0,0 l/m 10,0 km/h (2 Bft) SW 216 0 min 0,000 mm 0,0 UV-I 0 W/m 3,3 C 3,7 C 12,9 km/h (3 Bft) 96,67 %
16.05.2016 02:47 6,5 C 80 % 1018,8 hPa 0,0 l/m 8,7 km/h (2 Bft) SW 221 0 min 0,000 mm 0,0 UV-I 0 W/m 3,3 C 4,6 C 11,3 km/h (2 Bft) 95,65 %
16.05.2016 02:48 6,4 C 80 % 1018,7 hPa 0,0 l/m 10,1 km/h (2 Bft) SW 227 0 min 0,000 mm 0,0 UV-I 0 W/m 3,2 C 3,6 C 16,1 km/h (3 Bft) 100,00 %
16.05.2016 02:49 6,5 C 80 % 1018,8 hPa 0,0 l/m 10,6 km/h (2 Bft) SW 227 0 min 0,000 mm 0,0 UV-I 0 W/m 3,3 C 3,3 C 11,3 km/h (2 Bft) 92,86 %
16.05.2016 02:50 6,5 C 80 % 1018,7 hPa 0,0 l/m 9,8 km/h (2 Bft) S-SW 213 0 min 0,000 mm 0,0 UV-I 0 W/m 3,3 C 3,9 C 12,9 km/h (3 Bft) 96,30 %
16.05.2016 02:51 6,4 C 80 % 1018,7 hPa 0,0 l/m 13,4 km/h (3 Bft) SW 234 0 min 0,000 mm 0,0 UV-I 0 W/m 3,2 C 1,6 C 19,3 km/h (3 Bft) 96,55 %
16.05.2016 02:52 6,4 C 80 % 1018,7 hPa 0,0 l/m 13,8 km/h (3 Bft) SW 236 0 min 0,000 mm 0,0 UV-I 0 W/m 3,2 C 1,4 C 19,3 km/h (3 Bft) 100,00 %
16.05.2016 02:53 6,4 C 80 % 1018,7 hPa 0,0 l/m 9,5 km/h (2 Bft) SW 235 0 min 0,000 mm 0,0 UV-I 0 W/m 3,2 C 4,0 C 12,9 km/h (3 Bft) 96,55 %
16.05.2016 02:54 6,4 C 79 % 1018,7 hPa 0,0 l/m 10,4 km/h (2 Bft) SW 227 0 min 0,000 mm 0,0 UV-I 0 W/m 3,0 C 3,4 C 17,7 km/h (3 Bft) 96,30 %
16.05.2016 02:55 6,4 C 79 % 1018,7 hPa 0,0 l/m 8,2 km/h (2 Bft) W-SW 240 0 min 0,000 mm 0,0 UV-I 0 W/m 3,0 C 4,9 C 12,9 km/h (3 Bft) 100,00 %
16.05.2016 02:56 6,4 C 79 % 1018,7 hPa 0,0 l/m 13,2 km/h (3 Bft) W-SW 248 0 min 0,000 mm 0,0 UV-I 0 W/m 3,0 C 1,7 C 19,3 km/h (3 Bft) 96,15 %
16.05.2016 02:57 6,5 C 79 % 1018,7 hPa 0,0 l/m 10,1 km/h (2 Bft) SW 232 0 min 0,000 mm 0,0 UV-I 0 W/m 3,1 C 3,7 C 14,5 km/h (3 Bft) 100,00 %
16.05.2016 02:58 6,5 C 79 % 1018,7 hPa 0,0 l/m 11,4 km/h (2 Bft) W-SW 240 0 min 0,000 mm 0,0 UV-I 0 W/m 3,1 C 2,8 C 14,5 km/h (3 Bft) 100,00 %
16.05.2016 02:59 6,5 C 79 % 1018,7 hPa 0,0 l/m 14,7 km/h (3 Bft) S-SW 213 0 min 0,000 mm 0,0 UV-I 0 W/m 3,1 C 1,0 C 19,3 km/h (3 Bft) 100,00 %
16.05.2016 03:00 6,5 C 78 % 1018,7 hPa 0,0 l/m 15,6 km/h (3 Bft) SW 221 0 min 0,025 mm 0,0 UV-I 0 W/m 2,9 C 0,6 C 20,9 km/h (4 Bft) 100,00 %
16.05.2016 03:02 6,5 C 79 % 1018,7 hPa 0,0 l/m 12,1 km/h (2 Bft) W-SW 246 0 min 0,000 mm 0,0 UV-I 0 W/m 3,1 C 2,4 C 17,7 km/h (3 Bft) 100,00 %
16.05.2016 03:03 6,5 C 79 % 1018,7 hPa 0,0 l/m 9,9 km/h (2 Bft) S-SW 209 0 min 0,000 mm 0,0 UV-I 0 W/m 3,1 C 3,8 C 14,5 km/h (3 Bft) 100,00 %
16.05.2016 03:04 6,5 C 79 % 1018,8 hPa 0,0 l/m 7,1 km/h (2 Bft) W-SW 245 0 min 0,000 mm 0,0 UV-I 0 W/m 3,1 C 5,9 C 9,7 km/h (2 Bft) 100,00 %
16.05.2016 03:05 6,4 C 79 % 1018,7 hPa 0,0 l/m 9,7 km/h (2 Bft) W-SW 243 0 min 0,000 mm 0,0 UV-I 0 W/m 3,0 C 3,8 C 16,1 km/h (3 Bft) 96,30 %
16.05.2016 03:06 6,4 C 79 % 1018,7 hPa 0,0 l/m 9,9 km/h (2 Bft) W-SW 237 0 min 0,000 mm 0,0 UV-I 0 W/m 3,0 C 3,7 C 12,9 km/h (3 Bft) 100,00 %
16.05.2016 03:07 6,4 C 79 % 1018,7 hPa 0,0 l/m 12,7 km/h (3 Bft) W-SW 246 0 min 0,000 mm 0,0 UV-I 0 W/m 3,0 C 2,0 C 17,7 km/h (3 Bft) 100,00 %
16.05.2016 03:08 6,4 C 79 % 1018,7 hPa 0,0 l/m 12,9 km/h (3 Bft) W-SW 238 0 min 0,000 mm 0,0 UV-I 0 W/m 3,0 C 1,9 C 16,1 km/h (3 Bft) 100,00 %
16.05.2016 03:09 6,4 C 78 % 1018,8 hPa 0,0 l/m 11,9 km/h (2 Bft) W-SW 239 0 min 0,000 mm 0,0 UV-I 0 W/m 2,8 C 2,4 C 14,5 km/h (3 Bft) 100,00 %
16.05.2016 03:10 6,4 C 78 % 1018,7 hPa 0,0 l/m 9,9 km/h (2 Bft) SW 217 0 min 0,000 mm 0,0 UV-I 0 W/m 2,8 C 3,7 C 14,5 km/h (3 Bft) 96,67 %
16.05.2016 03:11 6,4 C 78 % 1018,8 hPa 0,0 l/m 9,9 km/h (2 Bft) SW 220 0 min 0,000 mm 0,0 UV-I 0 W/m 2,8 C 3,7 C 14,5 km/h (3 Bft) 95,65 %
16.05.2016 03:12 6,4 C 78 % 1018,7 hPa 0,0 l/m 10,8 km/h (2 Bft) SW 229 0 min 0,000 mm 0,0 UV-I 0 W/m 2,8 C 3,1 C 16,1 km/h (3 Bft) 100,00 %
16.05.2016 03:13 6,4 C 78 % 1018,8 hPa 0,0 l/m 9,5 km/h (2 Bft) W-SW 252 0 min 0,000 mm 0,0 UV-I 0 W/m 2,8 C 4,0 C 14,5 km/h (3 Bft) 100,00 %
16.05.2016 03:14 6,4 C 78 % 1018,8 hPa 0,0 l/m 10,3 km/h (2 Bft) SW 227 0 min 0,000 mm 0,0 UV-I 0 W/m 2,8 C 3,4 C 16,1 km/h (3 Bft) 100,00 %
16.05.2016 03:15 6,4 C 78 % 1018,8 hPa 0,0 l/m 12,0 km/h (2 Bft) W-SW 238 0 min 0,000 mm 0,0 UV-I 0 W/m 2,8 C 2,4 C 16,1 km/h (3 Bft) 100,00 %
16.05.2016 03:16 6,4 C 77 % 1018,8 hPa 0,0 l/m 12,7 km/h (3 Bft) SW 227 0 min 0,000 mm 0,0 UV-I 0 W/m 2,7 C 2,0 C 19,3 km/h (3 Bft) 100,00 %
16.05.2016 03:17 6,4 C 77 % 1018,8 hPa 0,0 l/m 10,8 km/h (2 Bft) SW 219 0 min 0,000 mm 0,0 UV-I 0 W/m 2,7 C 3,1 C 14,5 km/h (3 Bft) 100,00 %
16.05.2016 03:18 6,4 C 77 % 1018,8 hPa 0,0 l/m 10,1 km/h (2 Bft) SW 232 0 min 0,000 mm 0,0 UV-I 0 W/m 2,7 C 3,6 C 16,1 km/h (3 Bft) 96,30 %
16.05.2016 03:19 6,4 C 77 % 1018,8 hPa 0,0 l/m 11,4 km/h (2 Bft) SW 227 0 min 0,000 mm 0,0 UV-I 0 W/m 2,7 C 2,7 C 16,1 km/h (3 Bft) 98,56 %
16.05.2016 03:20 6,4 C 77 % 1018,8 hPa 0,0 l/m 13,0 km/h (3 Bft) SW 231 0 min 0,000 mm 0,0 UV-I 0 W/m 2,7 C 1,8 C 16,1 km/h (3 Bft) 100,00 %
16.05.2016 03:21 6,4 C 77 % 1018,8 hPa 0,0 l/m 11,5 km/h (2 Bft) S-SW 198 0 min 0,000 mm 0,0 UV-I 0 W/m 2,7 C 2,7 C 14,5 km/h (3 Bft) 96,15 %
16.05.2016 03:22 6,4 C 77 % 1018,8 hPa 0,0 l/m 15,9 km/h (3 Bft) SW 224 0 min 0,000 mm 0,0 UV-I 0 W/m 2,7 C 0,3 C 19,3 km/h (3 Bft) 100,00 %
16.05.2016 03:23 6,4 C 76 % 1018,8 hPa 0,0 l/m 15,4 km/h (3 Bft) SW 236 0 min 0,000 mm 0,0 UV-I 0 W/m 2,5 C 0,6 C 19,3 km/h (3 Bft) 100,00 %
16.05.2016 03:24 6,4 C 76 % 1018,8 hPa 0,0 l/m 13,4 km/h (3 Bft) SW 225 0 min 0,000 mm 0,0 UV-I 0 W/m 2,5 C 1,6 C 19,3 km/h (3 Bft) 93,33 %
16.05.2016 03:25 6,4 C 76 % 1018,9 hPa 0,0 l/m 9,9 km/h (2 Bft) SW 236 0 min 0,000 mm 0,0 UV-I 0 W/m 2,5 C 3,7 C 14,5 km/h (3 Bft) 100,00 %
16.05.2016 03:26 6,4 C 77 % 1018,8 hPa 0,0 l/m 10,6 km/h (2 Bft) SW 228 0 min 0,000 mm 0,0 UV-I 0 W/m 2,7 C 3,2 C 14,5 km/h (3 Bft) 100,00 %
16.05.2016 03:27 6,4 C 77 % 1018,8 hPa 0,0 l/m 12,6 km/h (3 Bft) SW 236 0 min 0,000 mm 0,0 UV-I 0 W/m 2,7 C 2,0 C 17,7 km/h (3 Bft) 95,65 %
16.05.2016 03:28 6,4 C 77 % 1018,8 hPa 0,0 l/m 11,6 km/h (2 Bft) W-SW 246 0 min 0,000 mm 0,0 UV-I 0 W/m 2,7 C 2,6 C 16,1 km/h (3 Bft) 100,00 %
16.05.2016 03:29 6,3 C 77 % 1018,8 hPa 0,0 l/m 11,6 km/h (2 Bft) SW 225 0 min 0,000 mm 0,0 UV-I 0 W/m 2,6 C 2,5 C 17,7 km/h (3 Bft) 100,00 %
16.05.2016 03:30 6,3 C 77 % 1018,9 hPa 0,0 l/m 8,9 km/h (2 Bft) SW 223 0 min 0,000 mm 0,0 UV-I 0 W/m 2,6 C 4,3 C 12,9 km/h (3 Bft) 100,00 %
16.05.2016 03:31 6,3 C 77 % 1018,9 hPa 0,0 l/m 7,8 km/h (2 Bft) SW 218 0 min 0,000 mm 0,0 UV-I 0 W/m 2,6 C 5,1 C 11,3 km/h (2 Bft) 100,00 %
16.05.2016 03:32 6,3 C 78 % 1018,8 hPa 0,0 l/m 11,5 km/h (2 Bft) S-SW 213 0 min 0,000 mm 0,0 UV-I 0 W/m 2,8 C 2,6 C 16,1 km/h (3 Bft) 100,00 %
16.05.2016 03:33 6,3 C 77 % 1018,8 hPa 0,0 l/m 12,6 km/h (3 Bft) SW 223 0 min 0,000 mm 0,0 UV-I 0 W/m 2,6 C 1,9 C 17,7 km/h (3 Bft) 100,00 %
16.05.2016 03:34 6,3 C 78 % 1018,9 hPa 0,0 l/m 9,5 km/h (2 Bft) SW 232 0 min 0,000 mm 0,0 UV-I 0 W/m 2,8 C 3,9 C 12,9 km/h (3 Bft) 100,00 %
16.05.2016 03:35 6,3 C 78 % 1018,9 hPa 0,0 l/m 9,0 km/h (2 Bft) SW 218 0 min 0,000 mm 0,0 UV-I 0 W/m 2,8 C 4,2 C 11,3 km/h (2 Bft) 100,00 %
16.05.2016 03:36 6,3 C 78 % 1018,8 hPa 0,0 l/m 10,5 km/h (2 Bft) S-SW 211 0 min 0,000 mm 0,0 UV-I 0 W/m 2,8 C 3,2 C 14,5 km/h (3 Bft) 100,00 %
16.05.2016 03:37 6,3 C 78 % 1018,8 hPa 0,0 l/m 7,7 km/h (2 Bft) SW 234 0 min 0,000 mm 0,0 UV-I 0 W/m 2,8 C 5,2 C 11,3 km/h (2 Bft) 96,30 %
16.05.2016 03:38 6,2 C 78 % 1018,8 hPa 0,0 l/m 9,2 km/h (2 Bft) SW 217 0 min 0,000 mm 0,0 UV-I 0 W/m 2,7 C 4,0 C 11,3 km/h (2 Bft) 91,30 %
16.05.2016 03:39 6,2 C 78 % 1018,8 hPa 0,0 l/m 8,8 km/h (2 Bft) SW 235 0 min 0,000 mm 0,0 UV-I 0 W/m 2,7 C 4,2 C 11,3 km/h (2 Bft) 100,00 %
16.05.2016 03:40 6,2 C 78 % 1018,8 hPa 0,0 l/m 8,8 km/h (2 Bft) SW 223 0 min 0,000 mm 0,0 UV-I 0 W/m 2,7 C 4,2 C 11,3 km/h (2 Bft) 100,00 %
16.05.2016 03:41 6,2 C 79 % 1018,8 hPa 0,0 l/m 10,1 km/h (2 Bft) W-SW 248 0 min 0,000 mm 0,0 UV-I 0 W/m 2,8 C 3,3 C 14,5 km/h (3 Bft) 100,00 %
16.05.2016 03:42 6,2 C 79 % 1018,8 hPa 0,0 l/m 10,6 km/h (2 Bft) W-SW 242 0 min 0,000 mm 0,0 UV-I 0 W/m 2,8 C 3,0 C 14,5 km/h (3 Bft) 96,15 %
16.05.2016 03:43 6,2 C 79 % 1018,8 hPa 0,0 l/m 8,9 km/h (2 Bft) W-SW 240 0 min 0,000 mm 0,0 UV-I 0 W/m 2,8 C 4,2 C 14,5 km/h (3 Bft) 100,00 %
16.05.2016 03:44 6,2 C 80 % 1018,8 hPa 0,0 l/m 10,4 km/h (2 Bft) S-SW 208 0 min 0,000 mm 0,0 UV-I 0 W/m 3,0 C 3,1 C 14,5 km/h (3 Bft) 100,00 %
16.05.2016 03:45 6,1 C 79 % 1018,8 hPa 0,0 l/m 9,7 km/h (2 Bft) SW 235 0 min 0,000 mm 0,0 UV-I 0 W/m 2,7 C 3,5 C 12,9 km/h (3 Bft) 100,00 %
16.05.2016 03:46 6,1 C 79 % 1018,7 hPa 0,0 l/m 11,6 km/h (2 Bft) SW 224 0 min 0,000 mm 0,0 UV-I 0 W/m 2,7 C 2,3 C 16,1 km/h (3 Bft) 100,00 %
16.05.2016 03:47 6,1 C 79 % 1018,8 hPa 0,0 l/m 11,9 km/h (2 Bft) SW 216 0 min 0,000 mm 0,0 UV-I 0 W/m 2,7 C 2,1 C 17,7 km/h (3 Bft) 100,00 %
16.05.2016 03:48 6,1 C 80 % 1018,8 hPa 0,0 l/m 8,4 km/h (2 Bft) S-SW 213 0 min 0,000 mm 0,0 UV-I 0 W/m 2,9 C 4,4 C 12,9 km/h (3 Bft) 100,00 %
16.05.2016 03:49 6,1 C 80 % 1018,8 hPa 0,0 l/m 14,1 km/h (3 Bft) W-SW 240 0 min 0,000 mm 0,0 UV-I 0 W/m 2,9 C 0,9 C 17,7 km/h (3 Bft) 100,00 %
16.05.2016 03:50 6,1 C 80 % 1018,8 hPa 0,0 l/m 12,6 km/h (3 Bft) SW 230 0 min 0,000 mm 0,0 UV-I 0 W/m 2,9 C 1,7 C 17,7 km/h (3 Bft) 100,00 %
16.05.2016 03:51 6,1 C 80 % 1018,7 hPa 0,0 l/m 13,7 km/h (3 Bft) W-SW 241 0 min 0,000 mm 0,0 UV-I 0 W/m 2,9 C 1,1 C 20,9 km/h (4 Bft) 100,00 %
16.05.2016 03:52 6,1 C 80 % 1018,7 hPa 0,0 l/m 12,2 km/h (2 Bft) S-SW 213 0 min 0,000 mm 0,0 UV-I 0 W/m 2,9 C 1,9 C 17,7 km/h (3 Bft) 100,00 %
16.05.2016 03:53 6,1 C 80 % 1018,7 hPa 0,0 l/m 13,3 km/h (3 Bft) W-SW 248 0 min 0,000 mm 0,0 UV-I 0 W/m 2,9 C 1,3 C 17,7 km/h (3 Bft) 100,00 %
16.05.2016 03:54 6,1 C 80 % 1018,8 hPa 0,0 l/m 12,5 km/h (3 Bft) SW 232 0 min 0,000 mm 0,0 UV-I 0 W/m 2,9 C 1,7 C 17,7 km/h (3 Bft) 95,83 %
16.05.2016 03:55 6,1 C 80 % 1018,7 hPa 0,0 l/m 10,1 km/h (2 Bft) W-SW 246 0 min 0,000 mm 0,0 UV-I 0 W/m 2,9 C 3,2 C 14,5 km/h (3 Bft) 100,00 %
16.05.2016 03:56 6,2 C 80 % 1018,7 hPa 0,0 l/m 9,6 km/h (2 Bft) SW 225 0 min 0,000 mm 0,0 UV-I 0 W/m 3,0 C 3,7 C 12,9 km/h (3 Bft) 100,00 %
16.05.2016 03:57 6,2 C 80 % 1018,8 hPa 0,0 l/m 10,7 km/h (2 Bft) W-SW 239 0 min 0,000 mm 0,0 UV-I 0 W/m 3,0 C 2,9 C 14,5 km/h (3 Bft) 100,00 %
16.05.2016 03:58 6,2 C 80 % 1018,7 hPa 0,0 l/m 10,1 km/h (2 Bft) S-SW 209 0 min 0,000 mm 0,0 UV-I 0 W/m 3,0 C 3,3 C 12,9 km/h (3 Bft) 96,30 %
16.05.2016 03:59 6,2 C 80 % 1018,7 hPa 0,0 l/m 12,4 km/h (3 Bft) SW 229 0 min 0,000 mm 0,0 UV-I 0 W/m 3,0 C 1,9 C 17,7 km/h (3 Bft) 100,00 %
16.05.2016 04:00 6,2 C 80 % 1018,7 hPa 0,0 l/m 10,7 km/h (2 Bft) SW 236 0 min 0,026 mm 0,0 UV-I 0 W/m 3,0 C 2,9 C 14,5 km/h (3 Bft) 96,30 %
16.05.2016 04:01 6,2 C 80 % 1018,7 hPa 0,0 l/m 7,6 km/h (2 Bft) W-SW 242 0 min 0,000 mm 0,0 UV-I 0 W/m 3,0 C 5,2 C 11,3 km/h (2 Bft) 100,00 %
16.05.2016 04:02 6,2 C 80 % 1018,8 hPa 0,0 l/m 11,1 km/h (2 Bft) SW 232 0 min 0,000 mm 0,0 UV-I 0 W/m 3,0 C 2,7 C 17,7 km/h (3 Bft) 100,00 %
16.05.2016 04:03 6,2 C 80 % 1018,8 hPa 0,0 l/m 15,1 km/h (3 Bft) SW 225 0 min 0,000 mm 0,0 UV-I 0 W/m 3,0 C 0,5 C 19,3 km/h (3 Bft) 100,00 %
16.05.2016 04:04 6,2 C 80 % 1018,8 hPa 0,0 l/m 12,5 km/h (3 Bft) W-SW 248 0 min 0,000 mm 0,0 UV-I 0 W/m 3,0 C 1,8 C 16,1 km/h (3 Bft) 96,30 %
16.05.2016 04:05 6,3 C 80 % 1018,8 hPa 0,0 l/m 14,7 km/h (3 Bft) S-SW 213 0 min 0,000 mm 0,0 UV-I 0 W/m 3,1 C 0,8 C 17,7 km/h (3 Bft) 100,00 %
16.05.2016 04:06 6,3 C 80 % 1018,9 hPa 0,0 l/m 18,2 km/h (3 Bft) SW 236 0 min 0,000 mm 0,0 UV-I 0 W/m 3,1 C -0,8 C 24,1 km/h (4 Bft) 100,00 %
16.05.2016 04:07 6,3 C 80 % 1018,9 hPa 0,0 l/m 18,5 km/h (3 Bft) W-SW 257 0 min 0,000 mm 0,0 UV-I 0 W/m 3,1 C -0,9 C 25,7 km/h (4 Bft) 100,00 %
16.05.2016 04:08 6,3 C 80 % 1018,9 hPa 0,0 l/m 15,7 km/h (3 Bft) W-SW 250 0 min 0,000 mm 0,0 UV-I 0 W/m 3,1 C 0,3 C 22,5 km/h (4 Bft) 100,00 %
16.05.2016 04:09 6,3 C 80 % 1018,9 hPa 0,0 l/m 16,0 km/h (3 Bft) SW 228 0 min 0,000 mm 0,0 UV-I 0 W/m 3,1 C 0,2 C 20,9 km/h (4 Bft) 100,00 %
16.05.2016 04:10 6,3 C 80 % 1018,9 hPa 0,0 l/m 21,8 km/h (4 Bft) W-SW 244 0 min 0,000 mm 0,0 UV-I 0 W/m 3,1 C -2,1 C 33,8 km/h (5 Bft) 100,00 %
16.05.2016 04:11 6,3 C 79 % 1018,9 hPa 0,0 l/m 12,0 km/h (2 Bft) W-SW 245 0 min 0,000 mm 0,0 UV-I 0 W/m 2,9 C 2,3 C 17,7 km/h (3 Bft) 100,00 %
16.05.2016 04:12 6,3 C 80 % 1018,9 hPa 0,0 l/m 12,1 km/h (2 Bft) W-SW 243 0 min 0,000 mm 0,0 UV-I 0 W/m 3,1 C 2,2 C 16,1 km/h (3 Bft) 100,00 %
16.05.2016 04:13 6,3 C 80 % 1018,9 hPa 0,0 l/m 17,8 km/h (3 Bft) S-SW 209 0 min 0,000 mm 0,0 UV-I 0 W/m 3,1 C -0,6 C 25,7 km/h (4 Bft) 100,00 %
16.05.2016 04:14 6,3 C 80 % 1018,9 hPa 0,0 l/m 25,1 km/h (4 Bft) W-SW 240 0 min 0,000 mm 0,0 UV-I 0 W/m 3,1 C -3,2 C 32,2 km/h (5 Bft) 100,00 %
16.05.2016 04:15 6,3 C 80 % 1018,9 hPa 0,0 l/m 17,4 km/h (3 Bft) W 259 0 min 0,000 mm 0,0 UV-I 0 W/m 3,1 C -0,4 C 20,9 km/h (4 Bft) 97,62 %
16.05.2016 04:16 6,3 C 80 % 1018,9 hPa 0,0 l/m 17,3 km/h (3 Bft) W-SW 242 0 min 0,000 mm 0,0 UV-I 0 W/m 3,1 C -0,4 C 20,9 km/h (4 Bft) 100,00 %
16.05.2016 04:17 6,3 C 80 % 1018,9 hPa 0,0 l/m 10,8 km/h (2 Bft) W-SW 238 0 min 0,000 mm 0,0 UV-I 0 W/m 3,1 C 3,0 C 14,5 km/h (3 Bft) 100,00 %
16.05.2016 04:18 6,3 C 80 % 1018,8 hPa 0,0 l/m 14,3 km/h (3 Bft) W-NW 284 0 min 0,000 mm 0,0 UV-I 0 W/m 3,1 C 1,0 C 17,7 km/h (3 Bft) 100,00 %
16.05.2016 04:19 6,3 C 80 % 1018,9 hPa 0,0 l/m 11,6 km/h (2 Bft) W-SW 249 0 min 0,000 mm 0,0 UV-I 0 W/m 3,1 C 2,5 C 17,7 km/h (3 Bft) 100,00 %
16.05.2016 04:20 6,3 C 80 % 1018,9 hPa 0,0 l/m 14,6 km/h (3 Bft) W-SW 253 0 min 0,000 mm 0,0 UV-I 0 W/m 3,1 C 0,8 C 17,7 km/h (3 Bft) 100,00 %
16.05.2016 04:21 6,3 C 80 % 1018,9 hPa 0,0 l/m 11,9 km/h (2 Bft) W 259 0 min 0,000 mm 0,0 UV-I 0 W/m 3,1 C 2,3 C 16,1 km/h (3 Bft) 100,00 %
16.05.2016 04:22 6,3 C 80 % 1018,9 hPa 0,0 l/m 9,1 km/h (2 Bft) W-SW 241 0 min 0,000 mm 0,0 UV-I 0 W/m 3,1 C 4,1 C 14,5 km/h (3 Bft) 100,00 %
16.05.2016 04:23 6,2 C 81 % 1018,9 hPa 0,0 l/m 9,4 km/h (2 Bft) W 259 0 min 0,000 mm 0,0 UV-I 0 W/m 3,2 C 3,8 C 12,9 km/h (3 Bft) 100,00 %
16.05.2016 04:24 6,2 C 81 % 1018,9 hPa 0,0 l/m 6,8 km/h (2 Bft) W-SW 252 0 min 0,000 mm 0,0 UV-I 0 W/m 3,2 C 5,9 C 9,7 km/h (2 Bft) 100,00 %
16.05.2016 04:25 6,2 C 82 % 1018,9 hPa 0,0 l/m 5,8 km/h (2 Bft) W-SW 249 0 min 0,000 mm 0,0 UV-I 0 W/m 3,4 C 6,2 C 8,0 km/h (2 Bft) 100,00 %
16.05.2016 04:26 6,2 C 81 % 1018,8 hPa 0,0 l/m 7,1 km/h (2 Bft) SW 234 0 min 0,000 mm 0,0 UV-I 0 W/m 3,2 C 5,6 C 9,7 km/h (2 Bft) 100,00 %
16.05.2016 04:27 6,2 C 81 % 1018,9 hPa 0,0 l/m 7,0 km/h (2 Bft) W-SW 250 0 min 0,000 mm 0,0 UV-I 0 W/m 3,2 C 5,7 C 11,3 km/h (2 Bft) 100,00 %
16.05.2016 04:28 6,2 C 82 % 1018,9 hPa 0,0 l/m 6,7 km/h (2 Bft) W-SW 251 0 min 0,000 mm 0,0 UV-I 0 W/m 3,4 C 6,0 C 8,0 km/h (2 Bft) 99,68 %
16.05.2016 04:29 6,2 C 82 % 1018,9 hPa 0,0 l/m 7,6 km/h (2 Bft) W-SW 246 0 min 0,000 mm 0,0 UV-I 0 W/m 3,4 C 5,2 C 11,3 km/h (2 Bft) 97,56 %
16.05.2016 04:30 6,2 C 82 % 1018,9 hPa 0,0 l/m 6,4 km/h (2 Bft) W-SW 257 0 min 0,000 mm 0,0 UV-I 0 W/m 3,4 C 6,2 C 9,7 km/h (2 Bft) 96,55 %
16.05.2016 04:31 6,1 C 82 % 1018,9 hPa 0,0 l/m 5,6 km/h (1 Bft) W 265 0 min 0,000 mm 0,0 UV-I 0 W/m 3,3 C 6,1 C 6,4 km/h (2 Bft) 95,83 %
16.05.2016 04:32 6,1 C 83 % 1018,9 hPa 0,0 l/m 7,6 km/h (2 Bft) W-SW 252 0 min 0,000 mm 0,0 UV-I 0 W/m 3,4 C 5,1 C 11,3 km/h (2 Bft) 100,00 %
16.05.2016 04:33 6,1 C 82 % 1018,9 hPa 0,0 l/m 8,8 km/h (2 Bft) W 260 0 min 0,000 mm 0,0 UV-I 0 W/m 3,3 C 4,1 C 14,5 km/h (3 Bft) 93,33 %
16.05.2016 04:34 6,1 C 82 % 1018,9 hPa 0,0 l/m 8,5 km/h (2 Bft) W 265 0 min 0,000 mm 0,0 UV-I 0 W/m 3,3 C 4,4 C 11,3 km/h (2 Bft) 100,00 %
16.05.2016 04:35 6,1 C 82 % 1018,9 hPa 0,0 l/m 8,1 km/h (2 Bft) W 275 0 min 0,000 mm 0,0 UV-I 0 W/m 3,3 C 4,7 C 14,5 km/h (3 Bft) 94,12 %
16.05.2016 04:36 6,1 C 82 % 1018,9 hPa 0,0 l/m 6,6 km/h (2 Bft) W-SW 255 0 min 0,000 mm 0,0 UV-I 0 W/m 3,3 C 6,0 C 9,7 km/h (2 Bft) 100,00 %
16.05.2016 04:37 6,1 C 82 % 1018,9 hPa 0,0 l/m 7,5 km/h (2 Bft) SW 215 0 min 0,000 mm 0,0 UV-I 0 W/m 3,3 C 5,2 C 11,3 km/h (2 Bft) 96,15 %
16.05.2016 04:38 6,1 C 82 % 1018,9 hPa 0,0 l/m 8,4 km/h (2 Bft) W-NW 288 0 min 0,000 mm 0,0 UV-I 0 W/m 3,3 C 4,4 C 14,5 km/h (3 Bft) 95,83 %
16.05.2016 04:39 6,2 C 82 % 1018,9 hPa 0,0 l/m 10,2 km/h (2 Bft) SW 236 0 min 0,000 mm 0,0 UV-I 0 W/m 3,4 C 3,3 C 20,9 km/h (4 Bft) 100,00 %
16.05.2016 04:40 6,2 C 82 % 1019,0 hPa 0,0 l/m 10,8 km/h (2 Bft) SW 233 0 min 0,000 mm 0,0 UV-I 0 W/m 3,4 C 2,9 C 16,1 km/h (3 Bft) 95,83 %
16.05.2016 04:41 6,2 C 81 % 1018,9 hPa 0,0 l/m 9,5 km/h (2 Bft) W-SW 242 0 min 0,000 mm 0,0 UV-I 0 W/m 3,2 C 3,7 C 14,5 km/h (3 Bft) 100,00 %
16.05.2016 04:42 6,2 C 81 % 1018,9 hPa 0,0 l/m 12,4 km/h (3 Bft) W-SW 248 0 min 0,000 mm 0,0 UV-I 0 W/m 3,2 C 1,9 C 17,7 km/h (3 Bft) 96,30 %
16.05.2016 04:43 6,2 C 81 % 1018,9 hPa 0,0 l/m 13,7 km/h (3 Bft) W 263 0 min 0,000 mm 0,0 UV-I 0 W/m 3,2 C 1,2 C 17,7 km/h (3 Bft) 100,00 %
16.05.2016 04:44 6,2 C 80 % 1018,9 hPa 0,0 l/m 10,5 km/h (2 Bft) W 270 0 min 0,000 mm 0,0 UV-I 0 W/m 3,0 C 3,1 C 14,5 km/h (3 Bft) 96,30 %
16.05.2016 04:45 6,2 C 81 % 1018,9 hPa 0,0 l/m 8,4 km/h (2 Bft) W-SW 251 0 min 0,000 mm 0,0 UV-I 0 W/m 3,2 C 4,6 C 12,9 km/h (3 Bft) 100,00 %
16.05.2016 04:46 6,2 C 81 % 1018,9 hPa 0,0 l/m 8,6 km/h (2 Bft) W-SW 255 0 min 0,000 mm 0,0 UV-I 0 W/m 3,2 C 4,4 C 11,3 km/h (2 Bft) 83,33 %
16.05.2016 04:47 6,2 C 81 % 1018,9 hPa 0,0 l/m 7,3 km/h (2 Bft) SW 234 0 min 0,000 mm 0,0 UV-I 0 W/m 3,2 C 5,4 C 11,3 km/h (2 Bft) 100,00 %
16.05.2016 04:48 6,1 C 82 % 1018,9 hPa 0,0 l/m 5,5 km/h (1 Bft) SW 230 0 min 0,000 mm 0,0 UV-I 0 W/m 3,3 C 6,1 C 8,0 km/h (2 Bft) 87,50 %
16.05.2016 04:49 6,1 C 82 % 1018,9 hPa 0,0 l/m 5,2 km/h (1 Bft) W-SW 240 0 min 0,000 mm 0,0 UV-I 0 W/m 3,3 C 6,1 C 6,4 km/h (2 Bft) 96,15 %
16.05.2016 04:50 6,1 C 82 % 1018,9 hPa 0,0 l/m 4,4 km/h (1 Bft) SW 227 0 min 0,000 mm 0,0 UV-I 0 W/m 3,3 C 6,1 C 4,8 km/h (1 Bft) 100,00 %
16.05.2016 04:51 6,1 C 82 % 1018,9 hPa 0,0 l/m 3,9 km/h (1 Bft) SW 222 0 min 0,000 mm 0,0 UV-I 0 W/m 3,3 C 6,1 C 4,8 km/h (1 Bft) 95,65 %
16.05.2016 04:52 6,1 C 83 % 1018,8 hPa 0,0 l/m 5,1 km/h (1 Bft) SW 236 0 min 0,000 mm 0,0 UV-I 0 W/m 3,4 C 6,1 C 6,4 km/h (2 Bft) 100,00 %
16.05.2016 04:53 6,1 C 83 % 1018,8 hPa 0,0 l/m 5,3 km/h (1 Bft) SW 233 0 min 0,000 mm 0,0 UV-I 0 W/m 3,4 C 6,1 C 6,4 km/h (2 Bft) 96,30 %
16.05.2016 04:54 6,1 C 82 % 1018,8 hPa 0,0 l/m 5,1 km/h (1 Bft) SW 224 0 min 0,000 mm 0,0 UV-I 0 W/m 3,3 C 6,1 C 9,7 km/h (2 Bft) 100,00 %
16.05.2016 04:55 6,1 C 82 % 1018,8 hPa 0,0 l/m 6,7 km/h (2 Bft) SW 224 0 min 0,000 mm 0,0 UV-I 0 W/m 3,3 C 5,9 C 9,7 km/h (2 Bft) 95,83 %
16.05.2016 04:56 6,0 C 82 % 1018,8 hPa 0,0 l/m 10,1 km/h (2 Bft) SW 229 0 min 0,000 mm 0,0 UV-I 0 W/m 3,2 C 3,1 C 12,9 km/h (3 Bft) 96,88 %
16.05.2016 04:57 6,0 C 82 % 1018,8 hPa 0,0 l/m 8,1 km/h (2 Bft) SW 220 0 min 0,000 mm 0,0 UV-I 0 W/m 3,2 C 4,6 C 11,3 km/h (2 Bft) 100,00 %
16.05.2016 04:58 6,1 C 82 % 1018,8 hPa 0,0 l/m 7,3 km/h (2 Bft) SW 217 0 min 0,000 mm 0,0 UV-I 0 W/m 3,3 C 5,3 C 9,7 km/h (2 Bft) 96,15 %
16.05.2016 04:59 6,1 C 82 % 1018,8 hPa 0,0 l/m 6,3 km/h (2 Bft) SW 234 0 min 0,000 mm 0,0 UV-I 0 W/m 3,3 C 6,1 C 9,7 km/h (2 Bft) 100,00 %
16.05.2016 05:00 6,0 C 82 % 1018,8 hPa 0,0 l/m 6,4 km/h (2 Bft) W-SW 238 0 min 0,025 mm 0,0 UV-I 0 W/m 3,2 C 6,0 C 9,7 km/h (2 Bft) 100,00 %
16.05.2016 05:01 6,0 C 82 % 1018,8 hPa 0,0 l/m 6,0 km/h (2 Bft) W-SW 242 0 min 0,000 mm 0,0 UV-I 0 W/m 3,2 C 6,0 C 8,0 km/h (2 Bft) 100,00 %
16.05.2016 05:02 6,1 C 82 % 1018,8 hPa 0,0 l/m 7,5 km/h (2 Bft) W-SW 242 0 min 0,000 mm 0,0 UV-I 0 W/m 3,3 C 5,2 C 9,7 km/h (2 Bft) 96,15 %
16.05.2016 05:03 6,1 C 82 % 1018,8 hPa 0,0 l/m 5,8 km/h (2 Bft) SW 236 0 min 0,000 mm 0,0 UV-I 0 W/m 3,3 C 6,1 C 8,0 km/h (2 Bft) 100,00 %
16.05.2016 05:04 6,0 C 82 % 1018,8 hPa 0,0 l/m 4,7 km/h (1 Bft) SW 231 0 min 0,000 mm 0,0 UV-I 0 W/m 3,2 C 6,0 C 6,4 km/h (2 Bft) 100,00 %
16.05.2016 05:05 6,0 C 83 % 1018,8 hPa 0,0 l/m 5,0 km/h (1 Bft) S-SW 211 0 min 0,000 mm 0,0 UV-I 0 W/m 3,3 C 6,0 C 8,0 km/h (2 Bft) 100,00 %
16.05.2016 05:06 6,0 C 82 % 1018,7 hPa 0,0 l/m 6,1 km/h (2 Bft) S-SW 211 0 min 0,000 mm 0,0 UV-I 0 W/m 3,2 C 6,0 C 8,0 km/h (2 Bft) 96,15 %
16.05.2016 05:07 6,0 C 82 % 1018,7 hPa 0,0 l/m 5,6 km/h (1 Bft) W-SW 255 0 min 0,000 mm 0,0 UV-I 0 W/m 3,2 C 6,0 C 8,0 km/h (2 Bft) 91,67 %
16.05.2016 05:08 6,0 C 83 % 1018,8 hPa 0,0 l/m 5,1 km/h (1 Bft) W-SW 248 0 min 0,000 mm 0,0 UV-I 0 W/m 3,3 C 6,0 C 12,9 km/h (3 Bft) 100,00 %
16.05.2016 05:09 6,0 C 83 % 1018,8 hPa 0,0 l/m 7,2 km/h (2 Bft) SW 220 0 min 0,000 mm 0,0 UV-I 0 W/m 3,3 C 5,3 C 12,9 km/h (3 Bft) 100,00 %
16.05.2016 05:10 6,0 C 83 % 1018,7 hPa 0,0 l/m 6,7 km/h (2 Bft) SW 226 0 min 0,000 mm 0,0 UV-I 0 W/m 3,3 C 5,8 C 8,0 km/h (2 Bft) 100,00 %
16.05.2016 05:11 6,0 C 83 % 1018,7 hPa 0,0 l/m 5,3 km/h (1 Bft) SW 221 0 min 0,000 mm 0,0 UV-I 0 W/m 3,3 C 6,0 C 8,0 km/h (2 Bft) 93,33 %
16.05.2016 05:12 6,0 C 84 % 1018,8 hPa 0,0 l/m 6,2 km/h (2 Bft) SW 227 0 min 0,000 mm 0,0 UV-I 0 W/m 3,5 C 6,0 C 9,7 km/h (2 Bft) 100,00 %
16.05.2016 05:13 6,0 C 84 % 1018,8 hPa 0,0 l/m 6,0 km/h (2 Bft) SW 232 0 min 0,000 mm 0,0 UV-I 0 W/m 3,5 C 6,0 C 8,0 km/h (2 Bft) 100,00 %
16.05.2016 05:14 6,0 C 84 % 1018,8 hPa 0,0 l/m 5,1 km/h (1 Bft) W-SW 240 0 min 0,000 mm 0,0 UV-I 0 W/m 3,5 C 6,0 C 8,0 km/h (2 Bft) 100,00 %
16.05.2016 05:15 6,0 C 84 % 1018,8 hPa 0,0 l/m 6,9 km/h (2 Bft) SW 227 0 min 0,000 mm 0,0 UV-I 0 W/m 3,5 C 5,6 C 11,3 km/h (2 Bft) 100,00 %
16.05.2016 05:16 5,9 C 84 % 1018,8 hPa 0,0 l/m 5,2 km/h (1 Bft) SW 219 0 min 0,000 mm 0,0 UV-I 0 W/m 3,4 C 5,9 C 11,3 km/h (2 Bft) 100,00 %
16.05.2016 05:17 5,9 C 84 % 1018,8 hPa 0,0 l/m 6,4 km/h (2 Bft) W-SW 245 0 min 0,000 mm 0,0 UV-I 0 W/m 3,4 C 5,9 C 9,7 km/h (2 Bft) 100,00 %
16.05.2016 05:18 5,9 C 84 % 1018,7 hPa 0,0 l/m 7,4 km/h (2 Bft) S 184 0 min 0,000 mm 0,0 UV-I 0 W/m 3,4 C 5,0 C 9,7 km/h (2 Bft) 93,33 %
16.05.2016 05:19 5,9 C 84 % 1018,8 hPa 0,0 l/m 7,8 km/h (2 Bft) W-SW 255 0 min 0,000 mm 0,0 UV-I 0 W/m 3,4 C 4,7 C 11,3 km/h (2 Bft) 97,56 %
16.05.2016 05:20 5,9 C 84 % 1018,7 hPa 0,0 l/m 7,4 km/h (2 Bft) SW 232 0 min 0,000 mm 0,0 UV-I 0 W/m 3,4 C 5,0 C 12,9 km/h (3 Bft) 100,00 %
16.05.2016 05:21 5,9 C 84 % 1018,7 hPa 0,0 l/m 7,9 km/h (2 Bft) S-SW 206 0 min 0,000 mm 0,0 UV-I 0 W/m 3,4 C 4,6 C 11,3 km/h (2 Bft) 96,55 %
16.05.2016 05:22 5,9 C 84 % 1018,7 hPa 0,0 l/m 7,6 km/h (2 Bft) S-SW 213 0 min 0,000 mm 0,0 UV-I 0 W/m 3,4 C 4,9 C 14,5 km/h (3 Bft) 100,00 %
16.05.2016 05:23 5,9 C 84 % 1018,7 hPa 0,0 l/m 10,1 km/h (2 Bft) SW 224 0 min 0,000 mm 0,0 UV-I 0 W/m 3,4 C 3,0 C 16,1 km/h (3 Bft) 100,00 %
16.05.2016 05:24 5,9 C 84 % 1018,7 hPa 0,0 l/m 8,6 km/h (2 Bft) SW 223 0 min 0,000 mm 0,0 UV-I 0 W/m 3,4 C 4,1 C 14,5 km/h (3 Bft) 100,00 %
16.05.2016 05:25 5,9 C 84 % 1018,7 hPa 0,0 l/m 5,7 km/h (1 Bft) SW 235 0 min 0,000 mm 0,0 UV-I 0 W/m 3,4 C 5,9 C 9,7 km/h (2 Bft) 95,65 %
16.05.2016 05:26 5,9 C 84 % 1018,7 hPa 0,0 l/m 7,6 km/h (2 Bft) SW 224 0 min 0,000 mm 0,0 UV-I 0 W/m 3,4 C 4,9 C 11,3 km/h (2 Bft) 100,00 %
16.05.2016 05:27 5,9 C 84 % 1018,8 hPa 0,0 l/m 5,7 km/h (1 Bft) S-SW 202 0 min 0,000 mm 0,0 UV-I 0 W/m 3,4 C 5,9 C 8,0 km/h (2 Bft) 100,00 %
16.05.2016 05:28 5,9 C 84 % 1018,7 hPa 0,0 l/m 9,1 km/h (2 Bft) SW 230 0 min 0,000 mm 0,0 UV-I 0 W/m 3,4 C 3,7 C 12,9 km/h (3 Bft) 95,83 %
16.05.2016 05:29 5,9 C 84 % 1018,7 hPa 0,0 l/m 9,9 km/h (2 Bft) W-SW 240 0 min 0,000 mm 0,0 UV-I 0 W/m 3,4 C 3,1 C 19,3 km/h (3 Bft) 100,00 %
16.05.2016 05:30 5,9 C 84 % 1018,7 hPa 0,0 l/m 15,2 km/h (3 Bft) W-SW 250 0 min 0,000 mm 0,0 UV-I 0 W/m 3,4 C 0,1 C 19,3 km/h (3 Bft) 100,00 %
16.05.2016 05:31 5,9 C 84 % 1018,7 hPa 0,0 l/m 13,0 km/h (3 Bft) W-SW 254 0 min 0,000 mm 0,0 UV-I 0 W/m 3,4 C 1,2 C 24,1 km/h (4 Bft) 100,00 %
16.05.2016 05:32 5,9 C 84 % 1018,7 hPa 0,0 l/m 14,2 km/h (3 Bft) W-SW 245 0 min 0,000 mm 0,0 UV-I 0 W/m 3,4 C 0,6 C 20,9 km/h (4 Bft) 100,00 %
16.05.2016 05:33 5,9 C 83 % 1018,7 hPa 0,0 l/m 11,0 km/h (2 Bft) W-SW 254 0 min 0,000 mm 0,0 UV-I 0 W/m 3,2 C 2,4 C 14,5 km/h (3 Bft) 100,00 %
16.05.2016 05:34 5,9 C 83 % 1018,7 hPa 0,0 l/m 12,7 km/h (3 Bft) SW 230 0 min 0,000 mm 0,0 UV-I 0 W/m 3,2 C 1,4 C 16,1 km/h (3 Bft) 100,00 %
16.05.2016 05:35 6,0 C 83 % 1018,7 hPa 0,0 l/m 11,7 km/h (2 Bft) SW 219 0 min 0,000 mm 0,0 UV-I 0 W/m 3,3 C 2,1 C 19,3 km/h (3 Bft) 100,00 %
16.05.2016 05:36 6,0 C 83 % 1018,7 hPa 0,0 l/m 12,0 km/h (2 Bft) SW 223 0 min 0,000 mm 0,0 UV-I 0 W/m 3,3 C 1,9 C 17,7 km/h (3 Bft) 100,00 %
16.05.2016 05:37 6,0 C 83 % 1018,7 hPa 0,0 l/m 9,7 km/h (2 Bft) S-SW 209 0 min 0,000 mm 0,0 UV-I 0 W/m 3,3 C 3,4 C 12,9 km/h (3 Bft) 100,00 %
16.05.2016 05:38 6,0 C 83 % 1018,7 hPa 0,0 l/m 12,9 km/h (3 Bft) SW 231 0 min 0,000 mm 0,0 UV-I 1 W/m 3,3 C 1,4 C 20,9 km/h (4 Bft) 100,00 %
16.05.2016 05:39 6,0 C 83 % 1018,7 hPa 0,0 l/m 14,0 km/h (3 Bft) SW 223 0 min 0,000 mm 0,0 UV-I 5 W/m 3,3 C 0,8 C 19,3 km/h (3 Bft) 100,00 %
16.05.2016 05:40 6,0 C 83 % 1018,7 hPa 0,0 l/m 13,1 km/h (3 Bft) SW 224 0 min 0,000 mm 0,0 UV-I 5 W/m 3,3 C 1,3 C 19,3 km/h (3 Bft) 100,00 %
16.05.2016 05:41 6,0 C 82 % 1018,7 hPa 0,0 l/m 14,3 km/h (3 Bft) W-SW 240 0 min 0,000 mm 0,0 UV-I 5 W/m 3,2 C 0,6 C 24,1 km/h (4 Bft) 100,00 %
16.05.2016 05:42 6,0 C 82 % 1018,6 hPa 0,0 l/m 13,9 km/h (3 Bft) SW 223 0 min 0,000 mm 0,0 UV-I 5 W/m 3,2 C 0,8 C 17,7 km/h (3 Bft) 96,15 %
16.05.2016 05:43 6,0 C 82 % 1018,7 hPa 0,0 l/m 10,1 km/h (2 Bft) SW 220 0 min 0,000 mm 0,0 UV-I 7 W/m 3,2 C 3,1 C 14,5 km/h (3 Bft) 100,00 %
16.05.2016 05:44 6,0 C 82 % 1018,7 hPa 0,0 l/m 13,3 km/h (3 Bft) SW 225 0 min 0,000 mm 0,0 UV-I 7 W/m 3,2 C 1,2 C 17,7 km/h (3 Bft) 100,00 %
16.05.2016 05:45 6,0 C 83 % 1018,7 hPa 0,0 l/m 12,5 km/h (3 Bft) SW 234 0 min 0,000 mm 0,0 UV-I 7 W/m 3,3 C 1,6 C 19,3 km/h (3 Bft) 100,00 %
16.05.2016 05:46 6,0 C 83 % 1018,7 hPa 0,0 l/m 9,9 km/h (2 Bft) S-SW 198 0 min 0,000 mm 0,0 UV-I 7 W/m 3,3 C 3,2 C 14,5 km/h (3 Bft) 100,00 %
16.05.2016 05:47 6,0 C 82 % 1018,6 hPa 0,0 l/m 11,5 km/h (2 Bft) SW 214 0 min 0,000 mm 0,0 UV-I 8 W/m 3,2 C 2,2 C 16,1 km/h (3 Bft) 100,00 %
16.05.2016 05:48 6,0 C 83 % 1018,7 hPa 0,0 l/m 11,9 km/h (2 Bft) SW 225 0 min 0,000 mm 0,0 UV-I 9 W/m 3,3 C 2,0 C 17,7 km/h (3 Bft) 91,67 %
16.05.2016 05:49 6,0 C 83 % 1018,7 hPa 0,0 l/m 10,2 km/h (2 Bft) W-SW 255 0 min 0,000 mm 0,0 UV-I 9 W/m 3,3 C 3,0 C 14,5 km/h (3 Bft) 100,00 %
16.05.2016 05:50 6,0 C 82 % 1018,6 hPa 0,0 l/m 9,4 km/h (2 Bft) SW 221 0 min 0,000 mm 0,0 UV-I 11 W/m 3,2 C 3,6 C 11,3 km/h (2 Bft) 100,00 %
16.05.2016 05:51 6,0 C 83 % 1018,6 hPa 0,0 l/m 11,3 km/h (2 Bft) W-SW 239 0 min 0,000 mm 0,0 UV-I 11 W/m 3,3 C 2,3 C 17,7 km/h (3 Bft) 100,00 %
16.05.2016 05:52 5,9 C 83 % 1018,7 hPa 0,0 l/m 15,3 km/h (3 Bft) W-SW 247 0 min 0,000 mm 0,0 UV-I 13 W/m 3,2 C 0,0 C 22,5 km/h (4 Bft) 100,00 %
16.05.2016 05:53 5,9 C 82 % 1018,6 hPa 0,0 l/m 10,5 km/h (2 Bft) W-SW 243 0 min 0,000 mm 0,0 UV-I 14 W/m 3,1 C 2,7 C 17,7 km/h (3 Bft) 95,65 %
16.05.2016 05:54 6,0 C 83 % 1018,7 hPa 0,0 l/m 9,3 km/h (2 Bft) W-SW 256 0 min 0,000 mm 0,0 UV-I 16 W/m 3,3 C 3,7 C 12,9 km/h (3 Bft) 100,00 %
16.05.2016 05:55 6,0 C 83 % 1018,7 hPa 0,0 l/m 12,3 km/h (3 Bft) SW 221 0 min 0,000 mm 0,0 UV-I 16 W/m 3,3 C 1,7 C 17,7 km/h (3 Bft) 100,00 %
16.05.2016 05:56 5,9 C 83 % 1018,7 hPa 0,0 l/m 9,9 km/h (2 Bft) SW 235 0 min 0,000 mm 0,0 UV-I 16 W/m 3,2 C 3,1 C 14,5 km/h (3 Bft) 100,00 %
16.05.2016 05:57 5,9 C 83 % 1018,8 hPa 0,0 l/m 13,3 km/h (3 Bft) SW 215 0 min 0,000 mm 0,0 UV-I 16 W/m 3,2 C 1,1 C 17,7 km/h (3 Bft) 96,15 %
16.05.2016 05:58 5,9 C 83 % 1018,8 hPa 0,0 l/m 11,2 km/h (2 Bft) W-SW 248 0 min 0,000 mm 0,0 UV-I 16 W/m 3,2 C 2,3 C 14,5 km/h (3 Bft) 100,00 %
16.05.2016 05:59 5,9 C 83 % 1018,7 hPa 0,0 l/m 11,9 km/h (2 Bft) W-SW 241 0 min 0,000 mm 0,0 UV-I 16 W/m 3,2 C 1,9 C 16,1 km/h (3 Bft) 96,15 %
16.05.2016 06:00 5,9 C 83 % 1018,7 hPa 0,0 l/m 13,8 km/h (3 Bft) W-SW 243 0 min 0,025 mm 0,0 UV-I 16 W/m 3,2 C 0,8 C 17,7 km/h (3 Bft) 100,00 %
16.05.2016 06:02 6,0 C 83 % 1018,7 hPa 0,0 l/m 12,5 km/h (3 Bft) W-SW 242 0 min 0,000 mm 0,0 UV-I 15 W/m 3,3 C 1,6 C 16,1 km/h (3 Bft) 100,00 %
16.05.2016 06:03 6,0 C 83 % 1018,8 hPa 0,0 l/m 14,1 km/h (3 Bft) SW 226 0 min 0,000 mm 0,0 UV-I 15 W/m 3,3 C 0,7 C 22,5 km/h (4 Bft) 100,00 %
16.05.2016 06:04 6,0 C 83 % 1018,8 hPa 0,0 l/m 14,6 km/h (3 Bft) S-SW 209 0 min 0,000 mm 0,0 UV-I 17 W/m 3,3 C 0,5 C 19,3 km/h (3 Bft) 100,00 %
16.05.2016 06:05 6,0 C 83 % 1018,7 hPa 0,0 l/m 13,2 km/h (3 Bft) W-SW 239 0 min 0,000 mm 0,0 UV-I 18 W/m 3,3 C 1,2 C 17,7 km/h (3 Bft) 100,00 %
16.05.2016 06:06 6,0 C 83 % 1018,8 hPa 0,0 l/m 11,9 km/h (2 Bft) SW 234 0 min 0,000 mm 0,0 UV-I 18 W/m 3,3 C 2,0 C 17,7 km/h (3 Bft) 100,00 %
16.05.2016 06:07 6,1 C 83 % 1018,8 hPa 0,0 l/m 12,0 km/h (2 Bft) SW 221 0 min 0,000 mm 0,0 UV-I 18 W/m 3,4 C 2,0 C 16,1 km/h (3 Bft) 100,00 %
16.05.2016 06:08 6,1 C 83 % 1018,8 hPa 0,0 l/m 13,4 km/h (3 Bft) W-SW 240 0 min 0,000 mm 0,0 UV-I 18 W/m 3,4 C 1,2 C 19,3 km/h (3 Bft) 100,00 %
16.05.2016 06:09 6,1 C 83 % 1018,8 hPa 0,0 l/m 8,3 km/h (2 Bft) SW 229 0 min 0,000 mm 0,0 UV-I 19 W/m 3,4 C 4,5 C 11,3 km/h (2 Bft) 100,00 %
16.05.2016 06:10 6,1 C 83 % 1018,8 hPa 0,0 l/m 11,3 km/h (2 Bft) SW 227 0 min 0,000 mm 0,0 UV-I 19 W/m 3,4 C 2,4 C 16,1 km/h (3 Bft) 100,00 %
16.05.2016 06:11 6,1 C 83 % 1018,8 hPa 0,0 l/m 11,6 km/h (2 Bft) SW 228 0 min 0,000 mm 0,0 UV-I 20 W/m 3,4 C 2,3 C 14,5 km/h (3 Bft) 95,65 %
16.05.2016 06:12 6,1 C 83 % 1018,8 hPa 0,0 l/m 9,0 km/h (2 Bft) W-SW 246 0 min 0,000 mm 0,0 UV-I 23 W/m 3,4 C 4,0 C 12,9 km/h (3 Bft) 100,00 %
16.05.2016 06:13 6,1 C 83 % 1018,8 hPa 0,0 l/m 10,1 km/h (2 Bft) S-SW 202 0 min 0,000 mm 0,0 UV-I 23 W/m 3,4 C 3,2 C 16,1 km/h (3 Bft) 100,00 %
16.05.2016 06:14 6,1 C 83 % 1018,8 hPa 0,0 l/m 10,6 km/h (2 Bft) SW 217 0 min 0,000 mm 0,0 UV-I 23 W/m 3,4 C 2,9 C 16,1 km/h (3 Bft) 95,65 %
16.05.2016 06:15 6,1 C 83 % 1018,8 hPa 0,0 l/m 15,6 km/h (3 Bft) SW 227 0 min 0,000 mm 0,0 UV-I 25 W/m 3,4 C 0,1 C 20,9 km/h (4 Bft) 100,00 %
16.05.2016 06:16 6,1 C 83 % 1018,8 hPa 0,0 l/m 13,0 km/h (3 Bft) W-SW 248 0 min 0,000 mm 0,0 UV-I 25 W/m 3,4 C 1,5 C 19,3 km/h (3 Bft) 100,00 %
16.05.2016 06:17 6,1 C 83 % 1018,8 hPa 0,0 l/m 11,7 km/h (2 Bft) SW 223 0 min 0,000 mm 0,0 UV-I 24 W/m 3,4 C 2,2 C 17,7 km/h (3 Bft) 100,00 %
16.05.2016 06:18 6,1 C 83 % 1018,8 hPa 0,0 l/m 11,8 km/h (2 Bft) W-SW 239 0 min 0,000 mm 0,0 UV-I 21 W/m 3,4 C 2,1 C 14,5 km/h (3 Bft) 100,00 %
16.05.2016 06:19 6,2 C 83 % 1018,8 hPa 0,0 l/m 20,1 km/h (4 Bft) SW 236 0 min 0,000 mm 0,0 UV-I 19 W/m 3,5 C -1,7 C 29,0 km/h (5 Bft) 100,00 %
16.05.2016 06:20 6,2 C 82 % 1018,9 hPa 0,0 l/m 15,8 km/h (3 Bft) W-SW 240 0 min 0,000 mm 0,0 UV-I 19 W/m 3,4 C 0,1 C 20,9 km/h (4 Bft) 100,00 %
16.05.2016 06:21 6,2 C 82 % 1018,8 hPa 0,0 l/m 11,6 km/h (2 Bft) S-SW 212 0 min 0,000 mm 0,0 UV-I 19 W/m 3,4 C 2,4 C 14,5 km/h (3 Bft) 100,00 %
16.05.2016 06:22 6,2 C 83 % 1018,9 hPa 0,0 l/m 12,7 km/h (3 Bft) W-SW 242 0 min 0,000 mm 0,0 UV-I 19 W/m 3,5 C 1,7 C 19,3 km/h (3 Bft) 100,00 %
16.05.2016 06:23 6,2 C 82 % 1018,9 hPa 0,0 l/m 13,7 km/h (3 Bft) SW 220 0 min 0,000 mm 0,0 UV-I 19 W/m 3,4 C 1,2 C 20,9 km/h (4 Bft) 100,00 %
16.05.2016 06:24 6,2 C 82 % 1018,9 hPa 0,0 l/m 13,6 km/h (3 Bft) W-SW 245 0 min 0,000 mm 0,0 UV-I 19 W/m 3,4 C 1,2 C 20,9 km/h (4 Bft) 100,00 %
16.05.2016 06:25 6,2 C 82 % 1018,9 hPa 0,0 l/m 14,2 km/h (3 Bft) W-SW 242 0 min 0,000 mm 0,0 UV-I 19 W/m 3,4 C 0,9 C 19,3 km/h (3 Bft) 100,00 %
16.05.2016 06:26 6,3 C 82 % 1018,9 hPa 0,0 l/m 17,4 km/h (3 Bft) W-SW 238 0 min 0,000 mm 0,0 UV-I 17 W/m 3,5 C -0,4 C 29,0 km/h (5 Bft) 100,00 %
16.05.2016 06:27 6,2 C 82 % 1018,9 hPa 0,0 l/m 14,8 km/h (3 Bft) SW 230 0 min 0,000 mm 0,0 UV-I 15 W/m 3,4 C 0,6 C 20,9 km/h (4 Bft) 100,00 %
16.05.2016 06:28 6,3 C 82 % 1019,0 hPa 0,0 l/m 12,8 km/h (3 Bft) W-SW 242 0 min 0,000 mm 0,0 UV-I 14 W/m 3,5 C 1,8 C 19,3 km/h (3 Bft) 100,00 %
16.05.2016 06:29 6,3 C 82 % 1019,0 hPa 0,0 l/m 16,4 km/h (3 Bft) SW 232 0 min 0,000 mm 0,0 UV-I 16 W/m 3,5 C -0,0 C 22,5 km/h (4 Bft) 100,00 %
16.05.2016 06:30 6,3 C 82 % 1019,0 hPa 0,0 l/m 13,0 km/h (3 Bft) SW 215 0 min 0,000 mm 0,0 UV-I 17 W/m 3,5 C 1,7 C 17,7 km/h (3 Bft) 100,00 %
16.05.2016 06:31 6,3 C 82 % 1019,0 hPa 0,0 l/m 16,3 km/h (3 Bft) S-SW 206 0 min 0,000 mm 0,0 UV-I 9 W/m 3,5 C 0,0 C 24,1 km/h (4 Bft) 95,65 %
16.05.2016 06:32 6,3 C 82 % 1018,9 hPa 0,0 l/m 15,5 km/h (3 Bft) SW 223 0 min 0,000 mm 0,0 UV-I 15 W/m 3,5 C 0,4 C 24,1 km/h (4 Bft) 93,33 %
16.05.2016 06:33 6,3 C 82 % 1018,9 hPa 0,0 l/m 18,2 km/h (3 Bft) S 174 0 min 0,000 mm 0,0 UV-I 21 W/m 3,5 C -0,8 C 29,0 km/h (5 Bft) 96,15 %
16.05.2016 06:34 6,3 C 82 % 1018,9 hPa 0,0 l/m 18,0 km/h (3 Bft) W-SW 244 0 min 0,000 mm 0,0 UV-I 21 W/m 3,5 C -0,7 C 22,5 km/h (4 Bft) 100,00 %
16.05.2016 06:35 6,3 C 82 % 1019,0 hPa 0,0 l/m 14,5 km/h (3 Bft) W-SW 242 0 min 0,000 mm 0,0 UV-I 23 W/m 3,5 C 0,9 C 24,1 km/h (4 Bft) 96,15 %
16.05.2016 06:36 6,3 C 83 % 1019,0 hPa 0,0 l/m 18,3 km/h (3 Bft) W-SW 239 0 min 0,000 mm 0,0 UV-I 25 W/m 3,6 C -0,8 C 25,7 km/h (4 Bft) 100,00 %
16.05.2016 06:37 6,2 C 83 % 1018,9 hPa 0,0 l/m 13,9 km/h (3 Bft) SW 226 0 min 0,000 mm 0,0 UV-I 27 W/m 3,5 C 1,1 C 16,1 km/h (3 Bft) 95,65 %
16.05.2016 06:38 6,2 C 83 % 1019,0 hPa 0,0 l/m 18,1 km/h (3 Bft) SW 234 0 min 0,000 mm 0,0 UV-I 32 W/m 3,5 C -0,9 C 29,0 km/h (5 Bft) 100,00 %
16.05.2016 06:39 6,2 C 83 % 1019,0 hPa 0,0 l/m 19,7 km/h (3 Bft) SW 217 0 min 0,000 mm 0,0 UV-I 38 W/m 3,5 C -1,5 C 25,7 km/h (4 Bft) 95,65 %
16.05.2016 06:40 6,2 C 84 % 1019,0 hPa 0,0 l/m 17,9 km/h (3 Bft) W-SW 248 0 min 0,000 mm 0,0 UV-I 43 W/m 3,7 C -0,8 C 24,1 km/h (4 Bft) 95,83 %
16.05.2016 06:41 6,2 C 84 % 1019,0 hPa 0,0 l/m 17,5 km/h (3 Bft) SW 228 0 min 0,000 mm 0,0 UV-I 46 W/m 3,7 C -0,6 C 25,7 km/h (4 Bft) 100,00 %
16.05.2016 06:42 6,2 C 83 % 1018,9 hPa 0,0 l/m 10,7 km/h (2 Bft) SW 227 0 min 0,000 mm 0,0 UV-I 49 W/m 3,5 C 2,9 C 14,5 km/h (3 Bft) 96,55 %
16.05.2016 06:43 6,1 C 84 % 1019,0 hPa 0,0 l/m 11,6 km/h (2 Bft) SW 217 0 min 0,000 mm 0,0 UV-I 47 W/m 3,6 C 2,3 C 14,5 km/h (3 Bft) 100,00 %
16.05.2016 06:44 6,1 C 84 % 1019,0 hPa 0,0 l/m 15,0 km/h (3 Bft) SW 224 0 min 0,000 mm 0,0 UV-I 47 W/m 3,6 C 0,4 C 19,3 km/h (3 Bft) 93,33 %
16.05.2016 06:45 6,1 C 84 % 1019,0 hPa 0,0 l/m 11,1 km/h (2 Bft) W-SW 252 0 min 0,000 mm 0,0 UV-I 46 W/m 3,6 C 2,6 C 14,5 km/h (3 Bft) 100,00 %
16.05.2016 06:46 6,1 C 84 % 1019,0 hPa 0,0 l/m 13,9 km/h (3 Bft) SW 234 0 min 0,000 mm 0,0 UV-I 45 W/m 3,6 C 1,0 C 19,3 km/h (3 Bft) 96,30 %
16.05.2016 06:47 6,1 C 84 % 1019,0 hPa 0,0 l/m 16,2 km/h (3 Bft) S-SW 209 0 min 0,000 mm 0,0 UV-I 42 W/m 3,6 C -0,2 C 20,9 km/h (4 Bft) 100,00 %
16.05.2016 06:48 6,0 C 84 % 1019,0 hPa 0,0 l/m 12,3 km/h (3 Bft) W-SW 245 0 min 0,000 mm 0,0 UV-I 39 W/m 3,5 C 1,7 C 17,7 km/h (3 Bft) 96,55 %
16.05.2016 06:49 6,0 C 84 % 1019,0 hPa 0,0 l/m 15,4 km/h (3 Bft) S-SW 207 0 min 0,000 mm 0,0 UV-I 35 W/m 3,5 C 0,1 C 22,5 km/h (4 Bft) 96,55 %
16.05.2016 06:50 6,0 C 84 % 1019,1 hPa 0,0 l/m 11,7 km/h (2 Bft) SW 231 0 min 0,000 mm 0,0 UV-I 33 W/m 3,5 C 2,1 C 16,1 km/h (3 Bft) 100,00 %
16.05.2016 06:51 6,0 C 85 % 1019,1 hPa 0,2 l/m 11,7 km/h (2 Bft) SW 217 0 min 0,000 mm 0,0 UV-I 26 W/m 3,7 C 2,1 C 14,5 km/h (3 Bft) 96,30 %
16.05.2016 06:52 6,0 C 85 % 1019,1 hPa 0,0 l/m 13,0 km/h (3 Bft) W 262 0 min 0,000 mm 0,0 UV-I 24 W/m 3,7 C 1,3 C 17,7 km/h (3 Bft) 100,00 %
16.05.2016 06:53 6,0 C 85 % 1019,1 hPa 0,0 l/m 11,7 km/h (2 Bft) W-SW 240 0 min 0,000 mm 0,0 UV-I 21 W/m 3,7 C 2,1 C 16,1 km/h (3 Bft) 100,00 %
16.05.2016 06:54 6,0 C 85 % 1019,1 hPa 0,0 l/m 10,0 km/h (2 Bft) W 259 0 min 0,000 mm 0,0 UV-I 21 W/m 3,7 C 3,2 C 16,1 km/h (3 Bft) 97,56 %
16.05.2016 06:55 5,9 C 85 % 1019,1 hPa 0,0 l/m 9,5 km/h (2 Bft) W 259 0 min 0,000 mm 0,0 UV-I 19 W/m 3,6 C 3,4 C 14,5 km/h (3 Bft) 96,30 %
16.05.2016 06:56 5,9 C 85 % 1019,2 hPa 0,0 l/m 8,3 km/h (2 Bft) W 267 0 min 0,000 mm 0,0 UV-I 18 W/m 3,6 C 4,3 C 12,9 km/h (3 Bft) 98,63 %
16.05.2016 06:57 5,9 C 85 % 1019,2 hPa 0,0 l/m 12,4 km/h (3 Bft) W-SW 252 0 min 0,000 mm 0,0 UV-I 18 W/m 3,6 C 1,6 C 17,7 km/h (3 Bft) 97,56 %
16.05.2016 06:58 5,9 C 86 % 1019,2 hPa 0,0 l/m 8,8 km/h (2 Bft) W 259 0 min 0,000 mm 0,0 UV-I 19 W/m 3,7 C 3,9 C 12,9 km/h (3 Bft) 91,30 %
16.05.2016 06:59 5,9 C 86 % 1019,1 hPa 0,0 l/m 9,9 km/h (2 Bft) W-SW 247 0 min 0,000 mm 0,0 UV-I 19 W/m 3,7 C 3,1 C 14,5 km/h (3 Bft) 100,00 %
16.05.2016 07:00 5,9 C 86 % 1019,1 hPa 0,0 l/m 8,3 km/h (2 Bft) W-SW 241 0 min 0,026 mm 0,0 UV-I 18 W/m 3,7 C 4,3 C 16,1 km/h (3 Bft) 95,65 %
16.05.2016 07:01 5,9 C 86 % 1019,2 hPa 0,0 l/m 10,8 km/h (2 Bft) W-SW 251 0 min 0,000 mm 0,0 UV-I 18 W/m 3,7 C 2,5 C 14,5 km/h (3 Bft) 100,00 %
16.05.2016 07:02 5,8 C 86 % 1019,2 hPa 0,0 l/m 8,5 km/h (2 Bft) W-SW 255 0 min 0,000 mm 0,0 UV-I 21 W/m 3,6 C 4,0 C 14,5 km/h (3 Bft) 97,14 %
16.05.2016 07:03 5,8 C 86 % 1019,2 hPa 0,0 l/m 7,4 km/h (2 Bft) SW 236 0 min 0,000 mm 0,0 UV-I 24 W/m 3,6 C 4,9 C 9,7 km/h (2 Bft) 93,33 %
16.05.2016 07:04 5,8 C 87 % 1019,2 hPa 0,0 l/m 6,2 km/h (2 Bft) W 276 0 min 0,000 mm 0,0 UV-I 26 W/m 3,8 C 5,8 C 9,7 km/h (2 Bft) 92,31 %
16.05.2016 07:05 5,8 C 87 % 1019,1 hPa 0,2 l/m 7,5 km/h (2 Bft) W-SW 238 0 min 0,000 mm 0,0 UV-I 31 W/m 3,8 C 4,9 C 12,9 km/h (3 Bft) 100,00 %
16.05.2016 07:06 5,8 C 87 % 1019,1 hPa 0,0 l/m 6,4 km/h (2 Bft) W-SW 244 0 min 0,000 mm 0,0 UV-I 36 W/m 3,8 C 5,8 C 9,7 km/h (2 Bft) 95,65 %
16.05.2016 07:07 5,8 C 87 % 1019,1 hPa 0,0 l/m 11,7 km/h (2 Bft) W 263 0 min 0,000 mm 0,0 UV-I 40 W/m 3,8 C 1,9 C 14,5 km/h (3 Bft) 96,30 %
16.05.2016 07:08 5,8 C 87 % 1019,1 hPa 0,0 l/m 8,0 km/h (2 Bft) W-SW 242 0 min 0,000 mm 0,0 UV-I 47 W/m 3,8 C 4,4 C 11,3 km/h (2 Bft) 98,49 %
16.05.2016 07:09 5,7 C 87 % 1019,1 hPa 0,0 l/m 5,8 km/h (2 Bft) W 265 0 min 0,000 mm 0,0 UV-I 59 W/m 3,7 C 5,7 C 9,7 km/h (2 Bft) 97,56 %
16.05.2016 07:10 5,7 C 87 % 1019,1 hPa 0,0 l/m 4,3 km/h (1 Bft) W-SW 256 0 min 0,000 mm 0,0 UV-I 70 W/m 3,7 C 5,7 C 4,8 km/h (1 Bft) 95,83 %
16.05.2016 07:11 5,7 C 88 % 1019,1 hPa 0,0 l/m 4,2 km/h (1 Bft) W-SW 241 0 min 0,000 mm 0,0 UV-I 79 W/m 3,9 C 5,7 C 6,4 km/h (2 Bft) 100,00 %
16.05.2016 07:12 5,7 C 88 % 1019,1 hPa 0,0 l/m 6,1 km/h (2 Bft) W 259 0 min 0,000 mm 0,0 UV-I 85 W/m 3,9 C 5,7 C 8,0 km/h (2 Bft) 100,00 %
16.05.2016 07:13 5,7 C 89 % 1019,1 hPa 0,0 l/m 5,3 km/h (1 Bft) W-SW 248 0 min 0,000 mm 0,0 UV-I 92 W/m 4,0 C 5,7 C 6,4 km/h (2 Bft) 100,00 %
16.05.2016 07:14 5,7 C 89 % 1019,1 hPa 0,0 l/m 4,4 km/h (1 Bft) S-SW 203 0 min 0,000 mm 0,0 UV-I 98 W/m 4,0 C 5,7 C 6,4 km/h (2 Bft) 100,00 %
16.05.2016 07:15 5,7 C 89 % 1019,0 hPa 0,0 l/m 5,4 km/h (1 Bft) W-SW 255 0 min 0,000 mm 0,0 UV-I 103 W/m 4,0 C 5,7 C 8,0 km/h (2 Bft) 100,00 %
16.05.2016 07:16 5,8 C 89 % 1019,0 hPa 0,0 l/m 5,2 km/h (1 Bft) SW 232 0 min 0,000 mm 0,0 UV-I 106 W/m 4,1 C 5,8 C 6,4 km/h (2 Bft) 100,00 %
16.05.2016 07:17 5,8 C 89 % 1019,1 hPa 0,0 l/m 6,7 km/h (2 Bft) SW 226 0 min 0,000 mm 0,0 UV-I 113 W/m 4,1 C 5,6 C 9,7 km/h (2 Bft) 95,65 %
16.05.2016 07:18 5,8 C 89 % 1019,0 hPa 0,0 l/m 6,2 km/h (2 Bft) SW 236 0 min 0,000 mm 0,0 UV-I 114 W/m 4,1 C 5,8 C 11,3 km/h (2 Bft) 100,00 %
16.05.2016 07:19 5,8 C 89 % 1019,1 hPa 0,0 l/m 10,5 km/h (2 Bft) W-SW 244 0 min 0,000 mm 0,0 UV-I 113 W/m 4,1 C 2,6 C 14,5 km/h (3 Bft) 96,55 %
16.05.2016 07:20 5,8 C 88 % 1019,1 hPa 0,0 l/m 9,3 km/h (2 Bft) S 188 0 min 0,000 mm 0,0 UV-I 107 W/m 4,0 C 3,4 C 12,9 km/h (3 Bft) 100,00 %
16.05.2016 07:21 5,9 C 88 % 1019,0 hPa 0,0 l/m 6,4 km/h (2 Bft) SW 223 0 min 0,000 mm 0,0 UV-I 104 W/m 4,1 C 5,9 C 8,0 km/h (2 Bft) 100,00 %
16.05.2016 07:22 5,9 C 88 % 1019,0 hPa 0,0 l/m 10,1 km/h (2 Bft) W-SW 250 0 min 0,000 mm 0,0 UV-I 102 W/m 4,1 C 3,0 C 14,5 km/h (3 Bft) 100,00 %
16.05.2016 07:23 5,9 C 88 % 1019,1 hPa 0,0 l/m 12,5 km/h (3 Bft) W-SW 253 0 min 0,000 mm 0,0 UV-I 102 W/m 4,1 C 1,5 C 17,7 km/h (3 Bft) 100,00 %
16.05.2016 07:24 5,9 C 88 % 1019,1 hPa 0,0 l/m 9,2 km/h (2 Bft) SW 215 0 min 0,000 mm 0,0 UV-I 104 W/m 4,1 C 3,6 C 12,9 km/h (3 Bft) 95,83 %
16.05.2016 07:25 6,0 C 88 % 1019,0 hPa 0,0 l/m 8,8 km/h (2 Bft) SW 220 0 min 0,000 mm 0,0 UV-I 107 W/m 4,2 C 4,0 C 12,9 km/h (3 Bft) 100,00 %
16.05.2016 07:26 6,0 C 87 % 1019,0 hPa 0,0 l/m 9,5 km/h (2 Bft) SW 216 0 min 0,000 mm 0,0 UV-I 111 W/m 4,0 C 3,5 C 16,1 km/h (3 Bft) 100,00 %
16.05.2016 07:27 6,1 C 88 % 1019,0 hPa 0,0 l/m 6,3 km/h (2 Bft) SW 235 0 min 0,000 mm 0,0 UV-I 112 W/m 4,3 C 6,1 C 9,7 km/h (2 Bft) 100,00 %
16.05.2016 07:28 6,1 C 87 % 1019,0 hPa 0,0 l/m 7,2 km/h (2 Bft) W-SW 246 0 min 0,000 mm 0,0 UV-I 113 W/m 4,1 C 5,4 C 12,9 km/h (3 Bft) 96,15 %
16.05.2016 07:29 6,1 C 87 % 1019,0 hPa 0,0 l/m 13,3 km/h (3 Bft) SW 234 0 min 0,000 mm 0,0 UV-I 113 W/m 4,1 C 1,3 C 17,7 km/h (3 Bft) 96,15 %
16.05.2016 07:30 6,1 C 87 % 1019,0 hPa 0,0 l/m 11,5 km/h (2 Bft) SW 220 0 min 0,000 mm 0,0 UV-I 113 W/m 4,1 C 2,3 C 14,5 km/h (3 Bft) 100,00 %
16.05.2016 07:31 6,1 C 86 % 1018,9 hPa 0,0 l/m 9,3 km/h (2 Bft) SW 234 0 min 0,000 mm 0,0 UV-I 113 W/m 3,9 C 3,8 C 11,3 km/h (2 Bft) 100,00 %
16.05.2016 07:32 6,2 C 87 % 1018,9 hPa 0,0 l/m 9,4 km/h (2 Bft) W-SW 244 0 min 0,000 mm 0,0 UV-I 113 W/m 4,2 C 3,8 C 12,9 km/h (3 Bft) 100,00 %
16.05.2016 07:33 6,2 C 87 % 1018,9 hPa 0,0 l/m 9,6 km/h (2 Bft) W-SW 248 0 min 0,000 mm 0,0 UV-I 112 W/m 4,2 C 3,7 C 12,9 km/h (3 Bft) 100,00 %
16.05.2016 07:34 6,2 C 87 % 1018,9 hPa 0,0 l/m 12,2 km/h (2 Bft) SW 236 0 min 0,000 mm 0,0 UV-I 111 W/m 4,2 C 2,0 C 17,7 km/h (3 Bft) 100,00 %
16.05.2016 07:35 6,2 C 87 % 1018,9 hPa 0,0 l/m 12,5 km/h (3 Bft) W-SW 239 0 min 0,000 mm 0,0 UV-I 111 W/m 4,2 C 1,8 C 14,5 km/h (3 Bft) 100,00 %
16.05.2016 07:36 6,3 C 86 % 1018,9 hPa 0,0 l/m 10,0 km/h (2 Bft) W-SW 240 0 min 0,000 mm 0,0 UV-I 114 W/m 4,1 C 3,5 C 12,9 km/h (3 Bft) 100,00 %
16.05.2016 07:37 6,3 C 87 % 1018,9 hPa 0,0 l/m 11,5 km/h (2 Bft) W-SW 257 0 min 0,000 mm 0,0 UV-I 119 W/m 4,3 C 2,6 C 16,1 km/h (3 Bft) 100,00 %
16.05.2016 07:38 6,3 C 87 % 1018,9 hPa 0,0 l/m 14,3 km/h (3 Bft) SW 229 0 min 0,000 mm 0,0 UV-I 123 W/m 4,3 C 1,0 C 24,1 km/h (4 Bft) 100,00 %
16.05.2016 07:39 6,3 C 86 % 1019,1 hPa 0,0 l/m 17,5 km/h (3 Bft) SW 232 0 min 0,000 mm 0,0 UV-I 129 W/m 4,1 C -0,5 C 24,1 km/h (4 Bft) 100,00 %
16.05.2016 07:40 6,3 C 85 % 1019,1 hPa 0,0 l/m 16,2 km/h (3 Bft) W-SW 253 0 min 0,000 mm 0,0 UV-I 132 W/m 4,0 C 0,1 C 22,5 km/h (4 Bft) 100,00 %
16.05.2016 07:41 6,3 C 85 % 1019,0 hPa 0,0 l/m 12,1 km/h (2 Bft) W 261 0 min 0,000 mm 0,0 UV-I 128 W/m 4,0 C 2,2 C 19,3 km/h (3 Bft) 100,00 %
16.05.2016 07:42 6,3 C 85 % 1019,0 hPa 0,0 l/m 12,1 km/h (2 Bft) W 270 0 min 0,000 mm 0,0 UV-I 128 W/m 4,0 C 2,2 C 17,7 km/h (3 Bft) 100,00 %
16.05.2016 07:43 6,4 C 85 % 1019,0 hPa 0,0 l/m 14,8 km/h (3 Bft) W-SW 252 0 min 0,000 mm 0,0 UV-I 130 W/m 4,1 C 0,9 C 17,7 km/h (3 Bft) 100,00 %
16.05.2016 07:44 6,4 C 85 % 1019,0 hPa 0,0 l/m 10,8 km/h (2 Bft) W-SW 244 0 min 0,000 mm 0,0 UV-I 133 W/m 4,1 C 3,1 C 17,7 km/h (3 Bft) 100,00 %
16.05.2016 07:45 6,4 C 85 % 1019,1 hPa 0,0 l/m 16,5 km/h (3 Bft) W-SW 255 0 min 0,000 mm 0,0 UV-I 139 W/m 4,1 C 0,1 C 20,9 km/h (4 Bft) 100,00 %
16.05.2016 07:46 6,4 C 84 % 1019,0 hPa 0,0 l/m 15,5 km/h (3 Bft) SW 236 0 min 0,000 mm 0,0 UV-I 55 W/m 3,9 C 0,5 C 22,5 km/h (4 Bft) 100,00 %
16.05.2016 07:47 6,4 C 84 % 1019,2 hPa 0,0 l/m 13,3 km/h (3 Bft) W-SW 256 0 min 0,000 mm 0,0 UV-I 49 W/m 3,9 C 1,6 C 22,5 km/h (4 Bft) 100,00 %
16.05.2016 07:48 6,5 C 84 % 1019,2 hPa 0,0 l/m 19,0 km/h (3 Bft) W 259 0 min 0,000 mm 0,0 UV-I 92 W/m 4,0 C -0,9 C 24,1 km/h (4 Bft) 100,00 %
16.05.2016 07:49 6,5 C 84 % 1019,0 hPa 0,0 l/m 14,1 km/h (3 Bft) SW 230 0 min 0,000 mm 0,0 UV-I 82 W/m 4,0 C 1,3 C 22,5 km/h (4 Bft) 100,00 %
16.05.2016 07:50 6,6 C 84 % 1019,0 hPa 0,0 l/m 15,2 km/h (3 Bft) SW 220 0 min 0,000 mm 0,0 UV-I 72 W/m 4,1 C 0,9 C 24,1 km/h (4 Bft) 100,00 %
16.05.2016 07:51 6,6 C 84 % 1019,0 hPa 0,0 l/m 12,5 km/h (3 Bft) W 260 0 min 0,000 mm 0,0 UV-I 59 W/m 4,1 C 2,3 C 14,5 km/h (3 Bft) 95,83 %
16.05.2016 07:52 6,6 C 84 % 1019,1 hPa 0,0 l/m 15,6 km/h (3 Bft) W 263 0 min 0,000 mm 0,0 UV-I 45 W/m 4,1 C 0,7 C 22,5 km/h (4 Bft) 100,00 %
16.05.2016 07:53 6,5 C 84 % 1019,0 hPa 0,0 l/m 22,2 km/h (4 Bft) W 264 0 min 0,000 mm 0,0 UV-I 37 W/m 4,0 C -2,0 C 29,0 km/h (5 Bft) 100,00 %
16.05.2016 07:54 6,5 C 84 % 1019,0 hPa 0,2 l/m 14,6 km/h (3 Bft) W 268 0 min 0,000 mm 0,0 UV-I 38 W/m 4,0 C 1,1 C 22,5 km/h (4 Bft) 100,00 %
16.05.2016 07:55 6,4 C 84 % 1019,0 hPa 0,0 l/m 10,2 km/h (2 Bft) N-NW 328 0 min 0,000 mm 0,0 UV-I 42 W/m 3,9 C 3,5 C 16,1 km/h (3 Bft) 100,00 %
16.05.2016 07:56 6,4 C 85 % 1019,0 hPa 0,0 l/m 12,2 km/h (2 Bft) W-SW 244 0 min 0,000 mm 0,0 UV-I 45 W/m 4,1 C 2,3 C 17,7 km/h (3 Bft) 96,30 %
16.05.2016 07:57 6,4 C 85 % 1019,0 hPa 0,0 l/m 8,9 km/h (2 Bft) W-SW 246 0 min 0,000 mm 0,0 UV-I 42 W/m 4,1 C 4,4 C 14,5 km/h (3 Bft) 96,15 %
16.05.2016 07:58 6,3 C 85 % 1019,1 hPa 0,0 l/m 11,5 km/h (2 Bft) W-SW 254 0 min 0,000 mm 0,0 UV-I 37 W/m 4,0 C 2,6 C 17,7 km/h (3 Bft) 98,63 %
16.05.2016 07:59 6,3 C 85 % 1019,0 hPa 0,0 l/m 9,1 km/h (2 Bft) W 266 0 min 0,000 mm 0,0 UV-I 38 W/m 4,0 C 4,1 C 12,9 km/h (3 Bft) 100,00 %
16.05.2016 08:00 6,2 C 85 % 1019,1 hPa 0,0 l/m 10,2 km/h (2 Bft) W-SW 257 0 min 0,051 mm 0,0 UV-I 42 W/m 3,9 C 3,3 C 14,5 km/h (3 Bft) 100,00 %
16.05.2016 08:01 6,2 C 85 % 1019,1 hPa 0,0 l/m 10,7 km/h (2 Bft) W-SW 240 0 min 0,000 mm 0,0 UV-I 45 W/m 3,9 C 2,9 C 16,1 km/h (3 Bft) 95,65 %
16.05.2016 08:02 6,1 C 86 % 1019,1 hPa 0,0 l/m 9,8 km/h (2 Bft) SW 236 0 min 0,000 mm 0,0 UV-I 51 W/m 3,9 C 3,4 C 14,5 km/h (3 Bft) 100,00 %
16.05.2016 08:03 6,1 C 86 % 1019,1 hPa 0,0 l/m 13,2 km/h (3 Bft) W-SW 250 0 min 0,000 mm 0,0 UV-I 55 W/m 3,9 C 1,3 C 20,9 km/h (4 Bft) 100,00 %
16.05.2016 08:04 6,0 C 86 % 1019,1 hPa 0,0 l/m 9,7 km/h (2 Bft) W 266 0 min 0,000 mm 0,0 UV-I 60 W/m 3,8 C 3,4 C 17,7 km/h (3 Bft) 100,00 %
16.05.2016 08:05 6,0 C 87 % 1019,1 hPa 0,0 l/m 13,5 km/h (3 Bft) W 260 0 min 0,000 mm 0,0 UV-I 62 W/m 4,0 C 1,1 C 17,7 km/h (3 Bft) 100,00 %
16.05.2016 08:06 5,9 C 87 % 1019,1 hPa 0,0 l/m 12,1 km/h (2 Bft) W-SW 238 0 min 0,000 mm 0,0 UV-I 60 W/m 3,9 C 1,7 C 16,1 km/h (3 Bft) 100,00 %
16.05.2016 08:07 5,9 C 86 % 1019,1 hPa 0,0 l/m 12,4 km/h (3 Bft) W 279 0 min 0,000 mm 0,0 UV-I 63 W/m 3,7 C 1,6 C 16,1 km/h (3 Bft) 100,00 %
16.05.2016 08:08 5,9 C 87 % 1019,2 hPa 0,0 l/m 12,7 km/h (3 Bft) W-SW 258 0 min 0,000 mm 0,0 UV-I 70 W/m 3,9 C 1,4 C 19,3 km/h (3 Bft) 100,00 %
16.05.2016 08:09 5,9 C 87 % 1019,2 hPa 0,0 l/m 15,6 km/h (3 Bft) W 265 0 min 0,000 mm 0,0 UV-I 75 W/m 3,9 C -0,1 C 22,5 km/h (4 Bft) 100,00 %
16.05.2016 08:10 5,8 C 86 % 1019,1 hPa 0,0 l/m 13,8 km/h (3 Bft) W-SW 242 0 min 0,000 mm 0,0 UV-I 82 W/m 3,6 C 0,7 C 19,3 km/h (3 Bft) 100,00 %
16.05.2016 08:11 5,8 C 86 % 1019,1 hPa 0,0 l/m 13,5 km/h (3 Bft) W-SW 246 0 min 0,000 mm 0,0 UV-I 92 W/m 3,6 C 0,8 C 16,1 km/h (3 Bft) 100,00 %
16.05.2016 08:12 5,8 C 86 % 1019,1 hPa 0,0 l/m 8,8 km/h (2 Bft) W 260 0 min 0,000 mm 0,0 UV-I 96 W/m 3,6 C 3,8 C 16,1 km/h (3 Bft) 100,00 %
16.05.2016 08:13 5,9 C 86 % 1019,1 hPa 0,0 l/m 9,3 km/h (2 Bft) W-SW 245 0 min 0,000 mm 0,0 UV-I 99 W/m 3,7 C 3,6 C 12,9 km/h (3 Bft) 100,00 %
16.05.2016 08:14 5,9 C 86 % 1019,1 hPa 0,0 l/m 10,1 km/h (2 Bft) W 262 0 min 0,000 mm 0,0 UV-I 107 W/m 3,7 C 3,0 C 14,5 km/h (3 Bft) 100,00 %
16.05.2016 08:15 5,9 C 87 % 1019,1 hPa 0,0 l/m 12,7 km/h (3 Bft) SW 234 0 min 0,000 mm 0,0 UV-I 126 W/m 3,9 C 1,4 C 16,1 km/h (3 Bft) 100,00 %
16.05.2016 08:16 5,9 C 87 % 1019,0 hPa 0,0 l/m 11,2 km/h (2 Bft) W-SW 252 0 min 0,000 mm 0,0 UV-I 149 W/m 3,9 C 2,3 C 17,7 km/h (3 Bft) 100,00 %
16.05.2016 08:17 6,0 C 87 % 1019,1 hPa 0,0 l/m 8,8 km/h (2 Bft) W-SW 253 0 min 0,000 mm 0,5 UV-I 172 W/m 4,0 C 4,0 C 14,5 km/h (3 Bft) 100,00 %
16.05.2016 08:18 6,1 C 86 % 1019,1 hPa 0,0 l/m 10,4 km/h (2 Bft) W-SW 256 0 min 0,000 mm 0,5 UV-I 193 W/m 3,9 C 3,0 C 14,5 km/h (3 Bft) 100,00 %
16.05.2016 08:19 6,1 C 87 % 1019,1 hPa 0,0 l/m 12,0 km/h (2 Bft) W 267 0 min 0,000 mm 0,6 UV-I 225 W/m 4,1 C 2,0 C 17,7 km/h (3 Bft) 100,00 %
16.05.2016 08:20 6,2 C 87 % 1019,0 hPa 0,0 l/m 15,5 km/h (3 Bft) W-SW 251 1 min 0,000 mm 0,6 UV-I 252 W/m 4,2 C 0,3 C 19,3 km/h (3 Bft) 100,00 %
16.05.2016 08:21 6,2 C 87 % 1019,0 hPa 0,0 l/m 11,1 km/h (2 Bft) W-SW 242 1 min 0,000 mm 0,6 UV-I 264 W/m 4,2 C 2,7 C 12,9 km/h (3 Bft) 100,00 %
16.05.2016 08:22 6,3 C 87 % 1019,1 hPa 0,0 l/m 10,5 km/h (2 Bft) W-SW 250 1 min 0,000 mm 0,6 UV-I 265 W/m 4,3 C 3,2 C 12,9 km/h (3 Bft) 92,31 %
16.05.2016 08:23 6,3 C 88 % 1019,1 hPa 0,0 l/m 9,5 km/h (2 Bft) SW 228 1 min 0,000 mm 0,6 UV-I 265 W/m 4,5 C 3,9 C 12,9 km/h (3 Bft) 100,00 %
16.05.2016 08:24 6,4 C 88 % 1019,0 hPa 0,0 l/m 8,9 km/h (2 Bft) W-SW 245 1 min 0,000 mm 0,6 UV-I 295 W/m 4,6 C 4,4 C 14,5 km/h (3 Bft) 100,00 %
16.05.2016 08:25 6,6 C 88 % 1019,1 hPa 0,0 l/m 13,9 km/h (3 Bft) SW 229 1 min 0,000 mm 0,6 UV-I 355 W/m 4,8 C 1,6 C 22,5 km/h (4 Bft) 100,00 %
16.05.2016 08:26 6,6 C 88 % 1019,1 hPa 0,0 l/m 11,5 km/h (2 Bft) SW 231 0 min 0,000 mm 0,6 UV-I 231 W/m 4,8 C 2,9 C 17,7 km/h (3 Bft) 100,00 %
16.05.2016 08:27 6,7 C 87 % 1019,1 hPa 0,0 l/m 22,2 km/h (4 Bft) SW 229 0 min 0,000 mm 0,5 UV-I 197 W/m 4,7 C -1,8 C 29,0 km/h (5 Bft) 100,00 %
16.05.2016 08:28 6,8 C 86 % 1019,0 hPa 0,0 l/m 23,2 km/h (4 Bft) SW 225 0 min 0,000 mm 0,5 UV-I 172 W/m 4,6 C -1,9 C 30,6 km/h (5 Bft) 100,00 %
16.05.2016 08:29 6,8 C 86 % 1019,1 hPa 0,0 l/m 22,8 km/h (4 Bft) SW 225 0 min 0,000 mm 0,5 UV-I 161 W/m 4,6 C -1,8 C 32,2 km/h (5 Bft) 100,00 %
16.05.2016 08:30 6,8 C 85 % 1019,1 hPa 0,0 l/m 19,9 km/h (4 Bft) W-SW 242 0 min 0,000 mm 0,5 UV-I 151 W/m 4,5 C -0,8 C 32,2 km/h (5 Bft) 100,00 %
16.05.2016 08:31 6,8 C 84 % 1019,1 hPa 0,0 l/m 21,2 km/h (4 Bft) SW 233 0 min 0,000 mm 0,5 UV-I 142 W/m 4,3 C -1,3 C 29,0 km/h (5 Bft) 100,00 %
16.05.2016 08:32 6,8 C 84 % 1019,1 hPa 0,0 l/m 19,5 km/h (3 Bft) SW 221 0 min 0,000 mm 0,2 UV-I 133 W/m 4,3 C -0,7 C 27,4 km/h (4 Bft) 100,00 %
16.05.2016 08:33 6,8 C 84 % 1019,1 hPa 0,0 l/m 15,1 km/h (3 Bft) SW 219 0 min 0,000 mm 0,0 UV-I 128 W/m 4,3 C 1,2 C 22,5 km/h (4 Bft) 96,15 %
16.05.2016 08:34 6,8 C 84 % 1019,1 hPa 0,0 l/m 18,0 km/h (3 Bft) SW 228 0 min 0,000 mm 0,0 UV-I 127 W/m 4,3 C -0,1 C 22,5 km/h (4 Bft) 100,00 %
16.05.2016 08:35 6,7 C 84 % 1019,1 hPa 0,0 l/m 16,4 km/h (3 Bft) SW 214 0 min 0,000 mm 0,0 UV-I 126 W/m 4,2 C 0,5 C 22,5 km/h (4 Bft) 100,00 %
16.05.2016 08:36 6,7 C 84 % 1019,2 hPa 0,0 l/m 13,1 km/h (3 Bft) SW 230 0 min 0,000 mm 0,0 UV-I 128 W/m 4,2 C 2,1 C 17,7 km/h (3 Bft) 95,83 %
16.05.2016 08:37 6,7 C 85 % 1019,3 hPa 0,0 l/m 13,5 km/h (3 Bft) W-SW 246 0 min 0,000 mm 0,0 UV-I 132 W/m 4,4 C 1,9 C 19,3 km/h (3 Bft) 95,65 %
16.05.2016 08:38 6,7 C 85 % 1019,2 hPa 0,0 l/m 15,5 km/h (3 Bft) SW 228 0 min 0,000 mm 0,4 UV-I 138 W/m 4,4 C 0,9 C 22,5 km/h (4 Bft) 100,00 %
16.05.2016 08:39 6,6 C 85 % 1019,3 hPa 0,0 l/m 15,4 km/h (3 Bft) SW 227 0 min 0,000 mm 0,5 UV-I 144 W/m 4,3 C 0,8 C 25,7 km/h (4 Bft) 96,15 %
16.05.2016 08:40 6,6 C 85 % 1019,2 hPa 0,0 l/m 16,2 km/h (3 Bft) SW 233 0 min 0,000 mm 0,5 UV-I 145 W/m 4,3 C 0,5 C 24,1 km/h (4 Bft) 96,30 %
16.05.2016 08:41 6,6 C 85 % 1019,2 hPa 0,0 l/m 18,8 km/h (3 Bft) W 271 0 min 0,000 mm 0,5 UV-I 139 W/m 4,3 C -0,6 C 25,7 km/h (4 Bft) 92,86 %
16.05.2016 08:42 6,5 C 85 % 1019,2 hPa 0,0 l/m 18,3 km/h (3 Bft) W-SW 249 0 min 0,000 mm 0,5 UV-I 134 W/m 4,2 C -0,6 C 27,4 km/h (4 Bft) 96,30 %
16.05.2016 08:43 6,4 C 84 % 1019,3 hPa 0,0 l/m 18,2 km/h (3 Bft) S-SW 211 0 min 0,000 mm 0,5 UV-I 140 W/m 3,9 C -0,7 C 29,0 km/h (5 Bft) 98,69 %
16.05.2016 08:44 6,4 C 84 % 1019,2 hPa 0,0 l/m 16,0 km/h (3 Bft) SW 236 0 min 0,000 mm 0,6 UV-I 155 W/m 3,9 C 0,3 C 27,4 km/h (4 Bft) 93,48 %
16.05.2016 08:45 6,3 C 85 % 1019,2 hPa 0,0 l/m 12,2 km/h (2 Bft) SW 234 0 min 0,000 mm 0,7 UV-I 176 W/m 4,0 C 2,1 C 17,7 km/h (3 Bft) 100,00 %
16.05.2016 08:46 6,3 C 85 % 1019,2 hPa 0,0 l/m 18,4 km/h (3 Bft) W-SW 252 0 min 0,000 mm 0,8 UV-I 181 W/m 4,0 C -0,9 C 25,7 km/h (4 Bft) 86,67 %
16.05.2016 08:47 6,3 C 85 % 1019,2 hPa 0,0 l/m 13,3 km/h (3 Bft) SW 225 0 min 0,000 mm 0,8 UV-I 211 W/m 4,0 C 1,5 C 20,9 km/h (4 Bft) 100,00 %
16.05.2016 08:48 6,3 C 85 % 1019,2 hPa 0,0 l/m 13,4 km/h (3 Bft) S-SW 209 0 min 0,000 mm 0,8 UV-I 222 W/m 4,0 C 1,5 C 20,9 km/h (4 Bft) 86,67 %
16.05.2016 08:49 6,3 C 86 % 1019,3 hPa 0,0 l/m 14,2 km/h (3 Bft) SW 236 0 min 0,000 mm 0,7 UV-I 204 W/m 4,1 C 1,1 C 24,1 km/h (4 Bft) 100,00 %
16.05.2016 08:50 6,3 C 86 % 1019,4 hPa 0,0 l/m 22,5 km/h (4 Bft) SW 229 0 min 0,000 mm 0,8 UV-I 193 W/m 4,1 C -2,4 C 30,6 km/h (5 Bft) 96,15 %
16.05.2016 08:51 6,3 C 86 % 1019,4 hPa 0,0 l/m 18,6 km/h (3 Bft) SW 236 0 min 0,000 mm 0,8 UV-I 195 W/m 4,1 C -0,9 C 24,1 km/h (4 Bft) 95,83 %
16.05.2016 08:52 6,3 C 86 % 1019,3 hPa 0,0 l/m 16,5 km/h (3 Bft) W-SW 237 0 min 0,000 mm 0,8 UV-I 195 W/m 4,1 C -0,1 C 24,1 km/h (4 Bft) 100,00 %
16.05.2016 08:53 6,3 C 86 % 1019,2 hPa 0,0 l/m 16,0 km/h (3 Bft) S-SW 193 0 min 0,000 mm 0,8 UV-I 195 W/m 4,1 C 0,2 C 22,5 km/h (4 Bft) 100,00 %
16.05.2016 08:54 6,3 C 85 % 1019,2 hPa 0,0 l/m 12,9 km/h (3 Bft) SW 234 0 min 0,000 mm 0,9 UV-I 195 W/m 4,0 C 1,7 C 17,7 km/h (3 Bft) 96,88 %
16.05.2016 08:55 6,3 C 86 % 1019,2 hPa 0,0 l/m 17,1 km/h (3 Bft) SW 221 0 min 0,000 mm 0,9 UV-I 194 W/m 4,1 C -0,3 C 22,5 km/h (4 Bft) 96,30 %
16.05.2016 08:56 6,4 C 86 % 1019,2 hPa 0,0 l/m 20,9 km/h (4 Bft) SW 232 0 min 0,000 mm 0,9 UV-I 199 W/m 4,2 C -1,7 C 25,7 km/h (4 Bft) 98,59 %
16.05.2016 08:57 6,4 C 85 % 1019,3 hPa 0,0 l/m 17,6 km/h (3 Bft) S 185 0 min 0,000 mm 1,0 UV-I 220 W/m 4,1 C -0,4 C 25,7 km/h (4 Bft) 97,87 %
16.05.2016 08:58 6,4 C 85 % 1019,2 hPa 0,0 l/m 16,9 km/h (3 Bft) SW 232 0 min 0,000 mm 1,0 UV-I 266 W/m 4,1 C -0,1 C 22,5 km/h (4 Bft) 100,00 %
16.05.2016 08:59 6,4 C 85 % 1019,2 hPa 0,0 l/m 11,7 km/h (2 Bft) SW 229 1 min 0,000 mm 1,1 UV-I 306 W/m 4,1 C 2,5 C 20,9 km/h (4 Bft) 93,33 %
16.05.2016 09:00 6,5 C 85 % 1019,3 hPa 0,0 l/m 13,6 km/h (3 Bft) SW 233 1 min 0,000 mm 1,2 UV-I 323 W/m 4,2 C 1,6 C 20,9 km/h (4 Bft) 96,15 %
16.05.2016 09:02 6,6 C 85 % 1019,2 hPa 0,0 l/m 16,7 km/h (3 Bft) W-SW 248 2 min 0,076 mm 1,2 UV-I 338 W/m 4,3 C 0,2 C 27,4 km/h (4 Bft) 97,56 %
16.05.2016 09:03 6,7 C 84 % 1019,3 hPa 0,0 l/m 13,4 km/h (3 Bft) W-SW 244 0 min 0,000 mm 1,1 UV-I 288 W/m 4,2 C 1,9 C 20,9 km/h (4 Bft) 100,00 %
16.05.2016 09:04 6,7 C 85 % 1019,2 hPa 0,0 l/m 12,4 km/h (3 Bft) SW 236 0 min 0,000 mm 1,1 UV-I 287 W/m 4,4 C 2,5 C 20,9 km/h (4 Bft) 96,15 %
16.05.2016 09:05 6,8 C 85 % 1019,3 hPa 0,0 l/m 14,0 km/h (3 Bft) SW 229 0 min 0,000 mm 1,1 UV-I 258 W/m 4,5 C 1,8 C 22,5 km/h (4 Bft) 100,00 %
16.05.2016 09:06 6,8 C 85 % 1019,3 hPa 0,0 l/m 16,0 km/h (3 Bft) SW 225 0 min 0,000 mm 1,0 UV-I 216 W/m 4,5 C 0,8 C 22,5 km/h (4 Bft) 98,56 %
16.05.2016 09:07 6,8 C 84 % 1019,3 hPa 0,0 l/m 17,9 km/h (3 Bft) W-SW 258 0 min 0,000 mm 1,1 UV-I 202 W/m 4,3 C -0,0 C 24,1 km/h (4 Bft) 95,45 %
16.05.2016 09:08 6,9 C 84 % 1019,3 hPa 0,0 l/m 14,3 km/h (3 Bft) SW 224 0 min 0,000 mm 1,1 UV-I 210 W/m 4,4 C 1,7 C 17,7 km/h (3 Bft) 100,00 %
16.05.2016 09:09 6,9 C 84 % 1019,3 hPa 0,0 l/m 14,5 km/h (3 Bft) W 267 0 min 0,000 mm 1,2 UV-I 271 W/m 4,4 C 1,6 C 19,3 km/h (3 Bft) 100,00 %
16.05.2016 09:10 6,9 C 84 % 1019,3 hPa 0,0 l/m 14,1 km/h (3 Bft) S 182 0 min 0,000 mm 1,2 UV-I 270 W/m 4,4 C 1,8 C 19,3 km/h (3 Bft) 100,00 %
16.05.2016 09:11 6,9 C 84 % 1019,3 hPa 0,0 l/m 12,3 km/h (3 Bft) SW 227 1 min 0,000 mm 1,3 UV-I 334 W/m 4,4 C 2,8 C 16,1 km/h (3 Bft) 100,00 %
16.05.2016 09:12 7,0 C 84 % 1019,2 hPa 0,0 l/m 20,3 km/h (4 Bft) SW 226 1 min 0,000 mm 1,4 UV-I 404 W/m 4,5 C -0,7 C 27,4 km/h (4 Bft) 100,00 %
16.05.2016 09:13 7,0 C 83 % 1019,2 hPa 0,0 l/m 19,0 km/h (3 Bft) W-SW 237 1 min 0,000 mm 1,4 UV-I 383 W/m 4,3 C -0,2 C 25,7 km/h (4 Bft) 96,55 %
16.05.2016 09:14 7,1 C 84 % 1019,2 hPa 0,0 l/m 21,5 km/h (4 Bft) SW 229 1 min 0,000 mm 1,3 UV-I 338 W/m 4,6 C -1,0 C 27,4 km/h (4 Bft) 100,00 %
16.05.2016 09:15 7,1 C 84 % 1019,2 hPa 0,0 l/m 15,4 km/h (3 Bft) S-SW 212 1 min 0,000 mm 1,7 UV-I 338 W/m 4,6 C 1,4 C 24,1 km/h (4 Bft) 100,00 %
16.05.2016 09:16 7,2 C 84 % 1019,2 hPa 0,0 l/m 19,1 km/h (3 Bft) SW 225 1 min 0,000 mm 1,5 UV-I 338 W/m 4,7 C 0,0 C 27,4 km/h (4 Bft) 100,00 %
16.05.2016 09:17 7,2 C 84 % 1019,2 hPa 0,0 l/m 16,5 km/h (3 Bft) S-SW 207 0 min 0,000 mm 1,3 UV-I 320 W/m 4,7 C 1,1 C 22,5 km/h (4 Bft) 100,00 %
16.05.2016 09:18 7,3 C 82 % 1019,2 hPa 0,0 l/m 19,8 km/h (3 Bft) W-SW 240 0 min 0,000 mm 1,5 UV-I 295 W/m 4,4 C -0,1 C 25,7 km/h (4 Bft) 100,00 %
16.05.2016 09:19 7,3 C 82 % 1019,2 hPa 0,0 l/m 18,4 km/h (3 Bft) SW 226 0 min 0,000 mm 1,5 UV-I 295 W/m 4,4 C 0,4 C 30,6 km/h (5 Bft) 100,00 %
16.05.2016 09:20 7,3 C 82 % 1019,2 hPa 0,0 l/m 16,2 km/h (3 Bft) S-SW 201 1 min 0,000 mm 1,5 UV-I 480 W/m 4,4 C 1,3 C 27,4 km/h (4 Bft) 100,00 %
16.05.2016 09:21 7,4 C 81 % 1019,1 hPa 0,0 l/m 16,8 km/h (3 Bft) S-SO 168 1 min 0,000 mm 1,6 UV-I 501 W/m 4,4 C 1,2 C 25,7 km/h (4 Bft) 100,00 %
16.05.2016 09:22 7,4 C 81 % 1019,2 hPa 0,0 l/m 18,0 km/h (3 Bft) S-SW 211 1 min 0,000 mm 1,7 UV-I 501 W/m 4,4 C 0,7 C 24,1 km/h (4 Bft) 95,83 %
16.05.2016 09:23 7,6 C 83 % 1019,2 hPa 0,0 l/m 17,7 km/h (3 Bft) SW 227 1 min 0,000 mm 1,6 UV-I 537 W/m 4,9 C 1,1 C 25,7 km/h (4 Bft) 100,00 %
16.05.2016 09:24 7,7 C 82 % 1019,1 hPa 0,0 l/m 23,8 km/h (4 Bft) SW 215 1 min 0,000 mm 1,1 UV-I 568 W/m 4,8 C -0,9 C 29,0 km/h (5 Bft) 100,00 %
16.05.2016 09:25 7,8 C 81 % 1019,2 hPa 0,0 l/m 19,3 km/h (3 Bft) W-SW 255 1 min 0,000 mm 1,2 UV-I 445 W/m 4,7 C 0,7 C 24,1 km/h (4 Bft) 95,65 %
16.05.2016 09:26 7,8 C 80 % 1019,1 hPa 0,0 l/m 20,0 km/h (4 Bft) W-SW 250 1 min 0,000 mm 1,0 UV-I 420 W/m 4,6 C 0,4 C 30,6 km/h (5 Bft) 100,00 %
16.05.2016 09:27 7,8 C 79 % 1019,1 hPa 0,0 l/m 19,3 km/h (3 Bft) S-SO 166 1 min 0,000 mm 1,5 UV-I 420 W/m 4,4 C 0,7 C 24,1 km/h (4 Bft) 100,00 %
16.05.2016 09:28 7,8 C 80 % 1019,1 hPa 0,0 l/m 20,2 km/h (4 Bft) W-SW 246 1 min 0,000 mm 1,5 UV-I 416 W/m 4,6 C 0,4 C 29,0 km/h (5 Bft) 100,00 %
16.05.2016 09:29 7,8 C 80 % 1019,1 hPa 0,0 l/m 21,6 km/h (4 Bft) S-SW 201 1 min 0,000 mm 1,5 UV-I 397 W/m 4,6 C -0,1 C 30,6 km/h (5 Bft) 96,67 %
16.05.2016 09:30 7,8 C 80 % 1019,1 hPa 0,0 l/m 19,0 km/h (3 Bft) S-SW 205 1 min 0,000 mm 1,4 UV-I 370 W/m 4,6 C 0,8 C 37,0 km/h (5 Bft) 100,00 %
16.05.2016 09:31 7,9 C 80 % 1019,2 hPa 0,0 l/m 22,5 km/h (4 Bft) W-SW 244 1 min 0,000 mm 1,3 UV-I 355 W/m 4,7 C -0,3 C 30,6 km/h (5 Bft) 96,15 %
16.05.2016 09:32 7,9 C 80 % 1019,1 hPa 0,0 l/m 19,6 km/h (3 Bft) SW 234 1 min 0,000 mm 1,2 UV-I 353 W/m 4,7 C 0,7 C 25,7 km/h (4 Bft) 100,00 %
16.05.2016 09:33 7,8 C 81 % 1019,1 hPa 0,0 l/m 16,3 km/h (3 Bft) SW 217 1 min 0,000 mm 1,2 UV-I 348 W/m 4,7 C 1,9 C 24,1 km/h (4 Bft) 95,83 %
16.05.2016 09:34 7,8 C 80 % 1019,1 hPa 0,0 l/m 21,5 km/h (4 Bft) W-SW 250 0 min 0,000 mm 0,9 UV-I 280 W/m 4,6 C -0,1 C 29,0 km/h (5 Bft) 100,00 %
16.05.2016 09:35 7,8 C 81 % 1019,1 hPa 0,0 l/m 20,7 km/h (4 Bft) W-SW 244 0 min 0,000 mm 0,8 UV-I 221 W/m 4,7 C 0,2 C 29,0 km/h (5 Bft) 100,00 %
16.05.2016 09:36 7,8 C 81 % 1019,1 hPa 0,0 l/m 22,4 km/h (4 Bft) SW 221 0 min 0,000 mm 0,6 UV-I 176 W/m 4,7 C -0,4 C 29,0 km/h (5 Bft) 100,00 %
16.05.2016 09:37 7,7 C 82 % 1019,1 hPa 0,0 l/m 19,5 km/h (3 Bft) S-SW 210 0 min 0,000 mm 0,6 UV-I 155 W/m 4,8 C 0,5 C 27,4 km/h (4 Bft) 100,00 %
16.05.2016 09:38 7,7 C 82 % 1019,2 hPa 0,0 l/m 20,0 km/h (4 Bft) W-SW 252 0 min 0,000 mm 0,6 UV-I 152 W/m 4,8 C 0,3 C 29,0 km/h (5 Bft) 100,00 %
16.05.2016 09:39 7,6 C 81 % 1019,1 hPa 0,0 l/m 18,3 km/h (3 Bft) W-SW 239 0 min 0,000 mm 0,7 UV-I 170 W/m 4,6 C 0,8 C 25,7 km/h (4 Bft) 100,00 %
16.05.2016 09:40 7,5 C 81 % 1019,2 hPa 0,0 l/m 21,8 km/h (4 Bft) SW 232 0 min 0,000 mm 0,9 UV-I 200 W/m 4,5 C -0,6 C 29,0 km/h (5 Bft) 100,00 %
16.05.2016 09:41 7,4 C 82 % 1019,2 hPa 0,0 l/m 23,2 km/h (4 Bft) W 261 0 min 0,000 mm 1,1 UV-I 234 W/m 4,5 C -1,1 C 32,2 km/h (5 Bft) 96,30 %
16.05.2016 09:42 7,4 C 83 % 1019,2 hPa 0,0 l/m 22,3 km/h (4 Bft) SW 223 0 min 0,000 mm 1,1 UV-I 256 W/m 4,7 C -0,9 C 30,6 km/h (5 Bft) 100,00 %
16.05.2016 09:43 7,3 C 83 % 1019,2 hPa 0,0 l/m 18,1 km/h (3 Bft) SW 233 0 min 0,000 mm 1,1 UV-I 264 W/m 4,6 C 0,5 C 22,5 km/h (4 Bft) 100,00 %
16.05.2016 09:44 7,3 C 83 % 1019,2 hPa 0,0 l/m 14,3 km/h (3 Bft) S-SW 213 0 min 0,000 mm 1,1 UV-I 262 W/m 4,6 C 2,2 C 19,3 km/h (3 Bft) 100,00 %
16.05.2016 09:45 7,3 C 83 % 1019,2 hPa 0,0 l/m 20,0 km/h (4 Bft) SW 232 0 min 0,000 mm 1,2 UV-I 279 W/m 4,6 C -0,2 C 25,7 km/h (4 Bft) 100,00 %
16.05.2016 09:46 7,3 C 84 % 1019,1 hPa 0,0 l/m 19,2 km/h (3 Bft) SW 232 0 min 0,000 mm 1,3 UV-I 301 W/m 4,8 C 0,1 C 24,1 km/h (4 Bft) 100,00 %
16.05.2016 09:47 7,3 C 84 % 1019,1 hPa 0,0 l/m 15,6 km/h (3 Bft) SW 236 0 min 0,000 mm 1,4 UV-I 320 W/m 4,8 C 1,6 C 22,5 km/h (4 Bft) 100,00 %
16.05.2016 09:48 7,3 C 83 % 1019,1 hPa 0,0 l/m 21,9 km/h (4 Bft) W-SW 240 0 min 0,000 mm 1,4 UV-I 344 W/m 4,6 C -0,9 C 27,4 km/h (4 Bft) 100,00 %
16.05.2016 09:49 7,3 C 83 % 1019,1 hPa 0,0 l/m 24,5 km/h (4 Bft) SW 234 1 min 0,000 mm 1,6 UV-I 401 W/m 4,6 C -1,7 C 30,6 km/h (5 Bft) 100,00 %
16.05.2016 09:50 7,4 C 83 % 1019,1 hPa 0,0 l/m 21,9 km/h (4 Bft) SW 236 1 min 0,000 mm 1,6 UV-I 407 W/m 4,7 C -0,7 C 27,4 km/h (4 Bft) 100,00 %
16.05.2016 09:51 7,4 C 83 % 1019,1 hPa 0,0 l/m 19,6 km/h (3 Bft) SW 230 1 min 0,000 mm 1,6 UV-I 423 W/m 4,7 C 0,1 C 35,4 km/h (5 Bft) 100,00 %
16.05.2016 09:52 7,5 C 83 % 1019,1 hPa 0,0 l/m 24,1 km/h (4 Bft) W-SW 253 1 min 0,000 mm 1,6 UV-I 424 W/m 4,8 C -1,3 C 29,0 km/h (5 Bft) 100,00 %
16.05.2016 09:53 7,6 C 82 % 1019,1 hPa 0,0 l/m 20,6 km/h (4 Bft) SW 215 0 min 0,000 mm 1,6 UV-I 367 W/m 4,7 C -0,0 C 27,4 km/h (4 Bft) 100,00 %
16.05.2016 09:54 7,6 C 82 % 1019,1 hPa 0,0 l/m 14,6 km/h (3 Bft) W 274 1 min 0,000 mm 1,7 UV-I 392 W/m 4,7 C 2,4 C 22,5 km/h (4 Bft) 100,00 %
16.05.2016 09:55 7,7 C 82 % 1019,1 hPa 0,0 l/m 18,0 km/h (3 Bft) SW 236 1 min 0,000 mm 1,7 UV-I 433 W/m 4,8 C 1,1 C 20,9 km/h (4 Bft) 96,77 %
16.05.2016 09:56 7,7 C 83 % 1019,1 hPa 0,0 l/m 13,1 km/h (3 Bft) W-SW 252 1 min 0,000 mm 1,8 UV-I 444 W/m 5,0 C 3,3 C 19,3 km/h (3 Bft) 100,00 %
16.05.2016 09:57 7,8 C 83 % 1019,1 hPa 0,0 l/m 21,7 km/h (4 Bft) W-SW 252 1 min 0,000 mm 1,7 UV-I 441 W/m 5,1 C -0,1 C 32,2 km/h (5 Bft) 100,00 %
16.05.2016 09:58 7,8 C 82 % 1019,1 hPa 0,0 l/m 21,4 km/h (4 Bft) SW 234 1 min 0,000 mm 1,8 UV-I 418 W/m 4,9 C -0,0 C 30,6 km/h (5 Bft) 97,56 %
16.05.2016 09:59 7,8 C 82 % 1019,1 hPa 0,0 l/m 20,0 km/h (4 Bft) SW 234 1 min 0,000 mm 1,9 UV-I 488 W/m 4,9 C 0,4 C 32,2 km/h (5 Bft) 100,00 %
16.05.2016 10:00 7,9 C 82 % 1019,1 hPa 0,0 l/m 19,2 km/h (3 Bft) SW 232 1 min 0,000 mm 2,0 UV-I 545 W/m 5,0 C 0,9 C 24,1 km/h (4 Bft) 91,67 %
16.05.2016 10:01 7,9 C 81 % 1019,0 hPa 0,0 l/m 23,0 km/h (4 Bft) W-SW 246 1 min 0,178 mm 2,0 UV-I 465 W/m 4,8 C -0,4 C 32,2 km/h (5 Bft) 100,00 %
16.05.2016 10:02 7,9 C 80 % 1019,0 hPa 0,0 l/m 17,5 km/h (3 Bft) W 265 1 min 0,000 mm 1,9 UV-I 457 W/m 4,7 C 1,5 C 24,1 km/h (4 Bft) 100,00 %
16.05.2016 10:03 7,9 C 80 % 1018,9 hPa 0,0 l/m 24,2 km/h (4 Bft) W-SW 238 1 min 0,000 mm 1,9 UV-I 465 W/m 4,7 C -0,8 C 37,0 km/h (5 Bft) 100,00 %
16.05.2016 10:04 7,9 C 80 % 1018,9 hPa 0,0 l/m 17,1 km/h (3 Bft) S-SW 193 1 min 0,000 mm 2,0 UV-I 486 W/m 4,7 C 1,7 C 22,5 km/h (4 Bft) 100,00 %
16.05.2016 10:05 8,0 C 82 % 1019,0 hPa 0,0 l/m 14,4 km/h (3 Bft) O-SO 109 1 min 0,000 mm 1,9 UV-I 449 W/m 5,1 C 3,0 C 20,9 km/h (4 Bft) 100,00 %
16.05.2016 10:06 8,1 C 81 % 1019,0 hPa 0,0 l/m 10,4 km/h (2 Bft) SW 234 1 min 0,000 mm 2,0 UV-I 468 W/m 5,0 C 5,2 C 17,7 km/h (3 Bft) 100,00 %
16.05.2016 10:07 8,1 C 82 % 1019,0 hPa 0,0 l/m 9,3 km/h (2 Bft) SW 233 1 min 0,000 mm 2,0 UV-I 461 W/m 5,2 C 5,9 C 16,1 km/h (3 Bft) 100,00 %
16.05.2016 10:08 8,2 C 81 % 1019,0 hPa 0,0 l/m 15,2 km/h (3 Bft) S-SW 200 1 min 0,000 mm 2,1 UV-I 459 W/m 5,1 C 2,9 C 24,1 km/h (4 Bft) 100,00 %
16.05.2016 10:09 8,2 C 81 % 1019,0 hPa 0,0 l/m 16,3 km/h (3 Bft) W-SW 244 1 min 0,000 mm 2,0 UV-I 424 W/m 5,1 C 2,4 C 24,1 km/h (4 Bft) 100,00 %
16.05.2016 10:10 8,3 C 81 % 1018,9 hPa 0,0 l/m 17,5 km/h (3 Bft) SW 214 1 min 0,000 mm 1,9 UV-I 427 W/m 5,2 C 2,0 C 24,1 km/h (4 Bft) 96,15 %
16.05.2016 10:11 8,3 C 80 % 1018,9 hPa 0,0 l/m 17,1 km/h (3 Bft) W-SW 239 1 min 0,000 mm 1,4 UV-I 438 W/m 5,1 C 2,2 C 22,5 km/h (4 Bft) 100,00 %
16.05.2016 10:12 8,3 C 80 % 1019,0 hPa 0,0 l/m 10,5 km/h (2 Bft) W-SW 238 1 min 0,000 mm 0,9 UV-I 470 W/m 5,1 C 5,4 C 27,4 km/h (4 Bft) 96,55 %
16.05.2016 10:13 8,3 C 80 % 1018,9 hPa 0,0 l/m 24,0 km/h (4 Bft) W-SW 239 1 min 0,000 mm 2,0 UV-I 488 W/m 5,1 C -0,2 C 32,2 km/h (5 Bft) 100,00 %
16.05.2016 10:14 8,4 C 80 % 1018,9 hPa 0,0 l/m 14,3 km/h (3 Bft) W-SW 244 1 min 0,000 mm 2,1 UV-I 454 W/m 5,2 C 3,5 C 17,7 km/h (3 Bft) 100,00 %
16.05.2016 10:15 8,4 C 80 % 1018,9 hPa 0,0 l/m 22,0 km/h (4 Bft) W-SW 244 1 min 0,000 mm 2,1 UV-I 466 W/m 5,2 C 0,6 C 29,0 km/h (5 Bft) 100,00 %
16.05.2016 10:16 8,4 C 78 % 1018,9 hPa 0,0 l/m 13,0 km/h (3 Bft) W 269 1 min 0,000 mm 2,1 UV-I 466 W/m 4,8 C 4,1 C 17,7 km/h (3 Bft) 100,00 %
16.05.2016 10:17 8,4 C 79 % 1018,9 hPa 0,0 l/m 18,5 km/h (3 Bft) W 263 1 min 0,000 mm 2,1 UV-I 486 W/m 5,0 C 1,8 C 25,7 km/h (4 Bft) 100,00 %
16.05.2016 10:18 8,5 C 78 % 1018,9 hPa 0,0 l/m 22,6 km/h (4 Bft) S-SW 198 1 min 0,000 mm 2,1 UV-I 484 W/m 4,9 C 0,5 C 32,2 km/h (5 Bft) 100,00 %
16.05.2016 10:19 8,5 C 77 % 1018,9 hPa 0,0 l/m 19,0 km/h (3 Bft) W-SW 258 1 min 0,000 mm 2,1 UV-I 460 W/m 4,7 C 1,7 C 25,7 km/h (4 Bft) 100,00 %
16.05.2016 10:20 8,5 C 77 % 1018,9 hPa 0,0 l/m 15,4 km/h (3 Bft) SW 223 1 min 0,000 mm 2,1 UV-I 461 W/m 4,7 C 3,1 C 20,9 km/h (4 Bft) 100,00 %
16.05.2016 10:21 8,6 C 78 % 1018,9 hPa 0,0 l/m 16,7 km/h (3 Bft) W-SW 240 1 min 0,000 mm 2,1 UV-I 461 W/m 5,0 C 2,7 C 22,5 km/h (4 Bft) 93,33 %
16.05.2016 10:22 8,6 C 79 % 1018,9 hPa 0,0 l/m 17,7 km/h (3 Bft) W-SW 257 1 min 0,000 mm 1,9 UV-I 439 W/m 5,2 C 2,3 C 29,0 km/h (5 Bft) 100,00 %
16.05.2016 10:23 8,7 C 78 % 1018,9 hPa 0,0 l/m 11,2 km/h (2 Bft) W 259 1 min 0,000 mm 1,8 UV-I 399 W/m 5,1 C 5,5 C 17,7 km/h (3 Bft) 100,00 %
16.05.2016 10:24 8,7 C 79 % 1018,8 hPa 0,0 l/m 12,5 km/h (3 Bft) SW 226 0 min 0,000 mm 1,7 UV-I 397 W/m 5,3 C 4,8 C 17,7 km/h (3 Bft) 100,00 %
16.05.2016 10:25 8,8 C 78 % 1018,8 hPa 0,0 l/m 17,1 km/h (3 Bft) W-SW 254 0 min 0,000 mm 1,6 UV-I 325 W/m 5,2 C 2,8 C 24,1 km/h (4 Bft) 96,67 %
16.05.2016 10:26 8,8 C 79 % 1018,9 hPa 0,0 l/m 20,7 km/h (4 Bft) W 265 0 min 0,000 mm 1,6 UV-I 366 W/m 5,4 C 1,5 C 29,0 km/h (5 Bft) 95,65 %
16.05.2016 10:27 8,8 C 77 % 1018,8 hPa 0,0 l/m 18,2 km/h (3 Bft) SW 217 0 min 0,000 mm 1,9 UV-I 398 W/m 5,0 C 2,4 C 25,7 km/h (4 Bft) 100,00 %
16.05.2016 10:28 8,8 C 78 % 1018,8 hPa 0,0 l/m 14,8 km/h (3 Bft) W-SW 240 0 min 0,000 mm 1,8 UV-I 353 W/m 5,2 C 3,8 C 25,7 km/h (4 Bft) 91,67 %
16.05.2016 10:29 8,8 C 77 % 1018,8 hPa 0,0 l/m 14,2 km/h (3 Bft) SW 222 0 min 0,000 mm 1,7 UV-I 353 W/m 5,0 C 4,0 C 17,7 km/h (3 Bft) 96,55 %
16.05.2016 10:30 8,8 C 78 % 1018,8 hPa 0,0 l/m 14,4 km/h (3 Bft) W-NW 297 0 min 0,000 mm 1,6 UV-I 286 W/m 5,2 C 4,0 C 19,3 km/h (3 Bft) 96,30 %
16.05.2016 10:31 8,8 C 78 % 1018,8 hPa 0,0 l/m 11,9 km/h (2 Bft) W 272 0 min 0,000 mm 1,9 UV-I 323 W/m 5,2 C 5,2 C 17,7 km/h (3 Bft) 100,00 %
16.05.2016 10:32 8,8 C 78 % 1018,8 hPa 0,0 l/m 17,3 km/h (3 Bft) S-SW 208 0 min 0,000 mm 2,0 UV-I 323 W/m 5,2 C 2,7 C 29,0 km/h (5 Bft) 96,30 %
16.05.2016 10:33 8,8 C 75 % 1018,8 hPa 0,0 l/m 13,0 km/h (3 Bft) SW 219 0 min 0,000 mm 1,8 UV-I 296 W/m 4,6 C 4,6 C 19,3 km/h (3 Bft) 100,00 %
16.05.2016 10:35 8,8 C 76 % 1018,8 hPa 0,0 l/m 12,9 km/h (3 Bft) W-SW 247 0 min 0,000 mm 1,9 UV-I 268 W/m 4,8 C 4,7 C 29,0 km/h (5 Bft) 99,12 %
16.05.2016 10:39 8,9 C 75 % 1018,8 hPa 0,0 l/m 19,3 km/h (3 Bft) W-SW 252 0 min 0,000 mm 1,9 UV-I 344 W/m 4,7 C 2,1 C 22,5 km/h (4 Bft) 97,24 %
16.05.2016 10:40 9,1 C 74 % 1018,8 hPa 0,0 l/m 18,4 km/h (3 Bft) W-SW 240 1 min 0,000 mm 2,9 UV-I 645 W/m 4,7 C 2,7 C 25,7 km/h (4 Bft) 100,00 %
16.05.2016 10:43 9,4 C 69 % 1018,8 hPa 0,0 l/m 23,5 km/h (4 Bft) W-SW 250 3 min 0,000 mm 3,2 UV-I 800 W/m 4,0 C 1,4 C 27,4 km/h (4 Bft) 96,67 %
16.05.2016 10:44 9,6 C 68 % 1018,8 hPa 0,0 l/m 26,7 km/h (4 Bft) S-SW 209 1 min 0,000 mm 3,4 UV-I 937 W/m 4,0 C 0,9 C 32,2 km/h (5 Bft) 92,59 %
16.05.2016 10:45 9,6 C 67 % 1018,8 hPa 0,0 l/m 19,1 km/h (3 Bft) W-SW 238 1 min 0,000 mm 3,1 UV-I 937 W/m 3,8 C 3,1 C 27,4 km/h (4 Bft) 100,00 %
16.05.2016 10:46 9,6 C 67 % 1018,8 hPa 0,0 l/m 15,3 km/h (3 Bft) W 266 1 min 0,000 mm 2,9 UV-I 783 W/m 3,8 C 4,5 C 22,5 km/h (4 Bft) 100,00 %
16.05.2016 10:47 9,7 C 70 % 1018,7 hPa 0,0 l/m 12,4 km/h (3 Bft) SW 229 1 min 0,000 mm 2,9 UV-I 660 W/m 4,5 C 6,0 C 19,3 km/h (3 Bft) 93,75 %
16.05.2016 10:48 9,8 C 70 % 1018,7 hPa 0,0 l/m 15,0 km/h (3 Bft) W 271 1 min 0,000 mm 2,9 UV-I 642 W/m 4,6 C 4,9 C 19,3 km/h (3 Bft) 96,30 %
16.05.2016 10:49 9,8 C 68 % 1018,7 hPa 0,0 l/m 13,0 km/h (3 Bft) SW 216 1 min 0,000 mm 2,9 UV-I 562 W/m 4,2 C 5,8 C 17,7 km/h (3 Bft) 100,00 %
16.05.2016 10:50 9,8 C 69 % 1018,8 hPa 0,0 l/m 9,6 km/h (2 Bft) W 259 1 min 0,000 mm 2,4 UV-I 494 W/m 4,4 C 7,6 C 14,5 km/h (3 Bft) 93,94 %
16.05.2016 10:51 9,8 C 70 % 1018,8 hPa 0,0 l/m 16,8 km/h (3 Bft) SW 236 1 min 0,000 mm 2,4 UV-I 494 W/m 4,6 C 4,2 C 25,7 km/h (4 Bft) 100,00 %
16.05.2016 10:52 9,9 C 70 % 1018,8 hPa 0,0 l/m 11,9 km/h (2 Bft) W 260 1 min 0,000 mm 2,4 UV-I 494 W/m 4,7 C 6,4 C 17,7 km/h (3 Bft) 92,59 %
16.05.2016 10:53 9,9 C 71 % 1018,8 hPa 0,0 l/m 18,1 km/h (3 Bft) W 261 1 min 0,000 mm 2,3 UV-I 524 W/m 4,9 C 3,8 C 27,4 km/h (4 Bft) 96,15 %
16.05.2016 10:54 9,8 C 67 % 1018,8 hPa 0,0 l/m 21,6 km/h (4 Bft) W 279 1 min 0,000 mm 2,0 UV-I 510 W/m 4,0 C 2,5 C 30,6 km/h (5 Bft) 100,00 %
16.05.2016 10:55 9,8 C 66 % 1018,7 hPa 0,0 l/m 18,1 km/h (3 Bft) W 271 0 min 0,000 mm 2,6 UV-I 325 W/m 3,8 C 3,7 C 29,0 km/h (5 Bft) 96,15 %
16.05.2016 10:56 9,8 C 67 % 1018,7 hPa 0,0 l/m 23,8 km/h (4 Bft) W-SW 244 0 min 0,000 mm 2,7 UV-I 325 W/m 4,0 C 1,9 C 37,0 km/h (5 Bft) 96,30 %
16.05.2016 10:57 9,7 C 68 % 1018,7 hPa 0,0 l/m 20,9 km/h (4 Bft) W-SW 250 0 min 0,000 mm 2,8 UV-I 325 W/m 4,1 C 2,6 C 32,2 km/h (5 Bft) 98,54 %
16.05.2016 10:58 9,7 C 68 % 1018,7 hPa 0,0 l/m 22,1 km/h (4 Bft) W-SW 248 0 min 0,000 mm 3,2 UV-I 325 W/m 4,1 C 2,2 C 32,2 km/h (5 Bft) 97,37 %
16.05.2016 10:59 9,7 C 67 % 1018,8 hPa 0,0 l/m 17,1 km/h (3 Bft) SW 234 1 min 0,000 mm 3,3 UV-I 715 W/m 3,9 C 3,9 C 27,4 km/h (4 Bft) 96,55 %
16.05.2016 11:00 9,8 C 68 % 1018,8 hPa 0,0 l/m 21,6 km/h (4 Bft) W-SW 247 1 min 0,254 mm 3,4 UV-I 855 W/m 4,2 C 2,5 C 33,8 km/h (5 Bft) 96,30 %
16.05.2016 11:02 9,9 C 67 % 1018,7 hPa 0,0 l/m 19,6 km/h (3 Bft) SW 229 2 min 0,000 mm 3,4 UV-I 909 W/m 4,1 C 3,3 C 27,4 km/h (4 Bft) 97,56 %
16.05.2016 11:03 10,0 C 68 % 1018,7 hPa 0,0 l/m 19,6 km/h (3 Bft) W-SW 248 1 min 0,000 mm 2,9 UV-I 923 W/m 4,4 C 3,4 C 27,4 km/h (4 Bft) 100,00 %
16.05.2016 11:04 10,1 C 68 % 1018,8 hPa 0,0 l/m 14,1 km/h (3 Bft) SW 227 1 min 0,000 mm 3,5 UV-I 915 W/m 4,5 C 5,6 C 19,3 km/h (3 Bft) 100,00 %
16.05.2016 11:05 10,2 C 70 % 1018,8 hPa 0,0 l/m 14,5 km/h (3 Bft) W-SW 238 1 min 0,000 mm 3,4 UV-I 875 W/m 5,0 C 5,6 C 22,5 km/h (4 Bft) 100,00 %
16.05.2016 11:06 10,4 C 69 % 1018,7 hPa 0,0 l/m 16,2 km/h (3 Bft) W-NW 288 1 min 0,000 mm 3,2 UV-I 794 W/m 5,0 C 5,1 C 25,7 km/h (4 Bft) 100,00 %
16.05.2016 11:07 10,4 C 68 % 1018,7 hPa 0,0 l/m 20,3 km/h (4 Bft) NW 304 1 min 0,000 mm 2,8 UV-I 493 W/m 4,8 C 3,7 C 30,6 km/h (5 Bft) 100,00 %
16.05.2016 11:08 10,4 C 66 % 1018,8 hPa 0,0 l/m 21,5 km/h (4 Bft) W 281 1 min 0,000 mm 2,8 UV-I 520 W/m 4,3 C 3,3 C 35,4 km/h (5 Bft) 100,00 %
16.05.2016 11:09 10,4 C 65 % 1018,8 hPa 0,0 l/m 20,3 km/h (4 Bft) W-NW 285 1 min 0,000 mm 3,4 UV-I 497 W/m 4,1 C 3,7 C 29,0 km/h (5 Bft) 97,22 %
16.05.2016 11:10 10,3 C 67 % 1018,7 hPa 0,0 l/m 17,2 km/h (3 Bft) W-SW 246 1 min 0,000 mm 3,3 UV-I 792 W/m 4,4 C 4,6 C 20,9 km/h (4 Bft) 100,00 %
16.05.2016 11:11 10,4 C 66 % 1018,7 hPa 0,0 l/m 21,0 km/h (4 Bft) W-SW 240 1 min 0,000 mm 2,6 UV-I 914 W/m 4,3 C 3,5 C 27,4 km/h (4 Bft) 100,00 %
16.05.2016 11:12 10,3 C 66 % 1018,7 hPa 0,0 l/m 18,3 km/h (3 Bft) W-SW 252 1 min 0,000 mm 2,9 UV-I 879 W/m 4,2 C 4,2 C 29,0 km/h (5 Bft) 100,00 %
16.05.2016 11:13 10,4 C 67 % 1018,8 hPa 0,0 l/m 24,1 km/h (4 Bft) W-SW 242 1 min 0,000 mm 2,6 UV-I 735 W/m 4,5 C 2,6 C 33,8 km/h (5 Bft) 100,00 %
16.05.2016 11:14 10,3 C 65 % 1018,7 hPa 0,0 l/m 17,1 km/h (3 Bft) SW 229 1 min 0,000 mm 2,8 UV-I 721 W/m 4,0 C 4,7 C 24,1 km/h (4 Bft) 100,00 %
16.05.2016 11:15 10,3 C 64 % 1018,7 hPa 0,0 l/m 11,8 km/h (2 Bft) W-SW 254 1 min 0,000 mm 2,1 UV-I 721 W/m 3,8 C 7,0 C 16,1 km/h (3 Bft) 100,00 %
16.05.2016 11:16 10,3 C 65 % 1018,8 hPa 0,0 l/m 20,2 km/h (4 Bft) W 268 1 min 0,000 mm 1,9 UV-I 469 W/m 4,0 C 3,6 C 32,2 km/h (5 Bft) 100,00 %
16.05.2016 11:17 10,2 C 65 % 1018,7 hPa 0,0 l/m 15,5 km/h (3 Bft) W 259 0 min 0,000 mm 1,7 UV-I 318 W/m 3,9 C 5,2 C 20,9 km/h (4 Bft) 100,00 %
16.05.2016 11:18 10,1 C 65 % 1018,7 hPa 0,0 l/m 13,7 km/h (3 Bft) W-SW 241 0 min 0,000 mm 1,6 UV-I 309 W/m 3,8 C 5,8 C 20,9 km/h (4 Bft) 100,00 %
16.05.2016 11:19 9,9 C 67 % 1018,8 hPa 0,0 l/m 15,7 km/h (3 Bft) W-SW 246 0 min 0,000 mm 1,6 UV-I 313 W/m 4,1 C 4,7 C 24,1 km/h (4 Bft) 100,00 %
16.05.2016 11:20 9,8 C 67 % 1018,8 hPa 0,0 l/m 18,0 km/h (3 Bft) W 275 0 min 0,000 mm 1,8 UV-I 316 W/m 4,0 C 3,7 C 22,5 km/h (4 Bft) 100,00 %
16.05.2016 11:21 9,8 C 66 % 1018,7 hPa 0,0 l/m 15,4 km/h (3 Bft) W-NW 284 0 min 0,000 mm 2,1 UV-I 380 W/m 3,8 C 4,7 C 29,0 km/h (5 Bft) 100,00 %
16.05.2016 11:22 9,7 C 68 % 1018,7 hPa 0,0 l/m 15,9 km/h (3 Bft) W-SW 254 0 min 0,000 mm 2,6 UV-I 443 W/m 4,1 C 4,4 C 20,9 km/h (4 Bft) 100,00 %
16.05.2016 11:23 9,8 C 68 % 1018,8 hPa 0,0 l/m 19,6 km/h (3 Bft) W-SW 237 1 min 0,000 mm 2,6 UV-I 472 W/m 4,2 C 3,2 C 27,4 km/h (4 Bft) 100,00 %
16.05.2016 11:25 9,8 C 68 % 1018,7 hPa 0,0 l/m 19,3 km/h (3 Bft) W-SW 247 2 min 0,000 mm 2,6 UV-I 479 W/m 4,2 C 3,3 C 32,2 km/h (5 Bft) 96,49 %
16.05.2016 11:30 9,9 C 67 % 1018,8 hPa 0,0 l/m 20,9 km/h (4 Bft) W-SW 247 5 min 0,000 mm 2,5 UV-I 529 W/m 4,1 C 2,9 C 35,4 km/h (5 Bft) 99,12 %
16.05.2016 11:33 10,1 C 65 % 1018,8 hPa 0,0 l/m 23,3 km/h (4 Bft) W-SW 245 3 min 0,000 mm 2,5 UV-I 611 W/m 3,8 C 2,4 C 35,4 km/h (5 Bft) 98,32 %
16.05.2016 11:34 10,0 C 65 % 1018,8 hPa 0,0 l/m 26,1 km/h (4 Bft) W 268 1 min 0,000 mm 2,1 UV-I 458 W/m 3,7 C 1,6 C 41,8 km/h (6 Bft) 100,00 %
16.05.2016 11:35 9,9 C 65 % 1018,8 hPa 0,0 l/m 22,7 km/h (4 Bft) W 261 1 min 0,000 mm 2,5 UV-I 489 W/m 3,6 C 2,3 C 32,2 km/h (5 Bft) 100,00 %
16.05.2016 11:36 9,9 C 66 % 1018,9 hPa 0,0 l/m 20,6 km/h (4 Bft) W-SW 255 1 min 0,000 mm 2,5 UV-I 483 W/m 3,9 C 3,0 C 27,4 km/h (4 Bft) 100,00 %
16.05.2016 11:37 9,9 C 65 % 1018,9 hPa 0,0 l/m 20,5 km/h (4 Bft) SW 233 1 min 0,000 mm 2,6 UV-I 499 W/m 3,6 C 3,0 C 27,4 km/h (4 Bft) 100,00 %
16.05.2016 11:38 9,9 C 66 % 1018,8 hPa 0,0 l/m 20,8 km/h (4 Bft) W 262 1 min 0,000 mm 2,5 UV-I 479 W/m 3,9 C 2,9 C 25,7 km/h (4 Bft) 100,00 %
16.05.2016 11:39 9,9 C 65 % 1019,0 hPa 0,0 l/m 21,8 km/h (4 Bft) W 263 1 min 0,000 mm 2,5 UV-I 523 W/m 3,6 C 2,6 C 30,6 km/h (5 Bft) 100,00 %
16.05.2016 11:40 9,9 C 66 % 1018,8 hPa 0,0 l/m 16,7 km/h (3 Bft) W-SW 257 1 min 0,000 mm 2,6 UV-I 547 W/m 3,9 C 4,3 C 29,0 km/h (5 Bft) 100,00 %
16.05.2016 11:41 9,9 C 67 % 1018,8 hPa 0,0 l/m 18,8 km/h (3 Bft) W 281 1 min 0,000 mm 2,3 UV-I 525 W/m 4,1 C 3,6 C 27,4 km/h (4 Bft) 100,00 %
16.05.2016 11:42 9,9 C 68 % 1018,9 hPa 0,0 l/m 28,0 km/h (4 Bft) SW 228 0 min 0,000 mm 1,8 UV-I 356 W/m 4,3 C 1,0 C 33,8 km/h (5 Bft) 98,60 %
16.05.2016 11:43 9,8 C 66 % 1018,8 hPa 0,0 l/m 22,1 km/h (4 Bft) W-SW 239 0 min 0,000 mm 1,7 UV-I 322 W/m 3,8 C 2,4 C 33,8 km/h (5 Bft) 97,73 %
16.05.2016 11:44 9,8 C 66 % 1018,8 hPa 0,0 l/m 26,7 km/h (4 Bft) W-SW 239 0 min 0,000 mm 1,6 UV-I 304 W/m 3,8 C 1,1 C 40,2 km/h (6 Bft) 96,15 %
16.05.2016 11:45 9,7 C 67 % 1018,8 hPa 0,0 l/m 23,3 km/h (4 Bft) W 277 0 min 0,000 mm 1,6 UV-I 297 W/m 3,9 C 1,9 C 35,4 km/h (5 Bft) 98,59 %
16.05.2016 11:46 9,6 C 67 % 1019,0 hPa 0,0 l/m 17,2 km/h (3 Bft) SW 221 0 min 0,000 mm 1,7 UV-I 314 W/m 3,8 C 3,8 C 22,5 km/h (4 Bft) 100,00 %
16.05.2016 11:47 9,6 C 68 % 1018,9 hPa 0,0 l/m 29,2 km/h (5 Bft) W 259 0 min 0,000 mm 1,7 UV-I 341 W/m 4,0 C 0,3 C 41,8 km/h (6 Bft) 96,30 %
16.05.2016 11:48 9,5 C 69 % 1019,0 hPa 0,0 l/m 10,2 km/h (2 Bft) W-NW 296 0 min 0,000 mm 2,1 UV-I 372 W/m 4,1 C 6,9 C 19,3 km/h (3 Bft) 100,00 %
16.05.2016 11:49 9,4 C 69 % 1019,0 hPa 0,0 l/m 13,2 km/h (3 Bft) W 264 0 min 0,000 mm 2,3 UV-I 418 W/m 4,0 C 5,2 C 20,9 km/h (4 Bft) 100,00 %
16.05.2016 11:50 9,4 C 69 % 1019,0 hPa 0,0 l/m 15,0 km/h (3 Bft) W-NW 297 1 min 0,000 mm 2,5 UV-I 468 W/m 4,0 C 4,4 C 19,3 km/h (3 Bft) 100,00 %
16.05.2016 11:51 9,4 C 70 % 1019,0 hPa 0,0 l/m 16,4 km/h (3 Bft) W-SW 257 1 min 0,000 mm 2,8 UV-I 518 W/m 4,2 C 3,8 C 24,1 km/h (4 Bft) 100,00 %
16.05.2016 11:52 9,4 C 69 % 1019,0 hPa 0,0 l/m 17,2 km/h (3 Bft) W 262 1 min 0,000 mm 2,9 UV-I 548 W/m 4,0 C 3,5 C 25,7 km/h (4 Bft) 100,00 %
16.05.2016 11:53 9,4 C 69 % 1019,0 hPa 0,0 l/m 17,8 km/h (3 Bft) W 273 1 min 0,000 mm 2,7 UV-I 488 W/m 4,0 C 3,3 C 30,6 km/h (5 Bft) 96,15 %
16.05.2016 11:54 9,4 C 69 % 1019,0 hPa 0,0 l/m 15,8 km/h (3 Bft) W-SW 255 1 min 0,000 mm 2,9 UV-I 565 W/m 4,0 C 4,1 C 30,6 km/h (5 Bft) 96,67 %
16.05.2016 11:55 9,5 C 70 % 1019,0 hPa 0,0 l/m 12,6 km/h (3 Bft) W-SW 255 1 min 0,000 mm 3,0 UV-I 633 W/m 4,3 C 5,6 C 16,1 km/h (3 Bft) 100,00 %
16.05.2016 11:56 9,6 C 69 % 1019,0 hPa 0,0 l/m 14,1 km/h (3 Bft) W-SW 238 1 min 0,000 mm 2,7 UV-I 562 W/m 4,2 C 5,0 C 17,7 km/h (3 Bft) 100,00 %
16.05.2016 11:57 9,6 C 69 % 1019,0 hPa 0,0 l/m 12,7 km/h (3 Bft) W 263 0 min 0,000 mm 2,4 UV-I 457 W/m 4,2 C 5,7 C 17,7 km/h (3 Bft) 100,00 %
16.05.2016 11:58 9,6 C 68 % 1019,0 hPa 0,0 l/m 13,9 km/h (3 Bft) W-NW 284 0 min 0,000 mm 2,2 UV-I 407 W/m 4,0 C 5,1 C 22,5 km/h (4 Bft) 100,00 %
16.05.2016 11:59 9,6 C 68 % 1019,0 hPa 0,0 l/m 14,4 km/h (3 Bft) SW 226 0 min 0,000 mm 1,8 UV-I 341 W/m 4,0 C 4,9 C 22,5 km/h (4 Bft) 100,00 %
16.05.2016 12:00 9,5 C 67 % 1019,0 hPa 0,0 l/m 7,5 km/h (2 Bft) W-SW 252 0 min 0,000 mm 1,6 UV-I 288 W/m 3,7 C 8,7 C 12,9 km/h (3 Bft) 100,00 %
16.05.2016 12:02 9,4 C 69 % 1019,0 hPa 0,0 l/m 14,7 km/h (3 Bft) W-SW 250 0 min 0,304 mm 1,3 UV-I 249 W/m 4,0 C 4,5 C 20,9 km/h (4 Bft) 100,00 %
16.05.2016 12:03 9,3 C 69 % 1019,0 hPa 0,0 l/m 11,1 km/h (2 Bft) W-SW 246 0 min 0,000 mm 1,2 UV-I 236 W/m 3,9 C 6,2 C 17,7 km/h (3 Bft) 100,00 %
16.05.2016 12:04 9,3 C 70 % 1019,0 hPa 0,0 l/m 14,1 km/h (3 Bft) W 278 0 min 0,000 mm 1,2 UV-I 236 W/m 4,1 C 4,7 C 25,7 km/h (4 Bft) 100,00 %
16.05.2016 12:05 9,3 C 70 % 1018,9 hPa 0,0 l/m 20,9 km/h (4 Bft) W-SW 254 0 min 0,000 mm 1,1 UV-I 212 W/m 4,1 C 2,1 C 32,2 km/h (5 Bft) 98,62 %
16.05.2016 12:06 9,2 C 71 % 1019,1 hPa 0,0 l/m 25,3 km/h (4 Bft) NW 304 0 min 0,000 mm 1,1 UV-I 226 W/m 4,2 C 0,7 C 33,8 km/h (5 Bft) 100,00 %
16.05.2016 12:07 9,0 C 70 % 1019,0 hPa 0,0 l/m 18,1 km/h (3 Bft) W-SW 258 0 min 0,000 mm 1,3 UV-I 254 W/m 3,8 C 2,7 C 30,6 km/h (5 Bft) 100,00 %
16.05.2016 12:08 8,9 C 72 % 1019,0 hPa 0,0 l/m 13,5 km/h (3 Bft) S 191 0 min 0,000 mm 1,5 UV-I 273 W/m 4,1 C 4,5 C 20,9 km/h (4 Bft) 100,00 %
16.05.2016 12:09 8,7 C 71 % 1019,1 hPa 0,0 l/m 15,6 km/h (3 Bft) W-SW 246 0 min 0,000 mm 1,7 UV-I 308 W/m 3,7 C 3,3 C 30,6 km/h (5 Bft) 100,00 %
16.05.2016 12:10 8,6 C 73 % 1019,1 hPa 0,0 l/m 12,6 km/h (3 Bft) W-NW 300 0 min 0,000 mm 1,8 UV-I 341 W/m 4,0 C 4,6 C 20,9 km/h (4 Bft) 100,00 %
16.05.2016 12:11 8,6 C 73 % 1019,0 hPa 0,0 l/m 14,0 km/h (3 Bft) W-SW 246 0 min 0,000 mm 2,0 UV-I 378 W/m 4,0 C 3,9 C 25,7 km/h (4 Bft) 100,00 %
16.05.2016 12:12 8,4 C 75 % 1019,0 hPa 0,0 l/m 14,5 km/h (3 Bft) W 261 0 min 0,000 mm 2,2 UV-I 404 W/m 4,2 C 3,4 C 20,9 km/h (4 Bft) 100,00 %
16.05.2016 12:13 8,4 C 76 % 1019,0 hPa 0,0 l/m 15,6 km/h (3 Bft) W 262 0 min 0,000 mm 2,3 UV-I 431 W/m 4,4 C 2,9 C 22,5 km/h (4 Bft) 100,00 %
16.05.2016 12:14 8,5 C 77 % 1019,0 hPa 0,0 l/m 11,1 km/h (2 Bft) W-NW 299 0 min 0,000 mm 2,6 UV-I 465 W/m 4,7 C 5,3 C 14,5 km/h (3 Bft) 95,65 %
16.05.2016 12:15 8,5 C 76 % 1019,0 hPa 0,0 l/m 13,3 km/h (3 Bft) W-NW 286 1 min 0,000 mm 2,9 UV-I 539 W/m 4,5 C 4,1 C 24,1 km/h (4 Bft) 100,00 %
16.05.2016 12:16 8,6 C 75 % 1018,9 hPa 0,0 l/m 17,1 km/h (3 Bft) W-NW 294 1 min 0,000 mm 3,1 UV-I 577 W/m 4,4 C 2,6 C 22,5 km/h (4 Bft) 96,15 %
16.05.2016 12:17 8,6 C 73 % 1018,9 hPa 0,0 l/m 16,1 km/h (3 Bft) W 273 1 min 0,000 mm 3,5 UV-I 577 W/m 4,0 C 3,0 C 22,5 km/h (4 Bft) 100,00 %
16.05.2016 12:18 8,7 C 75 % 1018,9 hPa 0,0 l/m 13,8 km/h (3 Bft) W 261 1 min 0,000 mm 3,4 UV-I 577 W/m 4,5 C 4,1 C 27,4 km/h (4 Bft) 96,55 %
16.05.2016 12:19 8,8 C 74 % 1018,9 hPa 0,0 l/m 9,3 km/h (2 Bft) W-SW 249 1 min 0,000 mm 3,4 UV-I 640 W/m 4,4 C 6,7 C 12,9 km/h (3 Bft) 96,30 %
16.05.2016 12:20 8,9 C 75 % 1018,9 hPa 0,0 l/m 6,1 km/h (2 Bft) W-SW 248 1 min 0,000 mm 3,6 UV-I 705 W/m 4,7 C 8,9 C 9,7 km/h (2 Bft) 100,00 %
16.05.2016 12:21 9,1 C 75 % 1018,8 hPa 0,0 l/m 11,9 km/h (2 Bft) W-NW 290 1 min 0,000 mm 3,8 UV-I 762 W/m 4,9 C 5,5 C 19,3 km/h (3 Bft) 96,30 %
16.05.2016 12:22 9,3 C 74 % 1018,8 hPa 0,0 l/m 7,7 km/h (2 Bft) SW 232 1 min 0,000 mm 3,9 UV-I 798 W/m 4,9 C 8,3 C 19,3 km/h (3 Bft) 100,00 %
16.05.2016 12:23 9,4 C 75 % 1018,8 hPa 0,0 l/m 11,2 km/h (2 Bft) W-SW 244 1 min 0,000 mm 3,9 UV-I 796 W/m 5,2 C 6,2 C 16,1 km/h (3 Bft) 96,55 %
16.05.2016 12:24 9,6 C 73 % 1018,8 hPa 0,0 l/m 8,2 km/h (2 Bft) W-SW 239 1 min 0,000 mm 4,1 UV-I 849 W/m 5,0 C 8,3 C 14,5 km/h (3 Bft) 100,00 %
16.05.2016 12:25 9,7 C 72 % 1018,8 hPa 0,0 l/m 8,4 km/h (2 Bft) NW 315 1 min 0,000 mm 4,3 UV-I 907 W/m 4,9 C 8,3 C 16,1 km/h (3 Bft) 97,56 %
16.05.2016 12:26 9,8 C 75 % 1018,8 hPa 0,0 l/m 10,9 km/h (2 Bft) W-NW 284 1 min 0,000 mm 4,3 UV-I 913 W/m 5,6 C 6,9 C 19,3 km/h (3 Bft) 95,65 %
16.05.2016 12:27 10,0 C 75 % 1018,8 hPa 0,0 l/m 7,1 km/h (2 Bft) SW 235 1 min 0,000 mm 4,4 UV-I 923 W/m 5,8 C 9,5 C 11,3 km/h (2 Bft) 95,83 %
16.05.2016 12:28 10,2 C 73 % 1018,8 hPa 0,0 l/m 10,3 km/h (2 Bft) W 265 1 min 0,000 mm 4,4 UV-I 928 W/m 5,6 C 7,6 C 16,1 km/h (3 Bft) 95,65 %
16.05.2016 12:29 10,3 C 74 % 1018,8 hPa 0,0 l/m 13,9 km/h (3 Bft) W-SW 242 1 min 0,000 mm 4,4 UV-I 914 W/m 5,9 C 6,0 C 17,7 km/h (3 Bft) 100,00 %
16.05.2016 12:30 10,6 C 74 % 1018,8 hPa 0,0 l/m 10,3 km/h (2 Bft) SW 224 1 min 0,000 mm 4,2 UV-I 880 W/m 6,2 C 8,1 C 12,9 km/h (3 Bft) 91,67 %
16.05.2016 12:31 10,6 C 71 % 1018,7 hPa 0,0 l/m 13,1 km/h (3 Bft) W-SW 238 1 min 0,000 mm 3,9 UV-I 817 W/m 5,6 C 6,7 C 16,1 km/h (3 Bft) 100,00 %
16.05.2016 12:32 10,6 C 69 % 1018,7 hPa 0,0 l/m 10,1 km/h (2 Bft) W-SW 247 1 min 0,000 mm 3,8 UV-I 817 W/m 5,2 C 8,2 C 14,5 km/h (3 Bft) 100,00 %
16.05.2016 12:33 10,6 C 73 % 1018,7 hPa 0,0 l/m 8,7 km/h (2 Bft) W-SW 238 1 min 0,000 mm 3,1 UV-I 817 W/m 6,0 C 9,0 C 12,9 km/h (3 Bft) 97,56 %
16.05.2016 12:34 10,7 C 71 % 1018,7 hPa 0,0 l/m 10,4 km/h (2 Bft) S 187 1 min 0,000 mm 2,7 UV-I 702 W/m 5,7 C 8,1 C 16,1 km/h (3 Bft) 96,30 %
16.05.2016 12:35 10,7 C 71 % 1018,7 hPa 0,0 l/m 5,0 km/h (1 Bft) SW 234 0 min 0,000 mm 2,0 UV-I 360 W/m 5,7 C 10,7 C 9,7 km/h (2 Bft) 95,65 %
16.05.2016 12:36 10,7 C 71 % 1018,7 hPa 0,0 l/m 5,2 km/h (1 Bft) W-NW 284 0 min 0,000 mm 2,4 UV-I 391 W/m 5,7 C 10,7 C 9,7 km/h (2 Bft) 100,00 %
16.05.2016 12:37 10,7 C 70 % 1018,7 hPa 0,0 l/m 4,9 km/h (1 Bft) NW 320 0 min 0,000 mm 3,2 UV-I 410 W/m 5,5 C 10,7 C 8,0 km/h (2 Bft) 96,15 %
16.05.2016 12:38 10,6 C 71 % 1018,6 hPa 0,0 l/m 6,8 km/h (2 Bft) NW 304 0 min 0,000 mm 3,7 UV-I 410 W/m 5,6 C 10,3 C 14,5 km/h (3 Bft) 100,00 %
16.05.2016 12:39 10,6 C 73 % 1018,6 hPa 0,0 l/m 5,7 km/h (1 Bft) SW 217 0 min 0,000 mm 3,0 UV-I 410 W/m 6,0 C 10,6 C 16,1 km/h (3 Bft) 96,15 %
16.05.2016 12:40 10,4 C 71 % 1018,7 hPa 0,0 l/m 6,6 km/h (2 Bft) NW 311 0 min 0,000 mm 2,8 UV-I 471 W/m 5,4 C 10,3 C 12,9 km/h (3 Bft) 100,00 %
16.05.2016 12:41 10,4 C 70 % 1018,6 hPa 0,0 l/m 4,4 km/h (1 Bft) NW 326 1 min 0,000 mm 3,5 UV-I 705 W/m 5,2 C 10,4 C 11,3 km/h (2 Bft) 95,65 %
16.05.2016 12:42 10,4 C 71 % 1018,5 hPa 0,0 l/m 14,1 km/h (3 Bft) W-SW 238 1 min 0,000 mm 3,0 UV-I 570 W/m 5,4 C 6,0 C 24,1 km/h (4 Bft) 95,83 %
16.05.2016 12:43 10,3 C 69 % 1018,7 hPa 0,0 l/m 13,1 km/h (3 Bft) W-SW 256 0 min 0,000 mm 2,5 UV-I 372 W/m 4,9 C 6,3 C 19,3 km/h (3 Bft) 100,00 %
16.05.2016 12:44 10,3 C 69 % 1018,6 hPa 0,0 l/m 19,9 km/h (4 Bft) SW 236 0 min 0,000 mm 3,2 UV-I 341 W/m 4,9 C 3,7 C 35,4 km/h (5 Bft) 100,00 %
16.05.2016 12:45 10,3 C 68 % 1018,7 hPa 0,0 l/m 15,0 km/h (3 Bft) SW 226 1 min 0,000 mm 3,8 UV-I 638 W/m 4,7 C 5,5 C 19,3 km/h (3 Bft) 96,55 %
16.05.2016 12:46 10,4 C 69 % 1018,6 hPa 0,0 l/m 14,6 km/h (3 Bft) W 278 1 min 0,000 mm 3,1 UV-I 652 W/m 5,0 C 5,8 C 22,5 km/h (4 Bft) 96,30 %
16.05.2016 12:47 10,4 C 68 % 1018,6 hPa 0,0 l/m 16,3 km/h (3 Bft) W 281 1 min 0,000 mm 3,8 UV-I 564 W/m 4,8 C 5,1 C 20,9 km/h (4 Bft) 100,00 %
16.05.2016 12:48 10,5 C 67 % 1018,5 hPa 0,0 l/m 11,8 km/h (2 Bft) W 259 1 min 0,000 mm 3,7 UV-I 564 W/m 4,6 C 7,2 C 19,3 km/h (3 Bft) 96,15 %
16.05.2016 12:49 10,5 C 67 % 1018,6 hPa 0,0 l/m 15,6 km/h (3 Bft) W-SW 242 1 min 0,000 mm 3,3 UV-I 564 W/m 4,6 C 5,5 C 22,5 km/h (4 Bft) 100,00 %
16.05.2016 12:50 10,5 C 65 % 1018,5 hPa 0,0 l/m 23,8 km/h (4 Bft) W 264 1 min 0,000 mm 2,7 UV-I 564 W/m 4,2 C 2,8 C 30,6 km/h (5 Bft) 95,65 %
16.05.2016 12:51 10,4 C 65 % 1018,5 hPa 0,0 l/m 15,6 km/h (3 Bft) W-SW 248 0 min 0,000 mm 2,2 UV-I 349 W/m 4,1 C 5,4 C 19,3 km/h (3 Bft) 100,00 %
16.05.2016 12:52 10,4 C 66 % 1018,6 hPa 0,0 l/m 12,2 km/h (2 Bft) W-NW 292 0 min 0,000 mm 2,4 UV-I 371 W/m 4,3 C 6,9 C 16,1 km/h (3 Bft) 100,00 %
16.05.2016 12:53 10,4 C 68 % 1018,5 hPa 0,0 l/m 15,2 km/h (3 Bft) W-SW 254 0 min 0,000 mm 3,0 UV-I 371 W/m 4,8 C 5,5 C 20,9 km/h (4 Bft) 96,67 %
16.05.2016 12:54 10,5 C 66 % 1018,5 hPa 0,0 l/m 13,8 km/h (3 Bft) SW 227 0 min 0,000 mm 3,2 UV-I 397 W/m 4,4 C 6,3 C 22,5 km/h (4 Bft) 96,15 %
16.05.2016 12:55 10,5 C 67 % 1018,5 hPa 0,0 l/m 18,9 km/h (3 Bft) W-SW 253 0 min 0,000 mm 2,4 UV-I 381 W/m 4,6 C 4,3 C 25,7 km/h (4 Bft) 100,00 %
16.05.2016 12:56 10,5 C 67 % 1018,5 hPa 0,0 l/m 14,6 km/h (3 Bft) W 274 0 min 0,000 mm 2,2 UV-I 354 W/m 4,6 C 5,9 C 19,3 km/h (3 Bft) 100,00 %
16.05.2016 12:57 10,5 C 67 % 1018,5 hPa 0,0 l/m 17,4 km/h (3 Bft) W 273 0 min 0,000 mm 2,1 UV-I 342 W/m 4,6 C 4,8 C 22,5 km/h (4 Bft) 95,83 %
16.05.2016 12:58 10,4 C 66 % 1018,5 hPa 0,0 l/m 13,3 km/h (3 Bft) W-SW 255 0 min 0,000 mm 2,0 UV-I 327 W/m 4,3 C 6,4 C 16,1 km/h (3 Bft) 100,00 %
16.05.2016 12:59 10,4 C 67 % 1018,5 hPa 0,0 l/m 19,5 km/h (3 Bft) W-SW 244 0 min 0,000 mm 1,8 UV-I 310 W/m 4,5 C 4,0 C 24,1 km/h (4 Bft) 100,00 %
16.05.2016 13:00 10,4 C 65 % 1018,5 hPa 0,0 l/m 18,0 km/h (3 Bft) W-SW 242 0 min 0,280 mm 1,6 UV-I 264 W/m 4,1 C 4,5 C 27,4 km/h (4 Bft) 100,00 %
16.05.2016 13:01 10,3 C 64 % 1018,5 hPa 0,0 l/m 19,9 km/h (4 Bft) W-SW 252 0 min 0,000 mm 1,2 UV-I 210 W/m 3,8 C 3,7 C 29,0 km/h (5 Bft) 100,00 %
16.05.2016 13:02 10,2 C 66 % 1018,5 hPa 0,0 l/m 16,8 km/h (3 Bft) W-SW 238 0 min 0,000 mm 0,8 UV-I 146 W/m 4,1 C 4,7 C 32,2 km/h (5 Bft) 100,00 %
16.05.2016 13:03 10,2 C 67 % 1018,6 hPa 0,0 l/m 14,6 km/h (3 Bft) W-SW 250 0 min 0,000 mm 0,6 UV-I 99 W/m 4,4 C 5,5 C 25,7 km/h (4 Bft) 100,00 %
16.05.2016 13:04 10,1 C 66 % 1018,6 hPa 0,0 l/m 23,9 km/h (4 Bft) W 259 0 min 0,000 mm 0,0 UV-I 83 W/m 4,0 C 2,3 C 35,4 km/h (5 Bft) 100,00 %
16.05.2016 13:05 10,0 C 67 % 1018,6 hPa 0,0 l/m 26,8 km/h (4 Bft) W-SW 246 0 min 0,000 mm 0,0 UV-I 82 W/m 4,2 C 1,4 C 32,2 km/h (5 Bft) 100,00 %
16.05.2016 13:06 9,9 C 69 % 1018,7 hPa 0,0 l/m 24,4 km/h (4 Bft) SW 228 0 min 0,000 mm 0,2 UV-I 87 W/m 4,5 C 1,9 C 35,4 km/h (5 Bft) 100,00 %
16.05.2016 13:07 9,7 C 70 % 1018,7 hPa 0,0 l/m 26,2 km/h (4 Bft) W-SW 237 0 min 0,000 mm 0,5 UV-I 102 W/m 4,5 C 1,1 C 35,4 km/h (5 Bft) 100,00 %
16.05.2016 13:08 9,4 C 72 % 1018,8 hPa 0,0 l/m 20,1 km/h (4 Bft) W-SW 244 0 min 0,000 mm 0,6 UV-I 132 W/m 4,6 C 2,5 C 29,0 km/h (5 Bft) 93,33 %
16.05.2016 13:09 9,1 C 74 % 1018,8 hPa 0,0 l/m 16,8 km/h (3 Bft) W-SW 242 0 min 0,000 mm 1,1 UV-I 202 W/m 4,7 C 3,3 C 25,7 km/h (4 Bft) 100,00 %
16.05.2016 13:10 8,8 C 74 % 1018,8 hPa 0,0 l/m 18,3 km/h (3 Bft) S-SO 167 0 min 0,000 mm 1,6 UV-I 265 W/m 4,4 C 2,3 C 25,7 km/h (4 Bft) 100,00 %
16.05.2016 13:11 8,5 C 76 % 1018,7 hPa 0,2 l/m 19,0 km/h (3 Bft) W-SW 246 0 min 0,000 mm 2,4 UV-I 338 W/m 4,5 C 1,7 C 25,7 km/h (4 Bft) 100,00 %
16.05.2016 13:12 8,3 C 78 % 1018,7 hPa 0,0 l/m 14,8 km/h (3 Bft) S-SW 193 0 min 0,000 mm 2,6 UV-I 448 W/m 4,7 C 3,2 C 20,9 km/h (4 Bft) 100,00 %
16.05.2016 13:13 8,3 C 82 % 1018,7 hPa 0,0 l/m 14,6 km/h (3 Bft) W 266 1 min 0,000 mm 2,8 UV-I 496 W/m 5,4 C 3,3 C 20,9 km/h (4 Bft) 100,00 %
16.05.2016 13:14 8,3 C 83 % 1018,7 hPa 0,0 l/m 20,1 km/h (4 Bft) W-SW 242 1 min 0,000 mm 3,1 UV-I 514 W/m 5,6 C 1,1 C 25,7 km/h (4 Bft) 100,00 %
16.05.2016 13:15 8,4 C 84 % 1018,7 hPa 0,0 l/m 13,0 km/h (3 Bft) SW 224 1 min 0,000 mm 3,4 UV-I 636 W/m 5,9 C 4,1 C 25,7 km/h (4 Bft) 100,00 %
16.05.2016 13:16 8,6 C 83 % 1018,7 hPa 0,0 l/m 19,7 km/h (3 Bft) W 268 1 min 0,000 mm 3,4 UV-I 676 W/m 5,9 C 1,6 C 27,4 km/h (4 Bft) 100,00 %
16.05.2016 13:17 8,7 C 82 % 1018,7 hPa 0,0 l/m 19,1 km/h (3 Bft) S-SW 208 1 min 0,000 mm 3,5 UV-I 746 W/m 5,8 C 1,9 C 27,4 km/h (4 Bft) 96,15 %
16.05.2016 13:18 8,8 C 82 % 1018,7 hPa 0,0 l/m 17,1 km/h (3 Bft) W 262 1 min 0,000 mm 3,4 UV-I 727 W/m 5,9 C 2,8 C 29,0 km/h (5 Bft) 100,00 %
16.05.2016 13:19 8,9 C 82 % 1018,6 hPa 0,0 l/m 16,7 km/h (3 Bft) S-SW 203 1 min 0,000 mm 3,6 UV-I 752 W/m 6,0 C 3,1 C 20,9 km/h (4 Bft) 100,00 %
16.05.2016 13:20 9,1 C 82 % 1018,6 hPa 0,0 l/m 20,9 km/h (4 Bft) S-SW 204 1 min 0,000 mm 3,6 UV-I 797 W/m 6,2 C 1,8 C 33,8 km/h (5 Bft) 100,00 %
16.05.2016 13:21 9,2 C 82 % 1018,6 hPa 0,0 l/m 17,4 km/h (3 Bft) S-SW 202 1 min 0,000 mm 3,6 UV-I 758 W/m 6,3 C 3,2 C 22,5 km/h (4 Bft) 100,00 %
16.05.2016 13:22 9,3 C 82 % 1018,6 hPa 0,0 l/m 15,0 km/h (3 Bft) S-SW 202 1 min 0,000 mm 3,0 UV-I 705 W/m 6,4 C 4,3 C 22,5 km/h (4 Bft) 100,00 %
16.05.2016 13:23 9,5 C 85 % 1018,6 hPa 0,0 l/m 18,3 km/h (3 Bft) S 190 1 min 0,000 mm 2,6 UV-I 589 W/m 7,1 C 3,2 C 22,5 km/h (4 Bft) 100,00 %
16.05.2016 13:24 9,6 C 80 % 1018,6 hPa 0,0 l/m 13,7 km/h (3 Bft) SW 220 1 min 0,000 mm 2,4 UV-I 539 W/m 6,3 C 5,2 C 20,9 km/h (4 Bft) 100,00 %
16.05.2016 13:25 9,6 C 81 % 1018,6 hPa 0,0 l/m 17,1 km/h (3 Bft) W-SW 237 0 min 0,000 mm 2,4 UV-I 455 W/m 6,5 C 3,8 C 29,0 km/h (5 Bft) 100,00 %
16.05.2016 13:26 9,6 C 82 % 1018,6 hPa 0,0 l/m 19,2 km/h (3 Bft) W-SW 240 0 min 0,000 mm 2,2 UV-I 467 W/m 6,7 C 3,0 C 30,6 km/h (5 Bft) 100,00 %
16.05.2016 13:27 9,4 C 82 % 1018,6 hPa 0,0 l/m 20,4 km/h (4 Bft) SW 234 0 min 0,000 mm 1,9 UV-I 441 W/m 6,5 C 2,4 C 27,4 km/h (4 Bft) 97,37 %
16.05.2016 13:28 9,3 C 77 % 1018,6 hPa 0,0 l/m 21,7 km/h (4 Bft) S-SO 163 0 min 0,000 mm 1,8 UV-I 349 W/m 5,5 C 1,8 C 35,4 km/h (5 Bft) 100,00 %
16.05.2016 13:29 9,2 C 78 % 1018,6 hPa 0,0 l/m 14,5 km/h (3 Bft) SW 227 0 min 0,000 mm 1,8 UV-I 358 W/m 5,6 C 4,4 C 22,5 km/h (4 Bft) 100,00 %
16.05.2016 13:30 9,1 C 78 % 1018,6 hPa 0,0 l/m 16,5 km/h (3 Bft) S-SW 202 0 min 0,000 mm 1,9 UV-I 368 W/m 5,5 C 3,4 C 32,2 km/h (5 Bft) 96,55 %
16.05.2016 13:31 9,1 C 79 % 1018,6 hPa 0,0 l/m 18,1 km/h (3 Bft) SW 219 0 min 0,000 mm 2,0 UV-I 371 W/m 5,7 C 2,8 C 29,0 km/h (5 Bft) 100,00 %
16.05.2016 13:32 9,0 C 78 % 1018,5 hPa 0,0 l/m 18,9 km/h (3 Bft) SW 221 0 min 0,000 mm 1,9 UV-I 354 W/m 5,4 C 2,4 C 29,0 km/h (5 Bft) 100,00 %
16.05.2016 13:33 8,9 C 78 % 1018,6 hPa 0,0 l/m 21,9 km/h (4 Bft) W-SW 240 0 min 0,000 mm 1,7 UV-I 333 W/m 5,3 C 1,2 C 33,8 km/h (5 Bft) 100,00 %
16.05.2016 13:34 8,9 C 79 % 1018,6 hPa 0,0 l/m 15,5 km/h (3 Bft) SW 226 0 min 0,000 mm 1,7 UV-I 335 W/m 5,5 C 3,6 C 22,5 km/h (4 Bft) 90,91 %
16.05.2016 13:35 8,9 C 81 % 1018,6 hPa 0,0 l/m 14,3 km/h (3 Bft) W-SW 242 0 min 0,000 mm 1,6 UV-I 323 W/m 5,8 C 4,1 C 20,9 km/h (4 Bft) 93,33 %
16.05.2016 13:36 9,0 C 81 % 1018,6 hPa 0,0 l/m 13,4 km/h (3 Bft) W-SW 239 0 min 0,000 mm 1,6 UV-I 339 W/m 5,9 C 4,7 C 19,3 km/h (3 Bft) 97,73 %
16.05.2016 13:37 9,0 C 80 % 1018,6 hPa 0,0 l/m 14,8 km/h (3 Bft) W-SW 239 0 min 0,000 mm 1,6 UV-I 345 W/m 5,7 C 4,0 C 20,9 km/h (4 Bft) 83,33 %
16.05.2016 13:38 9,0 C 80 % 1018,5 hPa 0,0 l/m 20,3 km/h (4 Bft) W-SW 253 0 min 0,000 mm 1,5 UV-I 303 W/m 5,7 C 1,9 C 29,0 km/h (5 Bft) 100,00 %
16.05.2016 13:39 9,0 C 80 % 1018,5 hPa 0,0 l/m 15,5 km/h (3 Bft) SW 214 0 min 0,000 mm 1,4 UV-I 273 W/m 5,7 C 3,7 C 24,1 km/h (4 Bft) 100,00 %
16.05.2016 13:40 9,0 C 79 % 1018,5 hPa 0,0 l/m 18,8 km/h (3 Bft) S-SW 194 0 min 0,000 mm 1,3 UV-I 254 W/m 5,6 C 2,4 C 29,0 km/h (5 Bft) 100,00 %
16.05.2016 13:41 9,0 C 79 % 1018,5 hPa 0,0 l/m 25,1 km/h (4 Bft) SW 228 0 min 0,000 mm 1,2 UV-I 229 W/m 5,6 C 0,5 C 32,2 km/h (5 Bft) 100,00 %
16.05.2016 13:42 8,9 C 79 % 1018,5 hPa 0,0 l/m 21,0 km/h (4 Bft) SW 218 0 min 0,000 mm 1,0 UV-I 199 W/m 5,5 C 1,5 C 30,6 km/h (5 Bft) 98,60 %
16.05.2016 13:43 8,9 C 79 % 1018,6 hPa 0,0 l/m 24,2 km/h (4 Bft) S-SW 212 0 min 0,000 mm 0,8 UV-I 167 W/m 5,5 C 0,6 C 32,2 km/h (5 Bft) 97,73 %
16.05.2016 13:44 8,8 C 79 % 1018,6 hPa 0,0 l/m 23,6 km/h (4 Bft) W-SW 254 0 min 0,000 mm 0,7 UV-I 129 W/m 5,4 C 0,6 C 38,6 km/h (5 Bft) 100,00 %
16.05.2016 13:45 8,7 C 79 % 1018,6 hPa 0,0 l/m 18,0 km/h (3 Bft) S-SW 201 0 min 0,000 mm 0,6 UV-I 115 W/m 5,3 C 2,3 C 24,1 km/h (4 Bft) 100,00 %
16.05.2016 13:46 8,6 C 80 % 1018,6 hPa 0,0 l/m 26,9 km/h (4 Bft) W-SW 252 0 min 0,000 mm 0,6 UV-I 128 W/m 5,3 C -0,6 C 40,2 km/h (6 Bft) 100,00 %
16.05.2016 13:47 8,5 C 80 % 1018,6 hPa 0,0 l/m 27,7 km/h (4 Bft) W-SW 255 0 min 0,000 mm 0,8 UV-I 156 W/m 5,3 C -0,9 C 43,5 km/h (6 Bft) 95,65 %
16.05.2016 13:48 8,4 C 80 % 1018,7 hPa 0,0 l/m 22,8 km/h (4 Bft) S-SW 200 0 min 0,000 mm 1,1 UV-I 203 W/m 5,2 C 0,3 C 35,4 km/h (5 Bft) 100,00 %
16.05.2016 13:49 8,2 C 81 % 1018,6 hPa 0,0 l/m 19,5 km/h (3 Bft) SW 223 0 min 0,000 mm 1,3 UV-I 239 W/m 5,1 C 1,1 C 32,2 km/h (5 Bft) 94,12 %
16.05.2016 13:50 8,2 C 82 % 1018,6 hPa 0,0 l/m 19,5 km/h (3 Bft) SW 221 0 min 0,000 mm 1,3 UV-I 236 W/m 5,3 C 1,1 C 29,0 km/h (5 Bft) 100,00 %
16.05.2016 13:51 8,1 C 83 % 1018,8 hPa 0,0 l/m 24,5 km/h (4 Bft) SW 235 0 min 0,000 mm 1,2 UV-I 201 W/m 5,4 C -0,6 C 32,2 km/h (5 Bft) 100,00 %
16.05.2016 13:52 7,9 C 83 % 1018,9 hPa 0,0 l/m 31,8 km/h (5 Bft) SW 214 0 min 0,000 mm 0,9 UV-I 153 W/m 5,2 C -2,7 C 43,5 km/h (6 Bft) 100,00 %
16.05.2016 13:53 7,8 C 84 % 1018,9 hPa 0,2 l/m 25,6 km/h (4 Bft) SW 223 0 min 0,000 mm 0,7 UV-I 114 W/m 5,3 C -1,3 C 35,4 km/h (5 Bft) 100,00 %
16.05.2016 13:54 7,7 C 85 % 1018,9 hPa 0,0 l/m 20,8 km/h (4 Bft) SW 218 0 min 0,000 mm 0,5 UV-I 99 W/m 5,3 C 0,0 C 29,0 km/h (5 Bft) 100,00 %
16.05.2016 13:55 7,6 C 85 % 1019,0 hPa 0,0 l/m 16,3 km/h (3 Bft) SW 219 0 min 0,000 mm 0,5 UV-I 102 W/m 5,2 C 1,6 C 20,9 km/h (4 Bft) 100,00 %
16.05.2016 13:56 7,4 C 85 % 1018,9 hPa 0,0 l/m 15,2 km/h (3 Bft) W 264 0 min 0,000 mm 0,6 UV-I 117 W/m 5,0 C 1,9 C 19,3 km/h (3 Bft) 100,00 %
16.05.2016 13:57 7,3 C 86 % 1019,0 hPa 0,0 l/m 21,3 km/h (4 Bft) W-SW 243 0 min 0,000 mm 0,7 UV-I 138 W/m 5,1 C -0,7 C 32,2 km/h (5 Bft) 100,00 %
16.05.2016 13:58 7,2 C 86 % 1019,0 hPa 0,0 l/m 19,6 km/h (3 Bft) SW 231 0 min 0,000 mm 0,8 UV-I 162 W/m 5,0 C -0,2 C 27,4 km/h (4 Bft) 95,83 %
16.05.2016 13:59 7,1 C 86 % 1019,0 hPa 0,0 l/m 19,2 km/h (3 Bft) SW 229 0 min 0,000 mm 0,9 UV-I 190 W/m 4,9 C -0,2 C 27,4 km/h (4 Bft) 100,00 %
16.05.2016 14:00 7,1 C 87 % 1019,0 hPa 0,0 l/m 20,2 km/h (4 Bft) SW 217 0 min 0,000 mm 1,1 UV-I 206 W/m 5,1 C -0,5 C 25,7 km/h (4 Bft) 100,00 %
16.05.2016 14:02 6,9 C 87 % 1019,0 hPa 0,0 l/m 16,2 km/h (3 Bft) S-SW 193 0 min 0,178 mm 1,2 UV-I 242 W/m 4,9 C 0,8 C 22,5 km/h (4 Bft) 100,00 %
16.05.2016 14:03 6,9 C 87 % 1018,8 hPa 0,2 l/m 18,1 km/h (3 Bft) S-SW 198 0 min 0,000 mm 1,6 UV-I 292 W/m 4,9 C 0,0 C 29,0 km/h (5 Bft) 100,00 %
16.05.2016 14:04 6,9 C 88 % 1018,9 hPa 0,0 l/m 12,7 km/h (3 Bft) SW 236 0 min 0,000 mm 1,8 UV-I 334 W/m 5,1 C 2,6 C 25,7 km/h (4 Bft) 91,67 %
16.05.2016 14:05 6,9 C 89 % 1018,9 hPa 0,0 l/m 17,0 km/h (3 Bft) W-SW 240 0 min 0,000 mm 2,0 UV-I 374 W/m 5,2 C 0,5 C 25,7 km/h (4 Bft) 100,00 %
16.05.2016 14:06 7,0 C 89 % 1018,8 hPa 0,0 l/m 16,3 km/h (3 Bft) SW 229 0 min 0,000 mm 2,2 UV-I 401 W/m 5,3 C 0,9 C 20,9 km/h (4 Bft) 100,00 %
16.05.2016 14:07 7,1 C 88 % 1018,8 hPa 0,0 l/m 12,0 km/h (2 Bft) S 179 0 min 0,000 mm 2,2 UV-I 422 W/m 5,2 C 3,2 C 17,7 km/h (3 Bft) 96,15 %
16.05.2016 14:08 7,1 C 87 % 1018,7 hPa 0,0 l/m 15,6 km/h (3 Bft) SW 234 0 min 0,000 mm 2,3 UV-I 442 W/m 5,1 C 1,3 C 25,7 km/h (4 Bft) 100,00 %
16.05.2016 14:09 7,1 C 87 % 1018,7 hPa 0,0 l/m 10,6 km/h (2 Bft) S-SO 167 0 min 0,000 mm 2,3 UV-I 425 W/m 5,1 C 4,0 C 22,5 km/h (4 Bft) 91,67 %
16.05.2016 14:10 7,2 C 87 % 1018,8 hPa 0,0 l/m 17,9 km/h (3 Bft) SW 215 0 min 0,000 mm 2,2 UV-I 406 W/m 5,2 C 0,5 C 24,1 km/h (4 Bft) 100,00 %
16.05.2016 14:11 7,3 C 87 % 1018,7 hPa 0,0 l/m 16,6 km/h (3 Bft) SW 234 0 min 0,000 mm 2,2 UV-I 390 W/m 5,3 C 1,1 C 24,1 km/h (4 Bft) 95,83 %
16.05.2016 14:12 7,3 C 87 % 1018,7 hPa 0,0 l/m 18,9 km/h (3 Bft) W-SW 257 0 min 0,000 mm 2,2 UV-I 377 W/m 5,3 C 0,2 C 25,7 km/h (4 Bft) 100,00 %
16.05.2016 14:15 7,5 C 85 % 1018,6 hPa 0,0 l/m 17,7 km/h (3 Bft) SW 235 0 min 0,000 mm 2,0 UV-I 314 W/m 5,1 C 0,9 C 25,7 km/h (4 Bft) 97,73 %
16.05.2016 14:16 7,5 C 85 % 1018,7 hPa 0,0 l/m 13,2 km/h (3 Bft) SW 236 0 min 0,000 mm 2,0 UV-I 314 W/m 5,1 C 3,0 C 17,7 km/h (3 Bft) 86,96 %
16.05.2016 14:17 7,6 C 85 % 1018,7 hPa 0,0 l/m 15,1 km/h (3 Bft) W-SW 244 0 min 0,000 mm 2,0 UV-I 330 W/m 5,2 C 2,2 C 20,9 km/h (4 Bft) 100,00 %
16.05.2016 14:18 7,6 C 84 % 1018,7 hPa 0,0 l/m 16,0 km/h (3 Bft) SW 228 0 min 0,000 mm 2,0 UV-I 358 W/m 5,1 C 1,8 C 20,9 km/h (4 Bft) 92,31 %
16.05.2016 14:19 7,7 C 85 % 1018,6 hPa 0,0 l/m 17,6 km/h (3 Bft) SW 235 0 min 0,000 mm 2,2 UV-I 397 W/m 5,3 C 1,2 C 25,7 km/h (4 Bft) 100,00 %
16.05.2016 14:20 7,7 C 85 % 1018,7 hPa 0,0 l/m 16,4 km/h (3 Bft) W-SW 240 0 min 0,000 mm 2,3 UV-I 435 W/m 5,3 C 1,7 C 24,1 km/h (4 Bft) 92,31 %
16.05.2016 14:21 7,8 C 83 % 1018,7 hPa 0,0 l/m 16,3 km/h (3 Bft) W-SW 238 1 min 0,000 mm 2,4 UV-I 462 W/m 5,1 C 1,9 C 22,5 km/h (4 Bft) 96,30 %
16.05.2016 14:22 7,8 C 84 % 1018,6 hPa 0,0 l/m 13,3 km/h (3 Bft) W 262 1 min 0,000 mm 2,4 UV-I 474 W/m 5,3 C 3,3 C 20,9 km/h (4 Bft) 100,00 %
16.05.2016 14:23 8,0 C 85 % 1018,6 hPa 0,0 l/m 12,6 km/h (3 Bft) SW 217 1 min 0,000 mm 2,5 UV-I 495 W/m 5,6 C 3,9 C 20,9 km/h (4 Bft) 95,83 %
16.05.2016 14:24 8,1 C 82 % 1018,6 hPa 0,0 l/m 16,3 km/h (3 Bft) W 259 1 min 0,000 mm 2,5 UV-I 501 W/m 5,2 C 2,3 C 24,1 km/h (4 Bft) 100,00 %
16.05.2016 14:25 8,2 C 83 % 1018,6 hPa 0,0 l/m 16,0 km/h (3 Bft) SW 214 1 min 0,000 mm 2,5 UV-I 498 W/m 5,5 C 2,5 C 24,1 km/h (4 Bft) 95,83 %
16.05.2016 14:26 8,3 C 82 % 1018,6 hPa 0,0 l/m 19,6 km/h (3 Bft) W-SW 250 1 min 0,000 mm 1,2 UV-I 510 W/m 5,4 C 1,2 C 25,7 km/h (4 Bft) 100,00 %
16.05.2016 14:27 8,3 C 81 % 1018,7 hPa 0,0 l/m 17,5 km/h (3 Bft) W 269 1 min 0,000 mm 2,5 UV-I 510 W/m 5,2 C 2,0 C 24,1 km/h (4 Bft) 93,33 %
16.05.2016 14:28 8,3 C 81 % 1018,6 hPa 0,0 l/m 17,2 km/h (3 Bft) W 271 1 min 0,000 mm 2,4 UV-I 479 W/m 5,2 C 2,1 C 25,7 km/h (4 Bft) 100,00 %
16.05.2016 14:29 8,3 C 81 % 1018,6 hPa 0,0 l/m 12,2 km/h (2 Bft) SW 217 1 min 0,000 mm 2,4 UV-I 469 W/m 5,2 C 4,4 C 19,3 km/h (3 Bft) 95,65 %
16.05.2016 14:30 8,4 C 81 % 1018,6 hPa 0,0 l/m 16,7 km/h (3 Bft) SW 236 1 min 0,000 mm 2,4 UV-I 494 W/m 5,3 C 2,5 C 25,7 km/h (4 Bft) 96,67 %
16.05.2016 14:31 8,4 C 82 % 1018,6 hPa 0,0 l/m 17,6 km/h (3 Bft) W 259 1 min 0,000 mm 2,6 UV-I 551 W/m 5,5 C 2,1 C 24,1 km/h (4 Bft) 100,00 %
16.05.2016 14:32 8,6 C 82 % 1018,6 hPa 0,0 l/m 14,6 km/h (3 Bft) W-SW 242 1 min 0,000 mm 2,8 UV-I 591 W/m 5,7 C 3,6 C 22,5 km/h (4 Bft) 96,30 %
16.05.2016 14:33 8,7 C 82 % 1018,6 hPa 0,0 l/m 13,6 km/h (3 Bft) W-SW 244 1 min 0,000 mm 2,7 UV-I 567 W/m 5,8 C 4,2 C 22,5 km/h (4 Bft) 100,00 %
16.05.2016 14:34 8,7 C 81 % 1018,5 hPa 0,0 l/m 16,2 km/h (3 Bft) SW 230 1 min 0,000 mm 2,6 UV-I 550 W/m 5,6 C 3,0 C 24,1 km/h (4 Bft) 96,30 %
16.05.2016 14:35 8,8 C 82 % 1018,5 hPa 0,0 l/m 17,6 km/h (3 Bft) W-SW 247 1 min 0,000 mm 2,7 UV-I 571 W/m 5,9 C 2,6 C 22,5 km/h (4 Bft) 100,00 %
16.05.2016 14:36 8,8 C 80 % 1018,5 hPa 0,0 l/m 17,6 km/h (3 Bft) W 269 1 min 0,000 mm 2,5 UV-I 518 W/m 5,5 C 2,6 C 22,5 km/h (4 Bft) 96,30 %
16.05.2016 14:37 8,8 C 77 % 1018,5 hPa 0,0 l/m 14,1 km/h (3 Bft) W-SW 249 0 min 0,000 mm 2,1 UV-I 402 W/m 5,0 C 4,1 C 19,3 km/h (3 Bft) 95,65 %
16.05.2016 14:38 8,8 C 80 % 1018,5 hPa 0,0 l/m 17,3 km/h (3 Bft) W-SW 238 0 min 0,000 mm 1,6 UV-I 304 W/m 5,5 C 2,7 C 22,5 km/h (4 Bft) 100,00 %
16.05.2016 14:39 8,8 C 80 % 1018,5 hPa 0,0 l/m 13,3 km/h (3 Bft) SW 223 0 min 0,000 mm 1,3 UV-I 253 W/m 5,5 C 4,5 C 20,9 km/h (4 Bft) 100,00 %
16.05.2016 14:40 8,8 C 80 % 1018,5 hPa 0,0 l/m 8,9 km/h (2 Bft) W 269 0 min 0,000 mm 1,0 UV-I 187 W/m 5,5 C 7,0 C 14,5 km/h (3 Bft) 100,00 %
16.05.2016 14:41 8,7 C 81 % 1018,6 hPa 0,0 l/m 4,7 km/h (1 Bft) SW 222 0 min 0,000 mm 0,7 UV-I 135 W/m 5,6 C 8,7 C 11,3 km/h (2 Bft) 100,00 %
16.05.2016 14:42 8,7 C 80 % 1018,5 hPa 0,0 l/m 3,3 km/h (1 Bft) W 259 0 min 0,000 mm 0,2 UV-I 105 W/m 5,4 C 8,7 C 4,8 km/h (1 Bft) 100,00 %
16.05.2016 14:43 8,6 C 80 % 1018,6 hPa 0,0 l/m 5,6 km/h (1 Bft) W-SW 243 0 min 0,000 mm 0,0 UV-I 88 W/m 5,3 C 8,6 C 9,7 km/h (2 Bft) 100,00 %
16.05.2016 14:44 8,4 C 81 % 1018,6 hPa 0,0 l/m 5,4 km/h (1 Bft) W-SW 245 0 min 0,000 mm 0,0 UV-I 79 W/m 5,3 C 8,4 C 8,0 km/h (2 Bft) 96,30 %
16.05.2016 14:45 8,2 C 82 % 1018,6 hPa 0,0 l/m 4,3 km/h (1 Bft) W 281 0 min 0,000 mm 0,0 UV-I 78 W/m 5,3 C 8,2 C 6,4 km/h (2 Bft) 100,00 %
16.05.2016 14:46 8,1 C 83 % 1018,6 hPa 0,0 l/m 4,7 km/h (1 Bft) W 281 0 min 0,000 mm 0,0 UV-I 80 W/m 5,4 C 8,1 C 11,3 km/h (2 Bft) 100,00 %
16.05.2016 14:47 7,9 C 84 % 1018,6 hPa 0,0 l/m 3,4 km/h (1 Bft) W 269 0 min 0,000 mm 0,0 UV-I 83 W/m 5,4 C 7,9 C 4,8 km/h (1 Bft) 100,00 %
16.05.2016 14:48 7,8 C 83 % 1018,6 hPa 0,0 l/m 2,7 km/h (1 Bft) W 261 0 min 0,000 mm 0,0 UV-I 79 W/m 5,1 C 7,8 C 6,4 km/h (2 Bft) 100,00 %
16.05.2016 14:49 7,7 C 84 % 1018,6 hPa 0,0 l/m 3,8 km/h (1 Bft) W 263 0 min 0,000 mm 0,0 UV-I 78 W/m 5,2 C 7,7 C 16,1 km/h (3 Bft) 100,00 %
16.05.2016 14:50 7,7 C 85 % 1018,6 hPa 0,2 l/m 7,9 km/h (2 Bft) W-SW 248 0 min 0,000 mm 0,0 UV-I 86 W/m 5,3 C 6,5 C 16,1 km/h (3 Bft) 100,00 %
16.05.2016 14:51 7,6 C 85 % 1018,6 hPa 0,0 l/m 6,2 km/h (2 Bft) W 259 0 min 0,000 mm 0,2 UV-I 99 W/m 5,2 C 7,6 C 12,9 km/h (3 Bft) 100,00 %
16.05.2016 14:52 7,4 C 87 % 1018,7 hPa 0,4 l/m 8,1 km/h (2 Bft) W-SW 257 0 min 0,000 mm 0,6 UV-I 115 W/m 5,4 C 6,0 C 12,9 km/h (3 Bft) 100,00 %
16.05.2016 14:53 7,3 C 87 % 1018,7 hPa 0,0 l/m 4,0 km/h (1 Bft) W-SW 244 0 min 0,000 mm 0,7 UV-I 144 W/m 5,3 C 7,3 C 6,4 km/h (2 Bft) 100,00 %
16.05.2016 14:54 7,2 C 87 % 1018,6 hPa 0,0 l/m 6,2 km/h (2 Bft) W 260 0 min 0,000 mm 0,9 UV-I 177 W/m 5,2 C 7,2 C 9,7 km/h (2 Bft) 100,00 %
16.05.2016 14:55 7,2 C 88 % 1018,5 hPa 0,0 l/m 6,1 km/h (2 Bft) W-SW 240 0 min 0,000 mm 0,9 UV-I 185 W/m 5,3 C 7,2 C 9,7 km/h (2 Bft) 100,00 %
16.05.2016 14:56 7,2 C 88 % 1018,6 hPa 0,0 l/m 6,4 km/h (2 Bft) W-SW 242 0 min 0,000 mm 0,8 UV-I 170 W/m 5,3 C 7,2 C 8,0 km/h (2 Bft) 100,00 %
16.05.2016 14:57 7,1 C 88 % 1018,5 hPa 0,0 l/m 4,8 km/h (1 Bft) W 275 0 min 0,000 mm 0,8 UV-I 171 W/m 5,2 C 7,1 C 6,4 km/h (2 Bft) 100,00 %
16.05.2016 14:58 7,0 C 88 % 1018,5 hPa 0,0 l/m 4,8 km/h (1 Bft) SW 226 0 min 0,000 mm 0,9 UV-I 178 W/m 5,2 C 7,0 C 8,0 km/h (2 Bft) 100,00 %
16.05.2016 14:59 6,9 C 89 % 1018,5 hPa 0,0 l/m 3,6 km/h (1 Bft) W-NW 297 0 min 0,000 mm 1,0 UV-I 189 W/m 5,2 C 6,9 C 4,8 km/h (1 Bft) 100,00 %
16.05.2016 15:00 6,9 C 89 % 1018,5 hPa 0,0 l/m 4,7 km/h (1 Bft) W-SW 252 0 min 0,000 mm 1,0 UV-I 202 W/m 5,2 C 6,9 C 6,4 km/h (2 Bft) 91,67 %
16.05.2016 15:02 7,0 C 90 % 1018,5 hPa 0,0 l/m 3,3 km/h (1 Bft) W 263 0 min 0,152 mm 1,0 UV-I 199 W/m 5,5 C 7,0 C 6,4 km/h (2 Bft) 100,00 %
16.05.2016 15:03 7,0 C 90 % 1018,5 hPa 0,0 l/m 7,4 km/h (2 Bft) W-SW 255 0 min 0,000 mm 0,9 UV-I 188 W/m 5,5 C 6,2 C 12,9 km/h (3 Bft) 100,00 %
16.05.2016 15:04 7,0 C 90 % 1018,5 hPa 0,0 l/m 5,5 km/h (1 Bft) W-SW 245 0 min 0,000 mm 0,9 UV-I 190 W/m 5,5 C 7,0 C 11,3 km/h (2 Bft) 100,00 %
16.05.2016 15:05 7,1 C 91 % 1018,5 hPa 0,0 l/m 6,9 km/h (2 Bft) W-NW 283 0 min 0,000 mm 0,9 UV-I 197 W/m 5,7 C 6,7 C 11,3 km/h (2 Bft) 100,00 %
16.05.2016 15:06 7,0 C 90 % 1018,4 hPa 0,0 l/m 6,6 km/h (2 Bft) W-SW 245 0 min 0,000 mm 1,0 UV-I 214 W/m 5,5 C 6,9 C 12,9 km/h (3 Bft) 100,00 %
16.05.2016 15:07 7,1 C 89 % 1018,4 hPa 0,0 l/m 3,4 km/h (1 Bft) W 259 0 min 0,000 mm 1,1 UV-I 244 W/m 5,4 C 7,1 C 4,8 km/h (1 Bft) 100,00 %
16.05.2016 15:08 7,1 C 90 % 1018,4 hPa 0,0 l/m 3,8 km/h (1 Bft) W-SW 252 0 min 0,000 mm 1,2 UV-I 272 W/m 5,6 C 7,1 C 4,8 km/h (1 Bft) 100,00 %
16.05.2016 15:09 7,2 C 91 % 1018,3 hPa 0,2 l/m 2,0 km/h (1 Bft) W-SW 252 0 min 0,000 mm 1,3 UV-I 294 W/m 5,8 C 7,2 C 3,2 km/h (1 Bft) 95,83 %
16.05.2016 15:10 7,3 C 91 % 1018,4 hPa 0,0 l/m 1,0 km/h (0 Bft) W-SW 252 0 min 0,000 mm 1,4 UV-I 306 W/m 5,9 C 7,3 C 1,6 km/h (1 Bft) 100,00 %
16.05.2016 15:11 7,3 C 90 % 1018,3 hPa 0,0 l/m 1,8 km/h (1 Bft) SW 232 0 min 0,000 mm 1,5 UV-I 313 W/m 5,8 C 7,3 C 4,8 km/h (1 Bft) 100,00 %
16.05.2016 15:12 7,3 C 90 % 1018,3 hPa 0,0 l/m 4,3 km/h (1 Bft) W-SW 253 0 min 0,000 mm 1,6 UV-I 352 W/m 5,8 C 7,3 C 6,4 km/h (2 Bft) 100,00 %
16.05.2016 15:13 7,4 C 90 % 1018,3 hPa 0,0 l/m 5,1 km/h (1 Bft) W-SW 249 0 min 0,000 mm 1,8 UV-I 388 W/m 5,9 C 7,4 C 6,4 km/h (2 Bft) 100,00 %
16.05.2016 15:14 7,7 C 91 % 1018,3 hPa 0,0 l/m 3,9 km/h (1 Bft) W-SW 248 1 min 0,000 mm 2,0 UV-I 443 W/m 6,3 C 7,7 C 4,8 km/h (1 Bft) 93,33 %
16.05.2016 15:15 7,8 C 92 % 1018,2 hPa 0,0 l/m 4,2 km/h (1 Bft) W 271 1 min 0,000 mm 2,1 UV-I 444 W/m 6,6 C 7,8 C 6,4 km/h (2 Bft) 95,65 %
16.05.2016 15:16 8,0 C 92 % 1018,2 hPa 0,0 l/m 1,6 km/h (1 Bft) W-SW 256 1 min 0,000 mm 2,2 UV-I 442 W/m 6,8 C 8,0 C 4,8 km/h (1 Bft) 100,00 %
16.05.2016 15:17 8,1 C 92 % 1018,2 hPa 0,0 l/m 2,1 km/h (1 Bft) SW 235 1 min 0,000 mm 2,1 UV-I 448 W/m 6,9 C 8,1 C 4,8 km/h (1 Bft) 100,00 %
16.05.2016 15:18 8,2 C 91 % 1018,2 hPa 0,0 l/m 4,7 km/h (1 Bft) SW 215 1 min 0,000 mm 1,9 UV-I 430 W/m 6,8 C 8,2 C 8,0 km/h (2 Bft) 100,00 %
16.05.2016 15:19 8,2 C 88 % 1018,1 hPa 0,0 l/m 7,0 km/h (2 Bft) W 278 0 min 0,000 mm 1,9 UV-I 352 W/m 6,3 C 7,7 C 12,9 km/h (3 Bft) 100,00 %
16.05.2016 15:20 8,2 C 90 % 1018,2 hPa 0,0 l/m 8,7 km/h (2 Bft) SW 223 0 min 0,000 mm 1,9 UV-I 339 W/m 6,7 C 6,5 C 11,3 km/h (2 Bft) 100,00 %
16.05.2016 15:21 8,3 C 87 % 1018,1 hPa 0,0 l/m 5,8 km/h (2 Bft) S-SW 203 0 min 0,000 mm 1,9 UV-I 339 W/m 6,3 C 8,3 C 8,0 km/h (2 Bft) 96,15 %
16.05.2016 15:22 8,3 C 88 % 1018,1 hPa 0,0 l/m 6,3 km/h (2 Bft) SW 226 0 min 0,000 mm 2,2 UV-I 339 W/m 6,4 C 8,3 C 9,7 km/h (2 Bft) 100,00 %
16.05.2016 15:23 8,3 C 88 % 1018,1 hPa 0,0 l/m 5,9 km/h (2 Bft) W-SW 250 0 min 0,000 mm 2,5 UV-I 352 W/m 6,4 C 8,3 C 9,7 km/h (2 Bft) 100,00 %
16.05.2016 15:24 8,5 C 89 % 1018,0 hPa 0,0 l/m 1,7 km/h (1 Bft) W 274 1 min 0,000 mm 2,8 UV-I 599 W/m 6,8 C 8,5 C 3,2 km/h (1 Bft) 100,00 %
16.05.2016 15:25 8,7 C 91 % 1018,0 hPa 0,0 l/m 3,3 km/h (1 Bft) W-SW 258 1 min 0,000 mm 2,7 UV-I 643 W/m 7,3 C 8,7 C 4,8 km/h (1 Bft) 100,00 %
16.05.2016 15:26 8,9 C 91 % 1018,0 hPa 0,0 l/m 2,5 km/h (1 Bft) W-SW 257 1 min 0,000 mm 2,6 UV-I 717 W/m 7,5 C 8,9 C 4,8 km/h (1 Bft) 95,65 %
16.05.2016 15:27 9,0 C 88 % 1018,0 hPa 0,0 l/m 9,7 km/h (2 Bft) W 270 1 min 0,000 mm 2,3 UV-I 649 W/m 7,1 C 6,7 C 12,9 km/h (3 Bft) 100,00 %
16.05.2016 15:28 9,0 C 86 % 1018,0 hPa 0,0 l/m 6,8 km/h (2 Bft) W-NW 283 1 min 0,000 mm 2,0 UV-I 619 W/m 6,8 C 8,7 C 11,3 km/h (2 Bft) 100,00 %
16.05.2016 15:29 8,9 C 83 % 1017,9 hPa 0,0 l/m 3,4 km/h (1 Bft) SW 232 1 min 0,000 mm 2,2 UV-I 619 W/m 6,2 C 8,9 C 4,8 km/h (1 Bft) 100,00 %
16.05.2016 15:30 8,8 C 84 % 1017,9 hPa 0,0 l/m 5,9 km/h (2 Bft) W-NW 284 1 min 0,000 mm 2,2 UV-I 640 W/m 6,2 C 8,8 C 9,7 km/h (2 Bft) 100,00 %
16.05.2016 15:31 8,8 C 85 % 1017,9 hPa 0,0 l/m 5,4 km/h (1 Bft) W-SW 252 1 min 0,000 mm 1,9 UV-I 560 W/m 6,4 C 8,8 C 9,7 km/h (2 Bft) 93,33 %
16.05.2016 15:32 8,8 C 86 % 1018,0 hPa 0,0 l/m 8,9 km/h (2 Bft) W-NW 284 0 min 0,000 mm 2,1 UV-I 367 W/m 6,6 C 7,0 C 14,5 km/h (3 Bft) 100,00 %
16.05.2016 15:33 8,8 C 86 % 1018,0 hPa 0,0 l/m 4,1 km/h (1 Bft) W-SW 242 0 min 0,000 mm 1,9 UV-I 386 W/m 6,6 C 8,8 C 9,7 km/h (2 Bft) 96,67 %
16.05.2016 15:34 8,8 C 86 % 1018,0 hPa 0,0 l/m 5,2 km/h (1 Bft) W-SW 256 0 min 0,000 mm 1,8 UV-I 362 W/m 6,6 C 8,8 C 8,0 km/h (2 Bft) 100,00 %
16.05.2016 15:35 8,8 C 86 % 1017,9 hPa 0,0 l/m 3,6 km/h (1 Bft) S-SW 193 0 min 0,000 mm 1,5 UV-I 273 W/m 6,6 C 8,8 C 4,8 km/h (1 Bft) 100,00 %
16.05.2016 15:36 8,9 C 86 % 1017,9 hPa 0,0 l/m 9,3 km/h (2 Bft) W-SW 245 0 min 0,000 mm 1,4 UV-I 243 W/m 6,7 C 6,8 C 14,5 km/h (3 Bft) 100,00 %
16.05.2016 15:37 8,9 C 86 % 1017,9 hPa 0,0 l/m 8,4 km/h (2 Bft) W 262 0 min 0,000 mm 1,5 UV-I 287 W/m 6,7 C 7,4 C 12,9 km/h (3 Bft) 95,83 %
16.05.2016 15:38 9,0 C 88 % 1017,9 hPa 0,0 l/m 5,3 km/h (1 Bft) W-NW 283 0 min 0,000 mm 1,7 UV-I 332 W/m 7,1 C 9,0 C 9,7 km/h (2 Bft) 100,00 %
16.05.2016 15:39 9,0 C 87 % 1017,9 hPa 0,0 l/m 7,4 km/h (2 Bft) SW 219 0 min 0,000 mm 1,5 UV-I 325 W/m 7,0 C 8,2 C 12,9 km/h (3 Bft) 100,00 %
16.05.2016 15:40 9,0 C 87 % 1017,9 hPa 0,0 l/m 9,0 km/h (2 Bft) SW 215 0 min 0,000 mm 1,5 UV-I 324 W/m 7,0 C 7,1 C 12,9 km/h (3 Bft) 100,00 %
16.05.2016 15:41 9,1 C 86 % 1017,9 hPa 0,0 l/m 7,2 km/h (2 Bft) W-SW 241 0 min 0,000 mm 1,7 UV-I 339 W/m 6,9 C 8,5 C 16,1 km/h (3 Bft) 100,00 %
16.05.2016 15:42 9,1 C 86 % 1017,8 hPa 0,0 l/m 9,7 km/h (2 Bft) W-SW 257 1 min 0,000 mm 1,7 UV-I 434 W/m 6,9 C 6,8 C 16,1 km/h (3 Bft) 100,00 %
16.05.2016 15:43 9,1 C 85 % 1017,8 hPa 0,0 l/m 13,4 km/h (3 Bft) SW 232 1 min 0,000 mm 2,0 UV-I 491 W/m 6,7 C 4,8 C 19,3 km/h (3 Bft) 100,00 %
16.05.2016 15:44 9,1 C 85 % 1017,8 hPa 0,0 l/m 12,5 km/h (3 Bft) W-SW 243 1 min 0,000 mm 2,0 UV-I 527 W/m 6,7 C 5,2 C 17,7 km/h (3 Bft) 100,00 %
16.05.2016 15:45 9,1 C 85 % 1017,8 hPa 0,0 l/m 12,6 km/h (3 Bft) W-SW 243 1 min 0,000 mm 1,9 UV-I 479 W/m 6,7 C 5,2 C 19,3 km/h (3 Bft) 100,00 %
16.05.2016 15:46 9,1 C 84 % 1017,7 hPa 0,0 l/m 9,3 km/h (2 Bft) SW 234 1 min 0,000 mm 1,9 UV-I 450 W/m 6,5 C 7,0 C 14,5 km/h (3 Bft) 100,00 %
16.05.2016 15:47 9,1 C 83 % 1017,7 hPa 0,0 l/m 11,7 km/h (2 Bft) SW 232 1 min 0,000 mm 1,8 UV-I 400 W/m 6,4 C 5,6 C 14,5 km/h (3 Bft) 100,00 %
16.05.2016 15:48 9,1 C 83 % 1017,7 hPa 0,0 l/m 9,8 km/h (2 Bft) SW 223 0 min 0,000 mm 1,7 UV-I 347 W/m 6,4 C 6,7 C 12,9 km/h (3 Bft) 100,00 %
16.05.2016 15:49 9,1 C 83 % 1017,7 hPa 0,0 l/m 6,2 km/h (2 Bft) SW 220 0 min 0,000 mm 1,4 UV-I 271 W/m 6,4 C 9,1 C 8,0 km/h (2 Bft) 96,55 %
16.05.2016 15:50 9,1 C 85 % 1017,7 hPa 0,0 l/m 7,8 km/h (2 Bft) W-SW 250 0 min 0,000 mm 1,3 UV-I 251 W/m 6,7 C 8,1 C 11,3 km/h (2 Bft) 100,00 %
16.05.2016 15:51 9,1 C 85 % 1017,7 hPa 0,0 l/m 9,0 km/h (2 Bft) W-SW 237 0 min 0,000 mm 1,3 UV-I 260 W/m 6,7 C 7,2 C 14,5 km/h (3 Bft) 100,00 %
16.05.2016 15:52 9,1 C 84 % 1017,7 hPa 0,0 l/m 12,6 km/h (3 Bft) W-SW 240 0 min 0,000 mm 1,4 UV-I 303 W/m 6,5 C 5,2 C 16,1 km/h (3 Bft) 100,00 %
16.05.2016 15:53 9,1 C 83 % 1017,7 hPa 0,0 l/m 7,2 km/h (2 Bft) W 279 0 min 0,000 mm 1,4 UV-I 323 W/m 6,4 C 8,5 C 9,7 km/h (2 Bft) 100,00 %
16.05.2016 15:54 9,1 C 83 % 1017,6 hPa 0,0 l/m 12,0 km/h (2 Bft) SW 227 0 min 0,000 mm 1,4 UV-I 295 W/m 6,4 C 5,5 C 17,7 km/h (3 Bft) 100,00 %
16.05.2016 15:55 9,1 C 83 % 1017,6 hPa 0,0 l/m 8,0 km/h (2 Bft) SW 230 0 min 0,000 mm 1,3 UV-I 277 W/m 6,4 C 7,9 C 11,3 km/h (2 Bft) 100,00 %
16.05.2016 15:56 9,2 C 84 % 1017,6 hPa 0,0 l/m 6,6 km/h (2 Bft) W 261 0 min 0,000 mm 1,2 UV-I 310 W/m 6,6 C 9,1 C 9,7 km/h (2 Bft) 100,00 %
16.05.2016 15:57 9,2 C 83 % 1017,6 hPa 0,0 l/m 14,7 km/h (3 Bft) S-SW 213 0 min 0,000 mm 1,5 UV-I 336 W/m 6,5 C 4,3 C 17,7 km/h (3 Bft) 100,00 %
16.05.2016 15:58 9,2 C 83 % 1017,5 hPa 0,0 l/m 14,2 km/h (3 Bft) SW 232 0 min 0,000 mm 1,6 UV-I 336 W/m 6,5 C 4,5 C 17,7 km/h (3 Bft) 100,00 %
16.05.2016 15:59 9,2 C 83 % 1017,5 hPa 0,0 l/m 10,9 km/h (2 Bft) W-SW 244 1 min 0,000 mm 1,5 UV-I 381 W/m 6,5 C 6,2 C 14,5 km/h (3 Bft) 96,15 %
16.05.2016 16:00 9,2 C 83 % 1017,5 hPa 0,0 l/m 12,0 km/h (2 Bft) S 184 0 min 0,178 mm 1,4 UV-I 347 W/m 6,5 C 5,6 C 16,1 km/h (3 Bft) 100,00 %
16.05.2016 16:02 9,3 C 84 % 1017,5 hPa 0,0 l/m 10,8 km/h (2 Bft) W-SW 238 2 min 0,000 mm 1,6 UV-I 415 W/m 6,7 C 6,4 C 17,7 km/h (3 Bft) 96,55 %
16.05.2016 16:03 9,3 C 84 % 1017,5 hPa 0,0 l/m 11,1 km/h (2 Bft) SW 235 1 min 0,000 mm 1,6 UV-I 475 W/m 6,7 C 6,2 C 16,1 km/h (3 Bft) 97,37 %
16.05.2016 16:04 9,4 C 82 % 1017,5 hPa 0,0 l/m 10,9 km/h (2 Bft) S-SW 200 1 min 0,000 mm 1,6 UV-I 470 W/m 6,5 C 6,4 C 17,7 km/h (3 Bft) 91,67 %
16.05.2016 16:05 9,4 C 81 % 1017,5 hPa 0,0 l/m 17,5 km/h (3 Bft) SW 223 1 min 0,000 mm 1,4 UV-I 462 W/m 6,3 C 3,4 C 22,5 km/h (4 Bft) 100,00 %
16.05.2016 16:06 9,4 C 81 % 1017,5 hPa 0,0 l/m 10,8 km/h (2 Bft) W 272 0 min 0,000 mm 1,4 UV-I 364 W/m 6,3 C 6,5 C 16,1 km/h (3 Bft) 96,55 %
16.05.2016 16:07 9,4 C 81 % 1017,5 hPa 0,0 l/m 8,0 km/h (2 Bft) S-SW 198 1 min 0,000 mm 1,5 UV-I 383 W/m 6,3 C 8,2 C 14,5 km/h (3 Bft) 95,83 %
16.05.2016 16:08 9,5 C 82 % 1017,5 hPa 0,0 l/m 12,3 km/h (3 Bft) W 263 0 min 0,000 mm 1,4 UV-I 364 W/m 6,6 C 5,8 C 17,7 km/h (3 Bft) 95,65 %
16.05.2016 16:09 9,5 C 82 % 1017,5 hPa 0,0 l/m 12,0 km/h (2 Bft) SW 218 0 min 0,000 mm 1,4 UV-I 338 W/m 6,6 C 5,9 C 14,5 km/h (3 Bft) 95,83 %
16.05.2016 16:10 9,6 C 83 % 1017,5 hPa 0,0 l/m 11,0 km/h (2 Bft) SW 217 0 min 0,000 mm 1,4 UV-I 340 W/m 6,9 C 6,6 C 17,7 km/h (3 Bft) 100,00 %
16.05.2016 16:11 9,6 C 83 % 1017,5 hPa 0,0 l/m 13,2 km/h (3 Bft) SW 232 0 min 0,000 mm 1,4 UV-I 363 W/m 6,9 C 5,5 C 19,3 km/h (3 Bft) 91,67 %
16.05.2016 16:12 9,6 C 81 % 1017,5 hPa 0,0 l/m 16,1 km/h (3 Bft) W-SW 246 0 min 0,000 mm 1,2 UV-I 268 W/m 6,5 C 4,2 C 20,9 km/h (4 Bft) 100,00 %
16.05.2016 16:13 9,6 C 82 % 1017,5 hPa 0,0 l/m 11,3 km/h (2 Bft) SW 227 0 min 0,000 mm 1,1 UV-I 216 W/m 6,7 C 6,4 C 17,7 km/h (3 Bft) 96,30 %
16.05.2016 16:14 9,6 C 82 % 1017,5 hPa 0,0 l/m 15,6 km/h (3 Bft) SW 219 0 min 0,000 mm 0,9 UV-I 189 W/m 6,7 C 4,4 C 24,1 km/h (4 Bft) 96,15 %
16.05.2016 16:15 9,6 C 80 % 1017,5 hPa 0,0 l/m 15,4 km/h (3 Bft) W 272 0 min 0,000 mm 0,8 UV-I 180 W/m 6,3 C 4,5 C 20,9 km/h (4 Bft) 100,00 %
16.05.2016 16:16 9,6 C 80 % 1017,4 hPa 0,0 l/m 16,7 km/h (3 Bft) SW 231 0 min 0,000 mm 0,8 UV-I 173 W/m 6,3 C 4,0 C 24,1 km/h (4 Bft) 95,65 %
16.05.2016 16:17 9,6 C 78 % 1017,4 hPa 0,0 l/m 10,8 km/h (2 Bft) W-SW 255 0 min 0,000 mm 0,7 UV-I 165 W/m 6,0 C 6,7 C 16,1 km/h (3 Bft) 100,00 %
16.05.2016 16:18 9,6 C 78 % 1017,4 hPa 0,0 l/m 12,7 km/h (3 Bft) W-SW 254 0 min 0,000 mm 0,7 UV-I 179 W/m 6,0 C 5,7 C 17,7 km/h (3 Bft) 96,55 %
16.05.2016 16:19 9,5 C 78 % 1017,4 hPa 0,0 l/m 15,4 km/h (3 Bft) W-SW 256 0 min 0,000 mm 0,8 UV-I 203 W/m 5,9 C 4,4 C 20,9 km/h (4 Bft) 100,00 %
16.05.2016 16:20 9,5 C 79 % 1017,4 hPa 0,0 l/m 16,5 km/h (3 Bft) SW 225 0 min 0,000 mm 0,9 UV-I 234 W/m 6,0 C 3,9 C 24,1 km/h (4 Bft) 95,65 %
16.05.2016 16:21 9,4 C 78 % 1017,4 hPa 0,0 l/m 22,6 km/h (4 Bft) S 190 0 min 0,000 mm 1,0 UV-I 266 W/m 5,8 C 1,7 C 27,4 km/h (4 Bft) 100,00 %
16.05.2016 16:22 9,5 C 77 % 1017,4 hPa 0,0 l/m 15,2 km/h (3 Bft) W-SW 258 0 min 0,000 mm 1,1 UV-I 288 W/m 5,7 C 4,4 C 20,9 km/h (4 Bft) 96,15 %
16.05.2016 16:23 9,4 C 77 % 1017,4 hPa 0,0 l/m 18,6 km/h (3 Bft) SW 227 0 min 0,000 mm 1,1 UV-I 301 W/m 5,6 C 3,0 C 24,1 km/h (4 Bft) 95,83 %
16.05.2016 16:24 9,4 C 76 % 1017,3 hPa 0,0 l/m 14,1 km/h (3 Bft) W-SW 246 0 min 0,000 mm 1,1 UV-I 294 W/m 5,4 C 4,8 C 19,3 km/h (3 Bft) 100,00 %
16.05.2016 16:25 9,5 C 77 % 1017,4 hPa 0,0 l/m 22,8 km/h (4 Bft) SW 225 0 min 0,000 mm 1,0 UV-I 272 W/m 5,7 C 1,8 C 29,0 km/h (5 Bft) 94,44 %
16.05.2016 16:26 9,5 C 75 % 1017,3 hPa 0,0 l/m 18,7 km/h (3 Bft) W-SW 248 0 min 0,000 mm 1,0 UV-I 285 W/m 5,3 C 3,1 C 29,0 km/h (5 Bft) 96,67 %
16.05.2016 16:27 9,5 C 76 % 1017,3 hPa 0,0 l/m 20,7 km/h (4 Bft) W 265 0 min 0,000 mm 1,0 UV-I 274 W/m 5,5 C 2,4 C 29,0 km/h (5 Bft) 92,86 %
16.05.2016 16:28 9,5 C 77 % 1017,3 hPa 0,0 l/m 18,1 km/h (3 Bft) W-SW 254 0 min 0,000 mm 1,0 UV-I 271 W/m 5,7 C 3,3 C 24,1 km/h (4 Bft) 100,00 %
16.05.2016 16:29 9,5 C 76 % 1017,4 hPa 0,0 l/m 18,0 km/h (3 Bft) SW 234 0 min 0,000 mm 0,9 UV-I 263 W/m 5,5 C 3,3 C 25,7 km/h (4 Bft) 92,86 %
16.05.2016 16:30 9,4 C 76 % 1017,3 hPa 0,0 l/m 17,3 km/h (3 Bft) W 264 0 min 0,000 mm 0,9 UV-I 263 W/m 5,4 C 3,5 C 27,4 km/h (4 Bft) 100,00 %
16.05.2016 16:31 9,4 C 76 % 1017,3 hPa 0,0 l/m 14,6 km/h (3 Bft) W 271 0 min 0,000 mm 0,9 UV-I 313 W/m 5,4 C 4,6 C 20,9 km/h (4 Bft) 96,15 %
16.05.2016 16:32 9,4 C 77 % 1017,4 hPa 0,0 l/m 10,1 km/h (2 Bft) W-SW 238 0 min 0,000 mm 1,0 UV-I 330 W/m 5,6 C 6,9 C 12,9 km/h (3 Bft) 100,00 %
16.05.2016 16:33 9,5 C 79 % 1017,4 hPa 0,0 l/m 11,3 km/h (2 Bft) W 263 0 min 0,000 mm 1,1 UV-I 323 W/m 6,0 C 6,3 C 16,1 km/h (3 Bft) 96,55 %
16.05.2016 16:34 9,6 C 80 % 1017,3 hPa 0,0 l/m 8,9 km/h (2 Bft) S-SW 200 0 min 0,000 mm 1,0 UV-I 323 W/m 6,3 C 7,8 C 12,9 km/h (3 Bft) 100,00 %
16.05.2016 16:35 9,6 C 80 % 1017,3 hPa 0,0 l/m 11,8 km/h (2 Bft) SW 219 1 min 0,000 mm 1,1 UV-I 386 W/m 6,3 C 6,2 C 17,7 km/h (3 Bft) 100,00 %
16.05.2016 16:36 9,7 C 79 % 1017,3 hPa 0,0 l/m 18,9 km/h (3 Bft) W-SW 244 1 min 0,000 mm 1,1 UV-I 364 W/m 6,2 C 3,3 C 24,1 km/h (4 Bft) 100,00 %
16.05.2016 16:37 9,7 C 79 % 1017,3 hPa 0,0 l/m 12,5 km/h (3 Bft) W 260 1 min 0,000 mm 1,2 UV-I 374 W/m 6,2 C 5,9 C 19,3 km/h (3 Bft) 100,00 %
16.05.2016 16:38 9,8 C 79 % 1017,3 hPa 0,0 l/m 13,4 km/h (3 Bft) S-SW 213 1 min 0,000 mm 1,2 UV-I 355 W/m 6,3 C 5,6 C 17,7 km/h (3 Bft) 96,15 %
16.05.2016 16:39 9,8 C 78 % 1017,3 hPa 0,0 l/m 10,2 km/h (2 Bft) W-SW 252 1 min 0,000 mm 1,2 UV-I 377 W/m 6,1 C 7,3 C 14,5 km/h (3 Bft) 100,00 %
16.05.2016 16:40 9,8 C 77 % 1017,3 hPa 0,0 l/m 15,9 km/h (3 Bft) SW 226 1 min 0,000 mm 1,2 UV-I 372 W/m 6,0 C 4,5 C 22,5 km/h (4 Bft) 100,00 %
16.05.2016 16:41 9,8 C 76 % 1017,3 hPa 0,0 l/m 13,9 km/h (3 Bft) W-SW 257 0 min 0,000 mm 1,2 UV-I 306 W/m 5,8 C 5,4 C 20,9 km/h (4 Bft) 96,15 %
16.05.2016 16:42 9,7 C 76 % 1017,3 hPa 0,0 l/m 16,4 km/h (3 Bft) W 262 0 min 0,000 mm 1,1 UV-I 278 W/m 5,7 C 4,2 C 22,5 km/h (4 Bft) 100,00 %
16.05.2016 16:43 9,7 C 76 % 1017,3 hPa 0,0 l/m 15,3 km/h (3 Bft) W 259 0 min 0,000 mm 1,1 UV-I 269 W/m 5,7 C 4,6 C 22,5 km/h (4 Bft) 100,00 %
16.05.2016 16:44 9,6 C 76 % 1017,3 hPa 0,0 l/m 18,4 km/h (3 Bft) W 272 0 min 0,000 mm 1,1 UV-I 276 W/m 5,6 C 3,3 C 27,4 km/h (4 Bft) 100,00 %
16.05.2016 16:45 9,6 C 76 % 1017,3 hPa 0,0 l/m 13,9 km/h (3 Bft) W-SW 248 0 min 0,000 mm 1,1 UV-I 288 W/m 5,6 C 5,1 C 22,5 km/h (4 Bft) 100,00 %
16.05.2016 16:46 9,6 C 78 % 1017,3 hPa 0,0 l/m 12,3 km/h (3 Bft) S-SW 205 0 min 0,000 mm 1,1 UV-I 312 W/m 6,0 C 5,9 C 16,1 km/h (3 Bft) 100,00 %
16.05.2016 16:47 9,5 C 78 % 1017,3 hPa 0,0 l/m 12,2 km/h (2 Bft) SW 236 1 min 0,000 mm 1,1 UV-I 340 W/m 5,9 C 5,8 C 19,3 km/h (3 Bft) 100,00 %
16.05.2016 16:48 9,4 C 78 % 1017,3 hPa 0,0 l/m 18,3 km/h (3 Bft) W-SW 239 1 min 0,000 mm 1,1 UV-I 345 W/m 5,8 C 3,1 C 24,1 km/h (4 Bft) 89,47 %
16.05.2016 16:49 9,3 C 79 % 1017,3 hPa 0,0 l/m 14,6 km/h (3 Bft) W-SW 254 1 min 0,000 mm 1,1 UV-I 345 W/m 5,8 C 4,5 C 22,5 km/h (4 Bft) 100,00 %
16.05.2016 16:50 9,3 C 80 % 1017,3 hPa 0,0 l/m 10,1 km/h (2 Bft) S-SW 211 1 min 0,000 mm 1,1 UV-I 397 W/m 6,0 C 6,8 C 14,5 km/h (3 Bft) 100,00 %
16.05.2016 16:51 9,4 C 79 % 1017,3 hPa 0,0 l/m 14,8 km/h (3 Bft) W-SW 253 1 min 0,000 mm 1,1 UV-I 368 W/m 5,9 C 4,5 C 20,9 km/h (4 Bft) 94,44 %
16.05.2016 16:52 9,4 C 79 % 1017,3 hPa 0,0 l/m 12,3 km/h (3 Bft) SW 221 1 min 0,000 mm 1,1 UV-I 362 W/m 5,9 C 5,7 C 16,1 km/h (3 Bft) 100,00 %
16.05.2016 16:53 9,4 C 79 % 1017,3 hPa 0,0 l/m 9,0 km/h (2 Bft) W-SW 244 1 min 0,000 mm 1,1 UV-I 382 W/m 5,9 C 7,6 C 14,5 km/h (3 Bft) 100,00 %
16.05.2016 16:54 9,5 C 79 % 1017,3 hPa 0,0 l/m 12,2 km/h (2 Bft) W-SW 248 1 min 0,000 mm 1,1 UV-I 337 W/m 6,0 C 5,8 C 17,7 km/h (3 Bft) 96,15 %
16.05.2016 16:55 9,5 C 80 % 1017,4 hPa 0,0 l/m 7,8 km/h (2 Bft) S-SW 195 0 min 0,000 mm 1,0 UV-I 289 W/m 6,2 C 8,5 C 12,9 km/h (3 Bft) 100,00 %
16.05.2016 16:56 9,6 C 80 % 1017,3 hPa 0,0 l/m 8,5 km/h (2 Bft) W-SW 238 0 min 0,000 mm 1,0 UV-I 287 W/m 6,3 C 8,1 C 12,9 km/h (3 Bft) 100,00 %
16.05.2016 16:57 9,6 C 78 % 1017,4 hPa 0,0 l/m 11,8 km/h (2 Bft) W-SW 246 0 min 0,000 mm 0,9 UV-I 285 W/m 6,0 C 6,2 C 20,9 km/h (4 Bft) 95,83 %
16.05.2016 16:58 9,6 C 78 % 1017,3 hPa 0,0 l/m 12,0 km/h (2 Bft) SW 235 0 min 0,000 mm 0,8 UV-I 225 W/m 6,0 C 6,1 C 17,7 km/h (3 Bft) 100,00 %
16.05.2016 16:59 9,5 C 78 % 1017,3 hPa 0,0 l/m 14,0 km/h (3 Bft) SW 227 0 min 0,000 mm 0,7 UV-I 199 W/m 5,9 C 5,0 C 17,7 km/h (3 Bft) 100,00 %
16.05.2016 17:00 9,5 C 78 % 1017,3 hPa 0,0 l/m 14,4 km/h (3 Bft) W 271 0 min 0,000 mm 0,7 UV-I 172 W/m 5,9 C 4,8 C 16,1 km/h (3 Bft) 100,00 %
16.05.2016 17:02 9,4 C 78 % 1017,3 hPa 0,0 l/m 15,5 km/h (3 Bft) SW 234 0 min 0,178 mm 0,4 UV-I 139 W/m 5,8 C 4,2 C 25,7 km/h (4 Bft) 98,21 %
16.05.2016 17:03 9,4 C 77 % 1017,3 hPa 0,0 l/m 10,1 km/h (2 Bft) SW 216 0 min 0,000 mm 0,0 UV-I 131 W/m 5,6 C 6,9 C 14,5 km/h (3 Bft) 100,00 %
16.05.2016 17:04 9,4 C 77 % 1017,3 hPa 0,0 l/m 14,6 km/h (3 Bft) W-SW 244 0 min 0,000 mm 0,0 UV-I 148 W/m 5,6 C 4,6 C 20,9 km/h (4 Bft) 100,00 %
16.05.2016 17:05 9,4 C 77 % 1017,3 hPa 0,0 l/m 13,7 km/h (3 Bft) W-SW 239 0 min 0,000 mm 0,5 UV-I 171 W/m 5,6 C 5,0 C 20,9 km/h (4 Bft) 100,00 %
16.05.2016 17:06 9,4 C 76 % 1017,2 hPa 0,0 l/m 14,3 km/h (3 Bft) SW 234 0 min 0,000 mm 0,5 UV-I 192 W/m 5,4 C 4,7 C 22,5 km/h (4 Bft) 100,00 %
16.05.2016 17:07 9,4 C 75 % 1017,2 hPa 0,0 l/m 15,8 km/h (3 Bft) W 277 0 min 0,000 mm 0,6 UV-I 194 W/m 5,2 C 4,1 C 22,5 km/h (4 Bft) 100,00 %
16.05.2016 17:08 9,4 C 76 % 1017,2 hPa 0,0 l/m 17,5 km/h (3 Bft) W 260 0 min 0,000 mm 0,5 UV-I 177 W/m 5,4 C 3,4 C 20,9 km/h (4 Bft) 100,00 %
16.05.2016 17:09 9,4 C 77 % 1017,2 hPa 0,0 l/m 9,7 km/h (2 Bft) W-NW 287 0 min 0,000 mm 0,5 UV-I 172 W/m 5,6 C 7,1 C 12,9 km/h (3 Bft) 100,00 %
16.05.2016 17:10 9,4 C 77 % 1017,2 hPa 0,0 l/m 11,2 km/h (2 Bft) W 275 0 min 0,000 mm 0,0 UV-I 148 W/m 5,6 C 6,2 C 20,9 km/h (4 Bft) 100,00 %
16.05.2016 17:11 9,4 C 76 % 1017,2 hPa 0,0 l/m 17,9 km/h (3 Bft) SW 227 0 min 0,000 mm 0,0 UV-I 137 W/m 5,4 C 3,2 C 24,1 km/h (4 Bft) 100,00 %
16.05.2016 17:12 9,4 C 77 % 1017,3 hPa 0,0 l/m 14,3 km/h (3 Bft) SW 225 0 min 0,000 mm 0,0 UV-I 128 W/m 5,6 C 4,7 C 19,3 km/h (3 Bft) 100,00 %
16.05.2016 17:13 9,4 C 76 % 1017,3 hPa 0,0 l/m 12,7 km/h (3 Bft) W-SW 243 0 min 0,000 mm 0,0 UV-I 127 W/m 5,4 C 5,5 C 17,7 km/h (3 Bft) 97,56 %
16.05.2016 17:14 9,4 C 76 % 1017,3 hPa 0,0 l/m 12,9 km/h (3 Bft) W-SW 242 0 min 0,000 mm 0,0 UV-I 132 W/m 5,4 C 5,4 C 17,7 km/h (3 Bft) 96,30 %
16.05.2016 17:15 9,4 C 76 % 1017,3 hPa 0,0 l/m 13,0 km/h (3 Bft) W 275 0 min 0,000 mm 0,0 UV-I 141 W/m 5,4 C 5,3 C 19,3 km/h (3 Bft) 100,00 %
16.05.2016 17:16 9,4 C 77 % 1017,3 hPa 0,0 l/m 16,1 km/h (3 Bft) W-SW 258 0 min 0,000 mm 0,0 UV-I 155 W/m 5,6 C 3,9 C 22,5 km/h (4 Bft) 100,00 %
16.05.2016 17:17 9,4 C 75 % 1017,3 hPa 0,0 l/m 19,1 km/h (3 Bft) SW 229 0 min 0,000 mm 0,0 UV-I 171 W/m 5,2 C 2,8 C 25,7 km/h (4 Bft) 100,00 %
16.05.2016 17:18 9,4 C 76 % 1017,2 hPa 0,0 l/m 15,8 km/h (3 Bft) W-SW 241 0 min 0,000 mm 0,0 UV-I 176 W/m 5,4 C 4,1 C 20,9 km/h (4 Bft) 100,00 %
16.05.2016 17:19 9,4 C 76 % 1017,3 hPa 0,0 l/m 20,6 km/h (4 Bft) SW 218 0 min 0,000 mm 0,0 UV-I 178 W/m 5,4 C 2,3 C 27,4 km/h (4 Bft) 95,83 %
16.05.2016 17:20 9,4 C 75 % 1017,2 hPa 0,0 l/m 18,7 km/h (3 Bft) W-SW 249 0 min 0,000 mm 0,4 UV-I 193 W/m 5,2 C 3,0 C 25,7 km/h (4 Bft) 100,00 %
16.05.2016 17:21 9,5 C 75 % 1017,3 hPa 0,0 l/m 15,3 km/h (3 Bft) SW 220 0 min 0,000 mm 0,6 UV-I 195 W/m 5,3 C 4,4 C 22,5 km/h (4 Bft) 100,00 %
16.05.2016 17:22 9,6 C 75 % 1017,3 hPa 0,0 l/m 18,2 km/h (3 Bft) SW 233 0 min 0,000 mm 0,6 UV-I 236 W/m 5,4 C 3,4 C 27,4 km/h (4 Bft) 100,00 %
16.05.2016 17:23 9,7 C 75 % 1017,3 hPa 0,0 l/m 16,8 km/h (3 Bft) W 261 1 min 0,000 mm 0,7 UV-I 318 W/m 5,5 C 4,0 C 25,7 km/h (4 Bft) 100,00 %
16.05.2016 17:24 9,8 C 75 % 1017,3 hPa 0,0 l/m 18,7 km/h (3 Bft) SW 227 1 min 0,000 mm 0,8 UV-I 403 W/m 5,6 C 3,5 C 24,1 km/h (4 Bft) 97,37 %
16.05.2016 17:25 9,8 C 74 % 1017,2 hPa 0,0 l/m 15,2 km/h (3 Bft) W-SW 240 1 min 0,000 mm 0,7 UV-I 454 W/m 5,4 C 4,8 C 24,1 km/h (4 Bft) 100,00 %
16.05.2016 17:26 9,9 C 73 % 1017,2 hPa 0,0 l/m 16,3 km/h (3 Bft) W-SW 241 1 min 0,000 mm 0,7 UV-I 329 W/m 5,3 C 4,5 C 19,3 km/h (3 Bft) 100,00 %
16.05.2016 17:27 10,0 C 73 % 1017,2 hPa 0,0 l/m 9,3 km/h (2 Bft) SW 224 0 min 0,000 mm 0,7 UV-I 259 W/m 5,4 C 8,0 C 16,1 km/h (3 Bft) 100,00 %
16.05.2016 17:28 10,0 C 74 % 1017,2 hPa 0,0 l/m 7,6 km/h (2 Bft) W-SW 237 0 min 0,000 mm 0,7 UV-I 247 W/m 5,6 C 9,1 C 11,3 km/h (2 Bft) 100,00 %
16.05.2016 17:29 10,1 C 75 % 1017,2 hPa 0,0 l/m 9,7 km/h (2 Bft) W 260 0 min 0,000 mm 0,7 UV-I 230 W/m 5,9 C 7,9 C 14,5 km/h (3 Bft) 100,00 %
16.05.2016 17:30 10,1 C 73 % 1017,2 hPa 0,0 l/m 14,7 km/h (3 Bft) W-SW 254 0 min 0,000 mm 0,7 UV-I 207 W/m 5,5 C 5,4 C 17,7 km/h (3 Bft) 100,00 %
16.05.2016 17:31 10,1 C 71 % 1017,2 hPa 0,0 l/m 12,7 km/h (3 Bft) SW 231 0 min 0,000 mm 0,7 UV-I 196 W/m 5,1 C 6,3 C 16,1 km/h (3 Bft) 100,00 %
16.05.2016 17:32 10,0 C 72 % 1017,2 hPa 0,0 l/m 5,7 km/h (1 Bft) W-SW 237 0 min 0,000 mm 0,7 UV-I 195 W/m 5,2 C 10,0 C 9,7 km/h (2 Bft) 100,00 %
16.05.2016 17:33 9,9 C 73 % 1017,2 hPa 0,0 l/m 8,1 km/h (2 Bft) W-SW 239 0 min 0,000 mm 0,7 UV-I 187 W/m 5,3 C 8,7 C 12,9 km/h (3 Bft) 100,00 %
16.05.2016 17:34 9,9 C 72 % 1017,2 hPa 0,0 l/m 4,9 km/h (1 Bft) SW 221 0 min 0,000 mm 0,6 UV-I 153 W/m 5,1 C 9,9 C 8,0 km/h (2 Bft) 100,00 %
16.05.2016 17:35 9,9 C 72 % 1017,2 hPa 0,0 l/m 4,4 km/h (1 Bft) W 260 0 min 0,000 mm 0,6 UV-I 142 W/m 5,1 C 9,9 C 6,4 km/h (2 Bft) 100,00 %
16.05.2016 17:36 9,9 C 73 % 1017,2 hPa 0,0 l/m 4,2 km/h (1 Bft) W-SW 240 0 min 0,000 mm 0,5 UV-I 146 W/m 5,3 C 9,9 C 8,0 km/h (2 Bft) 100,00 %
16.05.2016 17:37 9,9 C 74 % 1017,2 hPa 0,0 l/m 3,4 km/h (1 Bft) W-SW 238 0 min 0,000 mm 0,5 UV-I 149 W/m 5,5 C 9,9 C 6,4 km/h (2 Bft) 100,00 %
16.05.2016 17:38 9,9 C 75 % 1017,2 hPa 0,0 l/m 7,0 km/h (2 Bft) S-SW 198 1 min 0,000 mm 0,6 UV-I 329 W/m 5,7 C 9,5 C 11,3 km/h (2 Bft) 100,00 %
16.05.2016 17:39 9,9 C 74 % 1017,2 hPa 0,0 l/m 8,0 km/h (2 Bft) W-SW 252 1 min 0,000 mm 0,5 UV-I 300 W/m 5,5 C 8,7 C 12,9 km/h (3 Bft) 100,00 %
16.05.2016 17:40 9,9 C 73 % 1017,2 hPa 0,0 l/m 8,4 km/h (2 Bft) SW 234 0 min 0,000 mm 0,5 UV-I 180 W/m 5,3 C 8,5 C 12,9 km/h (3 Bft) 100,00 %
16.05.2016 17:41 9,9 C 73 % 1017,2 hPa 0,0 l/m 10,5 km/h (2 Bft) W-SW 255 0 min 0,000 mm 0,5 UV-I 163 W/m 5,3 C 7,2 C 14,5 km/h (3 Bft) 100,00 %
16.05.2016 17:42 9,9 C 73 % 1017,2 hPa 0,0 l/m 15,2 km/h (3 Bft) S-SW 210 0 min 0,000 mm 0,3 UV-I 148 W/m 5,3 C 4,9 C 19,3 km/h (3 Bft) 100,00 %
16.05.2016 17:43 9,9 C 72 % 1017,2 hPa 0,0 l/m 18,5 km/h (3 Bft) S-SW 192 0 min 0,000 mm 0,0 UV-I 127 W/m 5,1 C 3,7 C 20,9 km/h (4 Bft) 100,00 %
16.05.2016 17:44 9,8 C 72 % 1017,2 hPa 0,0 l/m 14,0 km/h (3 Bft) S 191 0 min 0,000 mm 0,0 UV-I 102 W/m 5,0 C 5,3 C 17,7 km/h (3 Bft) 100,00 %
16.05.2016 17:45 9,8 C 72 % 1017,2 hPa 0,0 l/m 11,5 km/h (2 Bft) W 276 0 min 0,000 mm 0,0 UV-I 90 W/m 5,0 C 6,5 C 16,1 km/h (3 Bft) 100,00 %
16.05.2016 17:46 9,7 C 73 % 1017,2 hPa 0,0 l/m 10,9 km/h (2 Bft) W-SW 244 0 min 0,000 mm 0,0 UV-I 87 W/m 5,1 C 6,8 C 20,9 km/h (4 Bft) 100,00 %
16.05.2016 17:47 9,7 C 74 % 1017,2 hPa 0,0 l/m 13,8 km/h (3 Bft) W 275 0 min 0,000 mm 0,0 UV-I 86 W/m 5,3 C 5,3 C 19,3 km/h (3 Bft) 100,00 %
16.05.2016 17:48 9,7 C 73 % 1017,3 hPa 0,0 l/m 10,5 km/h (2 Bft) W 262 0 min 0,000 mm 0,0 UV-I 85 W/m 5,1 C 7,0 C 14,5 km/h (3 Bft) 100,00 %
16.05.2016 17:49 9,7 C 73 % 1017,3 hPa 0,0 l/m 4,2 km/h (1 Bft) W 260 0 min 0,000 mm 0,0 UV-I 80 W/m 5,1 C 9,7 C 9,7 km/h (2 Bft) 95,65 %
16.05.2016 17:50 9,7 C 74 % 1017,4 hPa 0,0 l/m 1,7 km/h (1 Bft) NO 46 0 min 0,000 mm 0,0 UV-I 78 W/m 5,3 C 9,7 C 4,8 km/h (1 Bft) 95,83 %
16.05.2016 17:51 9,6 C 75 % 1017,4 hPa 0,0 l/m 4,6 km/h (1 Bft) NW 319 0 min 0,000 mm 0,0 UV-I 94 W/m 5,4 C 9,6 C 9,7 km/h (2 Bft) 100,00 %
16.05.2016 17:52 9,5 C 77 % 1017,4 hPa 0,0 l/m 3,4 km/h (1 Bft) W-NW 294 0 min 0,000 mm 0,0 UV-I 119 W/m 5,7 C 9,5 C 6,4 km/h (2 Bft) 100,00 %
16.05.2016 17:53 9,4 C 78 % 1017,4 hPa 0,0 l/m 7,2 km/h (2 Bft) N-NW 332 0 min 0,000 mm 0,0 UV-I 138 W/m 5,8 C 8,8 C 12,9 km/h (3 Bft) 92,86 %
16.05.2016 17:54 9,2 C 79 % 1017,4 hPa 0,0 l/m 1,9 km/h (1 Bft) W 279 0 min 0,000 mm 0,0 UV-I 151 W/m 5,8 C 9,2 C 4,8 km/h (1 Bft) 100,00 %
16.05.2016 17:55 9,1 C 80 % 1017,4 hPa 0,0 l/m 4,1 km/h (1 Bft) NW 306 0 min 0,000 mm 0,0 UV-I 164 W/m 5,8 C 9,1 C 8,0 km/h (2 Bft) 100,00 %
16.05.2016 17:56 8,9 C 80 % 1017,4 hPa 0,0 l/m 5,4 km/h (1 Bft) NW 304 0 min 0,000 mm 0,0 UV-I 170 W/m 5,6 C 8,9 C 11,3 km/h (2 Bft) 100,00 %
16.05.2016 17:57 8,8 C 81 % 1017,3 hPa 0,0 l/m 3,4 km/h (1 Bft) N-NW 342 0 min 0,000 mm 0,0 UV-I 176 W/m 5,7 C 8,8 C 6,4 km/h (2 Bft) 100,00 %
16.05.2016 17:58 8,7 C 81 % 1017,3 hPa 0,0 l/m 2,2 km/h (1 Bft) W-NW 291 0 min 0,000 mm 0,2 UV-I 183 W/m 5,6 C 8,7 C 4,8 km/h (1 Bft) 96,30 %
16.05.2016 17:59 8,7 C 83 % 1017,3 hPa 0,0 l/m 4,6 km/h (1 Bft) NW 304 0 min 0,000 mm 0,5 UV-I 183 W/m 6,0 C 8,7 C 6,4 km/h (2 Bft) 100,00 %
16.05.2016 18:00 8,7 C 83 % 1017,3 hPa 0,0 l/m 4,0 km/h (1 Bft) W-NW 290 1 min 0,000 mm 0,5 UV-I 368 W/m 6,0 C 8,7 C 6,4 km/h (2 Bft) 96,30 %
16.05.2016 18:01 8,7 C 81 % 1017,2 hPa 0,0 l/m 5,3 km/h (1 Bft) NW 306 1 min 0,101 mm 0,6 UV-I 366 W/m 5,6 C 8,7 C 8,0 km/h (2 Bft) 100,00 %
16.05.2016 18:02 8,8 C 82 % 1017,2 hPa 0,0 l/m 3,6 km/h (1 Bft) W-NW 292 1 min 0,000 mm 0,6 UV-I 461 W/m 5,9 C 8,8 C 6,4 km/h (2 Bft) 96,15 %
16.05.2016 18:03 8,8 C 81 % 1017,3 hPa 0,0 l/m 3,6 km/h (1 Bft) W-NW 286 1 min 0,000 mm 0,6 UV-I 404 W/m 5,7 C 8,8 C 9,7 km/h (2 Bft) 100,00 %
16.05.2016 18:04 8,8 C 82 % 1017,2 hPa 0,0 l/m 3,9 km/h (1 Bft) N-NO 26 1 min 0,000 mm 0,6 UV-I 291 W/m 5,9 C 8,8 C 6,4 km/h (2 Bft) 96,15 %
16.05.2016 18:05 8,8 C 81 % 1017,2 hPa 0,0 l/m 3,8 km/h (1 Bft) NW 321 1 min 0,000 mm 0,5 UV-I 326 W/m 5,7 C 8,8 C 8,0 km/h (2 Bft) 91,67 %
16.05.2016 18:06 8,8 C 81 % 1017,2 hPa 0,0 l/m 4,7 km/h (1 Bft) W-SW 255 1 min 0,000 mm 0,5 UV-I 352 W/m 5,7 C 8,8 C 6,4 km/h (2 Bft) 96,15 %
16.05.2016 18:07 8,8 C 80 % 1017,2 hPa 0,0 l/m 4,8 km/h (1 Bft) W-NW 303 1 min 0,000 mm 0,5 UV-I 216 W/m 5,5 C 8,8 C 8,0 km/h (2 Bft) 96,30 %
16.05.2016 18:08 8,8 C 80 % 1017,2 hPa 0,0 l/m 4,8 km/h (1 Bft) W-NW 294 0 min 0,000 mm 0,5 UV-I 168 W/m 5,5 C 8,8 C 6,4 km/h (2 Bft) 100,00 %
16.05.2016 18:09 8,7 C 81 % 1017,2 hPa 0,0 l/m 3,2 km/h (1 Bft) W 274 0 min 0,000 mm 0,0 UV-I 153 W/m 5,6 C 8,7 C 6,4 km/h (2 Bft) 91,67 %
16.05.2016 18:10 8,7 C 81 % 1017,2 hPa 0,0 l/m 5,6 km/h (1 Bft) W-NW 283 0 min 0,000 mm 0,0 UV-I 146 W/m 5,6 C 8,7 C 6,4 km/h (2 Bft) 100,00 %
16.05.2016 18:11 8,6 C 80 % 1017,2 hPa 0,0 l/m 1,8 km/h (1 Bft) W-NW 286 0 min 0,000 mm 0,0 UV-I 149 W/m 5,3 C 8,6 C 3,2 km/h (1 Bft) 95,83 %
16.05.2016 18:12 8,6 C 81 % 1017,2 hPa 0,0 l/m 0,9 km/h (0 Bft) W-NW 286 0 min 0,000 mm 0,0 UV-I 155 W/m 5,5 C 8,6 C 1,6 km/h (1 Bft) 93,10 %
16.05.2016 18:13 8,6 C 81 % 1017,2 hPa 0,0 l/m 0,8 km/h (0 Bft) W-NW 288 0 min 0,000 mm 0,0 UV-I 157 W/m 5,5 C 8,6 C 3,2 km/h (1 Bft) 100,00 %
16.05.2016 18:14 8,6 C 81 % 1017,2 hPa 0,0 l/m 2,5 km/h (1 Bft) NW 314 0 min 0,000 mm 0,0 UV-I 175 W/m 5,5 C 8,6 C 4,8 km/h (1 Bft) 100,00 %
16.05.2016 18:15 8,6 C 82 % 1017,2 hPa 0,0 l/m 1,3 km/h (1 Bft) NW 313 1 min 0,000 mm 0,0 UV-I 217 W/m 5,7 C 8,6 C 3,2 km/h (1 Bft) 95,83 %
16.05.2016 18:16 8,6 C 82 % 1017,2 hPa 0,0 l/m 1,0 km/h (0 Bft) N-NW 331 1 min 0,000 mm 0,0 UV-I 239 W/m 5,7 C 8,6 C 3,2 km/h (1 Bft) 95,65 %
16.05.2016 18:17 8,6 C 81 % 1017,2 hPa 0,0 l/m 1,5 km/h (1 Bft) N-NW 329 1 min 0,000 mm 0,0 UV-I 235 W/m 5,5 C 8,6 C 3,2 km/h (1 Bft) 100,00 %
16.05.2016 18:18 8,6 C 83 % 1017,2 hPa 0,0 l/m 1,7 km/h (1 Bft) N-NW 338 1 min 0,000 mm 0,0 UV-I 227 W/m 5,9 C 8,6 C 4,8 km/h (1 Bft) 96,15 %
16.05.2016 18:19 8,7 C 82 % 1017,2 hPa 0,0 l/m 2,4 km/h (1 Bft) N-NW 339 1 min 0,000 mm 0,0 UV-I 197 W/m 5,8 C 8,7 C 3,2 km/h (1 Bft) 100,00 %
16.05.2016 18:20 8,7 C 81 % 1017,2 hPa 0,0 l/m 1,8 km/h (1 Bft) NW 319 0 min 0,000 mm 0,0 UV-I 164 W/m 5,6 C 8,7 C 4,8 km/h (1 Bft) 96,15 %
16.05.2016 18:21 8,7 C 81 % 1017,2 hPa 0,0 l/m 2,0 km/h (1 Bft) W-NW 294 0 min 0,000 mm 0,0 UV-I 139 W/m 5,6 C 8,7 C 6,4 km/h (2 Bft) 95,83 %
16.05.2016 18:22 8,7 C 82 % 1017,2 hPa 0,0 l/m 5,0 km/h (1 Bft) W 270 0 min 0,000 mm 0,0 UV-I 117 W/m 5,8 C 8,7 C 6,4 km/h (2 Bft) 100,00 %
16.05.2016 18:23 8,7 C 80 % 1017,2 hPa 0,0 l/m 2,5 km/h (1 Bft) W 269 0 min 0,000 mm 0,0 UV-I 104 W/m 5,4 C 8,7 C 4,8 km/h (1 Bft) 100,00 %
16.05.2016 18:24 8,7 C 82 % 1017,2 hPa 0,0 l/m 0,4 km/h (0 Bft) W-NW 288 0 min 0,000 mm 0,0 UV-I 98 W/m 5,8 C 8,7 C 1,6 km/h (1 Bft) 95,83 %
16.05.2016 18:25 8,7 C 82 % 1017,1 hPa 0,0 l/m 0,3 km/h (0 Bft) W-NW 288 0 min 0,000 mm 0,0 UV-I 97 W/m 5,8 C 8,7 C 1,6 km/h (1 Bft) 96,15 %
16.05.2016 18:26 8,7 C 83 % 1017,2 hPa 0,0 l/m 0,2 km/h (0 Bft) W-NW 288 0 min 0,000 mm 0,0 UV-I 97 W/m 6,0 C 8,7 C 1,6 km/h (1 Bft) 100,00 %
16.05.2016 18:27 8,7 C 83 % 1017,2 hPa 0,0 l/m 0,3 km/h (0 Bft) W-NW 288 0 min 0,000 mm 0,0 UV-I 94 W/m 6,0 C 8,7 C 1,6 km/h (1 Bft) 94,12 %
16.05.2016 18:28 8,6 C 81 % 1017,2 hPa 0,0 l/m 0,9 km/h (0 Bft) W-NW 288 0 min 0,000 mm 0,0 UV-I 91 W/m 5,5 C 8,6 C 3,2 km/h (1 Bft) 95,83 %
16.05.2016 18:29 8,6 C 81 % 1017,2 hPa 0,0 l/m 1,3 km/h (1 Bft) W-NW 288 0 min 0,000 mm 0,0 UV-I 85 W/m 5,5 C 8,6 C 3,2 km/h (1 Bft) 92,31 %
16.05.2016 18:30 8,6 C 82 % 1017,2 hPa 0,0 l/m 0,5 km/h (0 Bft) W-NW 290 0 min 0,000 mm 0,0 UV-I 78 W/m 5,7 C 8,6 C 1,6 km/h (1 Bft) 100,00 %
16.05.2016 18:31 8,6 C 83 % 1017,2 hPa 0,0 l/m 0,1 km/h (0 Bft) W-NW 290 0 min 0,000 mm 0,0 UV-I 68 W/m 5,9 C 8,6 C 1,6 km/h (1 Bft) 95,65 %
16.05.2016 18:32 8,6 C 83 % 1017,2 hPa 0,0 l/m 1,0 km/h (0 Bft) W-NW 293 0 min 0,000 mm 0,0 UV-I 62 W/m 5,9 C 8,6 C 3,2 km/h (1 Bft) 100,00 %
16.05.2016 18:33 8,6 C 83 % 1017,2 hPa 0,0 l/m 0,9 km/h (0 Bft) W-NW 293 0 min 0,000 mm 0,0 UV-I 58 W/m 5,9 C 8,6 C 3,2 km/h (1 Bft) 96,15 %
16.05.2016 18:34 8,6 C 81 % 1017,2 hPa 0,0 l/m 0,9 km/h (0 Bft) W-NW 293 0 min 0,000 mm 0,0 UV-I 56 W/m 5,5 C 8,6 C 1,6 km/h (1 Bft) 100,00 %
16.05.2016 18:35 8,6 C 82 % 1017,2 hPa 0,0 l/m 2,1 km/h (1 Bft) W-NW 293 0 min 0,000 mm 0,0 UV-I 54 W/m 5,7 C 8,6 C 3,2 km/h (1 Bft) 95,65 %
16.05.2016 18:36 8,6 C 82 % 1017,2 hPa 0,0 l/m 2,0 km/h (1 Bft) W-NW 293 0 min 0,000 mm 0,0 UV-I 54 W/m 5,7 C 8,6 C 3,2 km/h (1 Bft) 100,00 %
16.05.2016 18:37 8,6 C 83 % 1017,2 hPa 0,0 l/m 1,0 km/h (0 Bft) W-NW 293 0 min 0,000 mm 0,0 UV-I 50 W/m 5,9 C 8,6 C 3,2 km/h (1 Bft) 100,00 %
16.05.2016 18:38 8,6 C 83 % 1017,2 hPa 0,0 l/m 1,0 km/h (0 Bft) W-NW 293 0 min 0,000 mm 0,0 UV-I 45 W/m 5,9 C 8,6 C 1,6 km/h (1 Bft) 95,83 %
16.05.2016 18:39 8,6 C 83 % 1017,3 hPa 0,0 l/m 1,2 km/h (1 Bft) W-NW 293 0 min 0,000 mm 0,0 UV-I 39 W/m 5,9 C 8,6 C 3,2 km/h (1 Bft) 100,00 %
16.05.2016 18:40 8,6 C 84 % 1017,2 hPa 0,0 l/m 1,9 km/h (1 Bft) W-NW 293 0 min 0,000 mm 0,0 UV-I 35 W/m 6,1 C 8,6 C 3,2 km/h (1 Bft) 100,00 %
16.05.2016 18:41 8,6 C 83 % 1017,3 hPa 0,0 l/m 1,1 km/h (1 Bft) W-NW 293 0 min 0,000 mm 0,0 UV-I 30 W/m 5,9 C 8,6 C 3,2 km/h (1 Bft) 100,00 %
16.05.2016 18:42 8,6 C 84 % 1017,3 hPa 0,0 l/m 1,5 km/h (1 Bft) W-NW 294 0 min 0,000 mm 0,0 UV-I 25 W/m 6,1 C 8,6 C 3,2 km/h (1 Bft) 100,00 %
16.05.2016 18:43 8,6 C 84 % 1017,3 hPa 0,0 l/m 1,9 km/h (1 Bft) W-NW 294 0 min 0,000 mm 0,0 UV-I 20 W/m 6,1 C 8,6 C 3,2 km/h (1 Bft) 100,00 %
16.05.2016 18:44 8,6 C 84 % 1017,3 hPa 0,0 l/m 3,1 km/h (1 Bft) W-NW 287 0 min 0,000 mm 0,0 UV-I 17 W/m 6,1 C 8,6 C 6,4 km/h (2 Bft) 100,00 %
16.05.2016 18:45 8,6 C 84 % 1017,4 hPa 0,0 l/m 3,0 km/h (1 Bft) W-NW 287 0 min 0,000 mm 0,0 UV-I 15 W/m 6,1 C 8,6 C 4,8 km/h (1 Bft) 100,00 %
16.05.2016 18:46 8,5 C 84 % 1017,4 hPa 0,0 l/m 4,7 km/h (1 Bft) W 279 0 min 0,000 mm 0,0 UV-I 13 W/m 6,0 C 8,5 C 6,4 km/h (2 Bft) 100,00 %
16.05.2016 18:47 8,5 C 85 % 1017,6 hPa 0,0 l/m 6,9 km/h (2 Bft) W 261 0 min 0,000 mm 0,0 UV-I 11 W/m 6,1 C 8,1 C 11,3 km/h (2 Bft) 95,83 %
16.05.2016 18:48 8,4 C 85 % 1017,6 hPa 0,0 l/m 12,2 km/h (2 Bft) W 261 0 min 0,000 mm 0,0 UV-I 9 W/m 6,0 C 4,6 C 29,0 km/h (5 Bft) 100,00 %
16.05.2016 18:49 8,4 C 85 % 1017,7 hPa 0,0 l/m 17,3 km/h (3 Bft) W-SW 248 0 min 0,000 mm 0,0 UV-I 10 W/m 6,0 C 2,2 C 22,5 km/h (4 Bft) 100,00 %
16.05.2016 18:50 8,4 C 85 % 1017,7 hPa 0,2 l/m 14,1 km/h (3 Bft) W-SW 239 0 min 0,000 mm 0,0 UV-I 13 W/m 6,0 C 3,6 C 24,1 km/h (4 Bft) 100,00 %
16.05.2016 18:51 8,3 C 85 % 1017,8 hPa 0,2 l/m 17,5 km/h (3 Bft) W 262 0 min 0,000 mm 0,0 UV-I 18 W/m 5,9 C 2,0 C 29,0 km/h (5 Bft) 100,00 %
16.05.2016 18:52 8,2 C 84 % 1017,8 hPa 0,0 l/m 13,3 km/h (3 Bft) NW 323 0 min 0,000 mm 0,0 UV-I 20 W/m 5,7 C 3,8 C 19,3 km/h (3 Bft) 100,00 %
16.05.2016 18:53 8,1 C 84 % 1017,7 hPa 0,2 l/m 7,3 km/h (2 Bft) SW 228 0 min 0,000 mm 0,0 UV-I 24 W/m 5,6 C 7,4 C 11,3 km/h (2 Bft) 100,00 %
16.05.2016 18:54 7,9 C 85 % 1017,7 hPa 0,0 l/m 8,0 km/h (2 Bft) NW 305 0 min 0,000 mm 0,0 UV-I 28 W/m 5,5 C 6,6 C 16,1 km/h (3 Bft) 100,00 %
16.05.2016 18:55 7,8 C 85 % 1017,7 hPa 0,0 l/m 5,8 km/h (2 Bft) W-NW 286 0 min 0,000 mm 0,0 UV-I 31 W/m 5,4 C 7,8 C 11,3 km/h (2 Bft) 100,00 %
16.05.2016 18:56 7,7 C 85 % 1017,7 hPa 0,0 l/m 6,5 km/h (2 Bft) W-SW 252 0 min 0,000 mm 0,0 UV-I 34 W/m 5,3 C 7,6 C 14,5 km/h (3 Bft) 96,15 %
16.05.2016 18:57 7,6 C 86 % 1017,7 hPa 0,0 l/m 7,4 km/h (2 Bft) W-NW 288 0 min 0,000 mm 0,0 UV-I 39 W/m 5,4 C 6,8 C 11,3 km/h (2 Bft) 100,00 %
16.05.2016 18:58 7,4 C 87 % 1017,7 hPa 0,0 l/m 6,0 km/h (2 Bft) W-SW 246 0 min 0,000 mm 0,0 UV-I 44 W/m 5,4 C 7,4 C 9,7 km/h (2 Bft) 100,00 %
16.05.2016 18:59 7,3 C 88 % 1017,7 hPa 0,0 l/m 4,3 km/h (1 Bft) W-SW 253 0 min 0,000 mm 0,0 UV-I 47 W/m 5,4 C 7,3 C 6,4 km/h (2 Bft) 100,00 %
16.05.2016 19:00 7,2 C 88 % 1017,7 hPa 0,0 l/m 5,4 km/h (1 Bft) W-SW 252 0 min 0,000 mm 0,0 UV-I 49 W/m 5,3 C 7,2 C 6,4 km/h (2 Bft) 100,00 %
16.05.2016 19:02 7,1 C 89 % 1017,7 hPa 0,0 l/m 6,0 km/h (2 Bft) W-SW 240 0 min 0,051 mm 0,0 UV-I 51 W/m 5,4 C 7,1 C 11,3 km/h (2 Bft) 100,00 %
16.05.2016 19:03 7,1 C 90 % 1017,7 hPa 0,0 l/m 5,1 km/h (1 Bft) W-SW 257 0 min 0,000 mm 0,0 UV-I 51 W/m 5,6 C 7,1 C 6,4 km/h (2 Bft) 100,00 %
16.05.2016 19:04 7,1 C 90 % 1017,8 hPa 0,0 l/m 4,7 km/h (1 Bft) SW 236 0 min 0,000 mm 0,0 UV-I 50 W/m 5,6 C 7,1 C 9,7 km/h (2 Bft) 100,00 %
16.05.2016 19:05 7,0 C 90 % 1017,8 hPa 0,0 l/m 5,6 km/h (1 Bft) W-SW 248 0 min 0,000 mm 0,0 UV-I 49 W/m 5,5 C 7,0 C 9,7 km/h (2 Bft) 100,00 %
16.05.2016 19:06 7,0 C 90 % 1017,8 hPa 0,0 l/m 4,7 km/h (1 Bft) W-SW 257 0 min 0,000 mm 0,0 UV-I 49 W/m 5,5 C 7,0 C 6,4 km/h (2 Bft) 91,67 %
16.05.2016 19:07 7,0 C 91 % 1017,8 hPa 0,0 l/m 5,9 km/h (2 Bft) W-SW 242 0 min 0,000 mm 0,0 UV-I 49 W/m 5,6 C 7,0 C 8,0 km/h (2 Bft) 100,00 %
16.05.2016 19:08 7,0 C 91 % 1017,8 hPa 0,0 l/m 4,7 km/h (1 Bft) W-SW 256 0 min 0,000 mm 0,0 UV-I 48 W/m 5,6 C 7,0 C 6,4 km/h (2 Bft) 100,00 %
16.05.2016 19:09 6,9 C 91 % 1017,8 hPa 0,0 l/m 6,2 km/h (2 Bft) SW 232 0 min 0,000 mm 0,0 UV-I 45 W/m 5,5 C 6,9 C 11,3 km/h (2 Bft) 100,00 %
16.05.2016 19:10 6,9 C 91 % 1017,7 hPa 0,0 l/m 6,9 km/h (2 Bft) W-SW 250 0 min 0,000 mm 0,0 UV-I 43 W/m 5,5 C 6,5 C 11,3 km/h (2 Bft) 100,00 %
16.05.2016 19:11 7,0 C 91 % 1017,8 hPa 0,0 l/m 5,0 km/h (1 Bft) W-SW 242 0 min 0,000 mm 0,0 UV-I 40 W/m 5,6 C 7,0 C 8,0 km/h (2 Bft) 100,00 %
16.05.2016 19:12 6,9 C 91 % 1017,7 hPa 0,0 l/m 5,9 km/h (2 Bft) W-NW 286 0 min 0,000 mm 0,0 UV-I 39 W/m 5,5 C 6,9 C 9,7 km/h (2 Bft) 100,00 %
16.05.2016 19:13 6,9 C 90 % 1017,7 hPa 0,0 l/m 8,2 km/h (2 Bft) W-SW 242 0 min 0,000 mm 0,0 UV-I 36 W/m 5,4 C 5,4 C 12,9 km/h (3 Bft) 100,00 %
16.05.2016 19:14 6,9 C 90 % 1017,7 hPa 0,0 l/m 6,6 km/h (2 Bft) W-SW 250 0 min 0,000 mm 0,0 UV-I 34 W/m 5,4 C 6,8 C 9,7 km/h (2 Bft) 100,00 %
16.05.2016 19:15 6,9 C 91 % 1017,7 hPa 0,0 l/m 7,2 km/h (2 Bft) W-SW 240 0 min 0,000 mm 0,0 UV-I 33 W/m 5,5 C 6,2 C 8,0 km/h (2 Bft) 100,00 %
16.05.2016 19:16 6,9 C 91 % 1017,7 hPa 0,0 l/m 6,0 km/h (2 Bft) SW 234 0 min 0,000 mm 0,0 UV-I 34 W/m 5,5 C 6,9 C 9,7 km/h (2 Bft) 100,00 %
16.05.2016 19:17 7,0 C 90 % 1017,7 hPa 0,0 l/m 6,8 km/h (2 Bft) W-SW 252 0 min 0,000 mm 0,0 UV-I 35 W/m 5,5 C 6,7 C 9,7 km/h (2 Bft) 100,00 %
16.05.2016 19:18 7,0 C 90 % 1017,7 hPa 0,0 l/m 8,5 km/h (2 Bft) W-SW 256 0 min 0,000 mm 0,0 UV-I 35 W/m 5,5 C 5,3 C 12,9 km/h (3 Bft) 100,00 %
16.05.2016 19:19 7,0 C 90 % 1017,7 hPa 0,0 l/m 6,1 km/h (2 Bft) W-SW 243 0 min 0,000 mm 0,0 UV-I 34 W/m 5,5 C 7,0 C 9,7 km/h (2 Bft) 100,00 %
16.05.2016 19:20 7,0 C 91 % 1017,7 hPa 0,0 l/m 6,6 km/h (2 Bft) W-SW 242 0 min 0,000 mm 0,0 UV-I 34 W/m 5,6 C 6,9 C 12,9 km/h (3 Bft) 100,00 %
16.05.2016 19:21 7,0 C 91 % 1017,7 hPa 0,0 l/m 5,5 km/h (1 Bft) W-SW 256 0 min 0,000 mm 0,0 UV-I 35 W/m 5,6 C 7,0 C 8,0 km/h (2 Bft) 96,30 %
16.05.2016 19:22 7,0 C 91 % 1017,6 hPa 0,0 l/m 5,2 km/h (1 Bft) W-SW 253 0 min 0,000 mm 0,0 UV-I 36 W/m 5,6 C 7,0 C 6,4 km/h (2 Bft) 100,00 %
16.05.2016 19:23 7,0 C 91 % 1017,7 hPa 0,0 l/m 6,6 km/h (2 Bft) SW 220 0 min 0,000 mm 0,0 UV-I 37 W/m 5,6 C 6,9 C 8,0 km/h (2 Bft) 100,00 %
16.05.2016 19:24 7,0 C 91 % 1017,7 hPa 0,0 l/m 4,3 km/h (1 Bft) W-SW 240 0 min 0,000 mm 0,0 UV-I 36 W/m 5,6 C 7,0 C 6,4 km/h (2 Bft) 100,00 %
16.05.2016 19:25 7,0 C 91 % 1017,7 hPa 0,0 l/m 4,0 km/h (1 Bft) SW 216 0 min 0,000 mm 0,0 UV-I 33 W/m 5,6 C 7,0 C 6,4 km/h (2 Bft) 100,00 %
16.05.2016 19:26 7,0 C 91 % 1017,7 hPa 0,0 l/m 6,4 km/h (2 Bft) SW 221 0 min 0,000 mm 0,0 UV-I 32 W/m 5,6 C 7,0 C 9,7 km/h (2 Bft) 100,00 %
16.05.2016 19:27 7,0 C 91 % 1017,7 hPa 0,0 l/m 5,4 km/h (1 Bft) SW 226 0 min 0,000 mm 0,0 UV-I 32 W/m 5,6 C 7,0 C 9,7 km/h (2 Bft) 100,00 %
16.05.2016 19:28 7,0 C 91 % 1017,7 hPa 0,0 l/m 4,7 km/h (1 Bft) SW 221 0 min 0,000 mm 0,0 UV-I 32 W/m 5,6 C 7,0 C 6,4 km/h (2 Bft) 100,00 %
16.05.2016 19:29 7,0 C 91 % 1017,6 hPa 0,0 l/m 6,0 km/h (2 Bft) SW 225 0 min 0,000 mm 0,0 UV-I 30 W/m 5,6 C 7,0 C 8,0 km/h (2 Bft) 100,00 %
16.05.2016 19:30 7,1 C 91 % 1017,7 hPa 0,0 l/m 4,3 km/h (1 Bft) SW 229 0 min 0,000 mm 0,0 UV-I 30 W/m 5,7 C 7,1 C 4,8 km/h (1 Bft) 100,00 %
16.05.2016 19:31 7,1 C 91 % 1017,7 hPa 0,0 l/m 5,9 km/h (2 Bft) SW 236 0 min 0,000 mm 0,0 UV-I 32 W/m 5,7 C 7,1 C 9,7 km/h (2 Bft) 100,00 %
16.05.2016 19:32 7,1 C 91 % 1017,7 hPa 0,0 l/m 5,2 km/h (1 Bft) S-SW 202 0 min 0,000 mm 0,0 UV-I 34 W/m 5,7 C 7,1 C 8,0 km/h (2 Bft) 100,00 %
16.05.2016 19:33 7,1 C 91 % 1017,7 hPa 0,0 l/m 3,6 km/h (1 Bft) S-SW 202 0 min 0,000 mm 0,0 UV-I 36 W/m 5,7 C 7,1 C 6,4 km/h (2 Bft) 100,00 %
16.05.2016 19:34 7,1 C 91 % 1017,7 hPa 0,0 l/m 2,7 km/h (1 Bft) S-SW 202 0 min 0,000 mm 0,0 UV-I 36 W/m 5,7 C 7,1 C 4,8 km/h (1 Bft) 100,00 %
16.05.2016 19:35 7,1 C 91 % 1017,7 hPa 0,0 l/m 6,3 km/h (2 Bft) SW 223 0 min 0,000 mm 0,0 UV-I 33 W/m 5,7 C 7,1 C 9,7 km/h (2 Bft) 96,30 %
16.05.2016 19:36 7,1 C 91 % 1017,7 hPa 0,0 l/m 5,4 km/h (1 Bft) SW 236 0 min 0,000 mm 0,0 UV-I 32 W/m 5,7 C 7,1 C 6,4 km/h (2 Bft) 100,00 %
16.05.2016 19:37 7,1 C 91 % 1017,8 hPa 0,0 l/m 6,3 km/h (2 Bft) S-SW 213 0 min 0,000 mm 0,0 UV-I 30 W/m 5,7 C 7,1 C 8,0 km/h (2 Bft) 96,15 %
16.05.2016 19:38 7,1 C 91 % 1017,7 hPa 0,0 l/m 8,5 km/h (2 Bft) S-SW 196 0 min 0,000 mm 0,0 UV-I 28 W/m 5,7 C 5,4 C 11,3 km/h (2 Bft) 100,00 %
16.05.2016 19:39 7,1 C 91 % 1017,7 hPa 0,0 l/m 7,2 km/h (2 Bft) S 188 0 min 0,000 mm 0,0 UV-I 27 W/m 5,7 C 6,4 C 9,7 km/h (2 Bft) 100,00 %
16.05.2016 19:40 7,1 C 91 % 1017,7 hPa 0,0 l/m 7,6 km/h (2 Bft) S-SO 161 0 min 0,000 mm 0,0 UV-I 26 W/m 5,7 C 6,1 C 11,3 km/h (2 Bft) 100,00 %
16.05.2016 19:41 7,1 C 91 % 1017,7 hPa 0,0 l/m 10,0 km/h (2 Bft) S-SW 202 0 min 0,000 mm 0,0 UV-I 25 W/m 5,7 C 4,4 C 14,5 km/h (3 Bft) 100,00 %
16.05.2016 19:42 7,1 C 90 % 1017,7 hPa 0,0 l/m 8,6 km/h (2 Bft) SW 234 0 min 0,000 mm 0,0 UV-I 25 W/m 5,6 C 5,4 C 12,9 km/h (3 Bft) 100,00 %
16.05.2016 19:43 7,0 C 90 % 1017,7 hPa 0,0 l/m 8,4 km/h (2 Bft) S-SW 213 0 min 0,000 mm 0,0 UV-I 26 W/m 5,5 C 5,4 C 11,3 km/h (2 Bft) 100,00 %
16.05.2016 19:44 7,0 C 90 % 1017,7 hPa 0,0 l/m 8,9 km/h (2 Bft) S 177 0 min 0,000 mm 0,0 UV-I 26 W/m 5,5 C 5,0 C 12,9 km/h (3 Bft) 100,00 %
16.05.2016 19:45 7,0 C 90 % 1017,7 hPa 0,0 l/m 8,0 km/h (2 Bft) S 185 0 min 0,000 mm 0,0 UV-I 25 W/m 5,5 C 5,7 C 11,3 km/h (2 Bft) 100,00 %
16.05.2016 19:46 7,0 C 90 % 1017,7 hPa 0,0 l/m 6,5 km/h (2 Bft) S-SO 168 0 min 0,000 mm 0,0 UV-I 25 W/m 5,5 C 6,9 C 8,0 km/h (2 Bft) 100,00 %
16.05.2016 19:47 6,9 C 90 % 1017,7 hPa 0,0 l/m 4,3 km/h (1 Bft) S-SW 192 0 min 0,000 mm 0,0 UV-I 25 W/m 5,4 C 6,9 C 8,0 km/h (2 Bft) 100,00 %
16.05.2016 19:48 7,0 C 90 % 1017,7 hPa 0,0 l/m 7,4 km/h (2 Bft) S-SW 211 0 min 0,000 mm 0,0 UV-I 23 W/m 5,5 C 6,2 C 9,7 km/h (2 Bft) 100,00 %
16.05.2016 19:49 6,9 C 90 % 1017,7 hPa 0,0 l/m 7,8 km/h (2 Bft) S 171 0 min 0,000 mm 0,0 UV-I 23 W/m 5,4 C 5,8 C 9,7 km/h (2 Bft) 100,00 %
16.05.2016 19:50 6,9 C 91 % 1017,7 hPa 0,0 l/m 9,5 km/h (2 Bft) S-SW 192 0 min 0,000 mm 0,0 UV-I 23 W/m 5,5 C 4,5 C 12,9 km/h (3 Bft) 91,67 %
16.05.2016 19:51 6,9 C 91 % 1017,6 hPa 0,0 l/m 7,6 km/h (2 Bft) S 191 0 min 0,000 mm 0,0 UV-I 23 W/m 5,5 C 5,9 C 11,3 km/h (2 Bft) 100,00 %
16.05.2016 19:52 6,9 C 91 % 1017,7 hPa 0,0 l/m 9,1 km/h (2 Bft) S-SW 205 0 min 0,000 mm 0,0 UV-I 21 W/m 5,5 C 4,8 C 14,5 km/h (3 Bft) 100,00 %
16.05.2016 19:53 6,9 C 90 % 1017,7 hPa 0,0 l/m 10,8 km/h (2 Bft) S-SW 205 0 min 0,000 mm 0,0 UV-I 21 W/m 5,4 C 3,7 C 14,5 km/h (3 Bft) 100,00 %
16.05.2016 19:54 6,9 C 90 % 1017,7 hPa 0,0 l/m 9,9 km/h (2 Bft) S 181 0 min 0,000 mm 0,0 UV-I 19 W/m 5,4 C 4,2 C 16,1 km/h (3 Bft) 100,00 %
16.05.2016 19:55 6,9 C 90 % 1017,7 hPa 0,0 l/m 11,7 km/h (2 Bft) SW 223 0 min 0,000 mm 0,0 UV-I 17 W/m 5,4 C 3,1 C 14,5 km/h (3 Bft) 96,15 %
16.05.2016 19:56 6,8 C 90 % 1017,7 hPa 0,0 l/m 9,3 km/h (2 Bft) S 182 0 min 0,000 mm 0,0 UV-I 15 W/m 5,3 C 4,5 C 14,5 km/h (3 Bft) 100,00 %
16.05.2016 19:57 6,8 C 90 % 1017,7 hPa 0,0 l/m 13,0 km/h (3 Bft) W-SW 244 0 min 0,000 mm 0,0 UV-I 12 W/m 5,3 C 2,3 C 19,3 km/h (3 Bft) 100,00 %
16.05.2016 19:58 6,8 C 90 % 1017,7 hPa 0,0 l/m 9,3 km/h (2 Bft) S-SW 209 0 min 0,000 mm 0,0 UV-I 11 W/m 5,3 C 4,5 C 12,9 km/h (3 Bft) 100,00 %
16.05.2016 19:59 6,8 C 90 % 1017,7 hPa 0,0 l/m 8,1 km/h (2 Bft) S 188 0 min 0,000 mm 0,0 UV-I 11 W/m 5,3 C 5,4 C 12,9 km/h (3 Bft) 100,00 %
16.05.2016 20:00 6,8 C 90 % 1017,7 hPa 0,0 l/m 5,6 km/h (1 Bft) S 187 0 min 0,000 mm 0,0 UV-I 9 W/m 5,3 C 6,8 C 11,3 km/h (2 Bft) 100,00 %
16.05.2016 20:02 6,8 C 91 % 1017,7 hPa 0,0 l/m 5,7 km/h (1 Bft) S-SW 198 0 min 0,025 mm 0,0 UV-I 7 W/m 5,4 C 6,8 C 8,0 km/h (2 Bft) 95,45 %
16.05.2016 20:03 6,8 C 91 % 1017,7 hPa 0,0 l/m 7,3 km/h (2 Bft) S-SO 153 0 min 0,000 mm 0,0 UV-I 7 W/m 5,4 C 6,1 C 11,3 km/h (2 Bft) 100,00 %
16.05.2016 20:04 6,8 C 91 % 1017,6 hPa 0,0 l/m 11,1 km/h (2 Bft) SW 217 0 min 0,000 mm 0,0 UV-I 7 W/m 5,4 C 3,4 C 16,1 km/h (3 Bft) 91,67 %
16.05.2016 20:05 6,8 C 91 % 1017,6 hPa 0,0 l/m 11,7 km/h (2 Bft) S 188 0 min 0,000 mm 0,0 UV-I 7 W/m 5,4 C 3,0 C 14,5 km/h (3 Bft) 100,00 %
16.05.2016 20:06 6,8 C 91 % 1017,7 hPa 0,0 l/m 11,0 km/h (2 Bft) S 182 0 min 0,000 mm 0,0 UV-I 7 W/m 5,4 C 3,4 C 17,7 km/h (3 Bft) 96,15 %
16.05.2016 20:07 6,8 C 91 % 1017,6 hPa 0,0 l/m 13,0 km/h (3 Bft) W-SW 238 0 min 0,000 mm 0,0 UV-I 7 W/m 5,4 C 2,3 C 20,9 km/h (4 Bft) 100,00 %
16.05.2016 20:08 6,8 C 91 % 1017,6 hPa 0,0 l/m 9,0 km/h (2 Bft) S-SW 212 0 min 0,000 mm 0,0 UV-I 7 W/m 5,4 C 4,7 C 12,9 km/h (3 Bft) 96,55 %
16.05.2016 20:09 6,8 C 91 % 1017,6 hPa 0,0 l/m 8,0 km/h (2 Bft) S 170 0 min 0,000 mm 0,0 UV-I 8 W/m 5,4 C 5,5 C 11,3 km/h (2 Bft) 96,67 %
16.05.2016 20:10 6,8 C 91 % 1017,6 hPa 0,2 l/m 7,1 km/h (2 Bft) S 187 0 min 0,000 mm 0,0 UV-I 11 W/m 5,4 C 6,2 C 8,0 km/h (2 Bft) 100,00 %
16.05.2016 20:11 6,8 C 91 % 1017,5 hPa 0,0 l/m 9,7 km/h (2 Bft) SW 225 0 min 0,000 mm 0,0 UV-I 11 W/m 5,4 C 4,3 C 16,1 km/h (3 Bft) 100,00 %
16.05.2016 20:12 6,8 C 91 % 1017,6 hPa 0,0 l/m 9,1 km/h (2 Bft) S 185 0 min 0,000 mm 0,0 UV-I 11 W/m 5,4 C 4,7 C 12,9 km/h (3 Bft) 95,12 %
16.05.2016 20:13 6,8 C 91 % 1017,6 hPa 0,0 l/m 8,8 km/h (2 Bft) S 184 0 min 0,000 mm 0,0 UV-I 12 W/m 5,4 C 4,9 C 11,3 km/h (2 Bft) 91,67 %
16.05.2016 20:14 6,8 C 91 % 1017,6 hPa 0,0 l/m 7,4 km/h (2 Bft) SW 217 0 min 0,000 mm 0,0 UV-I 12 W/m 5,4 C 6,0 C 12,9 km/h (3 Bft) 100,00 %
16.05.2016 20:15 6,8 C 91 % 1017,7 hPa 0,0 l/m 8,1 km/h (2 Bft) S 178 0 min 0,000 mm 0,0 UV-I 12 W/m 5,4 C 5,4 C 14,5 km/h (3 Bft) 97,37 %
16.05.2016 20:16 6,8 C 92 % 1017,7 hPa 0,0 l/m 11,2 km/h (2 Bft) SW 221 0 min 0,000 mm 0,0 UV-I 12 W/m 5,6 C 3,3 C 16,1 km/h (3 Bft) 95,65 %
16.05.2016 20:17 6,8 C 91 % 1017,7 hPa 0,0 l/m 13,6 km/h (3 Bft) SW 229 0 min 0,000 mm 0,0 UV-I 11 W/m 5,4 C 2,0 C 19,3 km/h (3 Bft) 100,00 %
16.05.2016 20:18 6,8 C 91 % 1017,8 hPa 0,0 l/m 11,5 km/h (2 Bft) S-SW 208 0 min 0,000 mm 0,0 UV-I 10 W/m 5,4 C 3,1 C 16,1 km/h (3 Bft) 96,15 %
16.05.2016 20:19 6,8 C 91 % 1017,7 hPa 0,0 l/m 9,0 km/h (2 Bft) SW 217 0 min 0,000 mm 0,0 UV-I 9 W/m 5,4 C 4,7 C 16,1 km/h (3 Bft) 100,00 %
16.05.2016 20:20 6,8 C 91 % 1017,7 hPa 0,0 l/m 8,6 km/h (2 Bft) SW 228 0 min 0,000 mm 0,0 UV-I 8 W/m 5,4 C 5,0 C 12,9 km/h (3 Bft) 96,30 %
16.05.2016 20:21 6,8 C 91 % 1017,7 hPa 0,0 l/m 10,7 km/h (2 Bft) SW 217 0 min 0,000 mm 0,0 UV-I 7 W/m 5,4 C 3,6 C 14,5 km/h (3 Bft) 100,00 %
16.05.2016 20:22 6,8 C 91 % 1017,7 hPa 0,0 l/m 12,2 km/h (2 Bft) SW 228 0 min 0,000 mm 0,0 UV-I 7 W/m 5,4 C 2,7 C 16,1 km/h (3 Bft) 96,30 %
16.05.2016 20:23 6,8 C 91 % 1017,8 hPa 0,0 l/m 8,0 km/h (2 Bft) SW 225 0 min 0,000 mm 0,0 UV-I 7 W/m 5,4 C 5,5 C 12,9 km/h (3 Bft) 96,15 %
16.05.2016 20:24 6,7 C 91 % 1017,8 hPa 0,0 l/m 9,7 km/h (2 Bft) SW 232 0 min 0,000 mm 0,0 UV-I 7 W/m 5,3 C 4,2 C 14,5 km/h (3 Bft) 96,30 %
16.05.2016 20:25 6,7 C 91 % 1017,8 hPa 0,0 l/m 8,0 km/h (2 Bft) S 175 0 min 0,000 mm 0,0 UV-I 7 W/m 5,3 C 5,4 C 12,9 km/h (3 Bft) 100,00 %
16.05.2016 20:26 6,7 C 91 % 1017,8 hPa 0,0 l/m 9,7 km/h (2 Bft) S-SW 200 0 min 0,000 mm 0,0 UV-I 6 W/m 5,3 C 4,2 C 14,5 km/h (3 Bft) 96,30 %
16.05.2016 20:27 6,7 C 92 % 1017,8 hPa 0,0 l/m 10,9 km/h (2 Bft) S-SO 166 0 min 0,000 mm 0,0 UV-I 5 W/m 5,5 C 3,4 C 17,7 km/h (3 Bft) 88,46 %
16.05.2016 20:28 6,7 C 92 % 1017,8 hPa 0,0 l/m 9,4 km/h (2 Bft) S-SW 205 0 min 0,000 mm 0,0 UV-I 5 W/m 5,5 C 4,4 C 14,5 km/h (3 Bft) 96,30 %
16.05.2016 20:29 6,7 C 92 % 1017,8 hPa 0,0 l/m 10,2 km/h (2 Bft) S 184 0 min 0,000 mm 0,0 UV-I 4 W/m 5,5 C 3,8 C 16,1 km/h (3 Bft) 90,91 %
16.05.2016 20:30 6,7 C 92 % 1017,8 hPa 0,0 l/m 11,3 km/h (2 Bft) S-SW 193 0 min 0,000 mm 0,0 UV-I 0 W/m 5,5 C 3,1 C 17,7 km/h (3 Bft) 100,00 %
16.05.2016 20:31 6,7 C 92 % 1017,8 hPa 0,0 l/m 10,1 km/h (2 Bft) S 184 0 min 0,000 mm 0,0 UV-I 0 W/m 5,5 C 3,9 C 14,5 km/h (3 Bft) 91,30 %
16.05.2016 20:32 6,7 C 92 % 1017,8 hPa 0,0 l/m 9,8 km/h (2 Bft) W-SW 242 0 min 0,000 mm 0,0 UV-I 0 W/m 5,5 C 4,1 C 12,9 km/h (3 Bft) 100,00 %
16.05.2016 20:33 6,7 C 92 % 1017,8 hPa 0,0 l/m 9,5 km/h (2 Bft) S-SW 198 0 min 0,000 mm 0,0 UV-I 0 W/m 5,5 C 4,3 C 14,5 km/h (3 Bft) 96,15 %
16.05.2016 20:34 6,7 C 92 % 1017,8 hPa 0,0 l/m 6,6 km/h (2 Bft) S-SW 213 0 min 0,000 mm 0,0 UV-I 0 W/m 5,5 C 6,6 C 9,7 km/h (2 Bft) 95,83 %
16.05.2016 20:35 6,7 C 92 % 1017,8 hPa 0,0 l/m 9,7 km/h (2 Bft) S-SW 213 0 min 0,000 mm 0,0 UV-I 0 W/m 5,5 C 4,2 C 19,3 km/h (3 Bft) 100,00 %
16.05.2016 20:36 6,7 C 92 % 1017,8 hPa 0,0 l/m 8,9 km/h (2 Bft) SW 230 0 min 0,000 mm 0,0 UV-I 0 W/m 5,5 C 4,7 C 16,1 km/h (3 Bft) 95,83 %
16.05.2016 20:37 6,7 C 92 % 1017,8 hPa 0,0 l/m 12,6 km/h (3 Bft) S 179 0 min 0,000 mm 0,0 UV-I 0 W/m 5,5 C 2,4 C 16,1 km/h (3 Bft) 100,00 %
16.05.2016 20:38 6,7 C 92 % 1017,8 hPa 0,0 l/m 9,8 km/h (2 Bft) W-SW 238 0 min 0,000 mm 0,0 UV-I 0 W/m 5,5 C 4,1 C 14,5 km/h (3 Bft) 100,00 %
16.05.2016 20:39 6,7 C 92 % 1017,8 hPa 0,0 l/m 6,2 km/h (2 Bft) W-SW 237 0 min 0,000 mm 0,0 UV-I 0 W/m 5,5 C 6,7 C 14,5 km/h (3 Bft) 100,00 %
16.05.2016 20:40 6,7 C 92 % 1017,8 hPa 0,0 l/m 8,6 km/h (2 Bft) W-SW 251 0 min 0,000 mm 0,0 UV-I 0 W/m 5,5 C 4,9 C 12,9 km/h (3 Bft) 100,00 %
16.05.2016 20:41 6,7 C 92 % 1017,8 hPa 0,0 l/m 13,1 km/h (3 Bft) S 188 0 min 0,000 mm 0,0 UV-I 0 W/m 5,5 C 2,1 C 19,3 km/h (3 Bft) 100,00 %
16.05.2016 20:42 6,7 C 92 % 1017,8 hPa 0,0 l/m 9,2 km/h (2 Bft) S-SW 198 0 min 0,000 mm 0,0 UV-I 0 W/m 5,5 C 4,5 C 12,9 km/h (3 Bft) 100,00 %
16.05.2016 20:43 6,7 C 92 % 1017,9 hPa 0,0 l/m 8,0 km/h (2 Bft) S-SW 200 0 min 0,000 mm 0,0 UV-I 0 W/m 5,5 C 5,4 C 12,9 km/h (3 Bft) 96,97 %
16.05.2016 20:44 6,7 C 92 % 1017,9 hPa 0,0 l/m 9,6 km/h (2 Bft) S 180 0 min 0,000 mm 0,0 UV-I 0 W/m 5,5 C 4,2 C 16,1 km/h (3 Bft) 100,00 %
16.05.2016 20:45 6,6 C 92 % 1017,9 hPa 0,0 l/m 14,7 km/h (3 Bft) S-SW 205 0 min 0,000 mm 0,0 UV-I 0 W/m 5,4 C 1,2 C 22,5 km/h (4 Bft) 100,00 %
16.05.2016 20:46 6,6 C 92 % 1017,9 hPa 0,0 l/m 9,8 km/h (2 Bft) S 180 0 min 0,000 mm 0,0 UV-I 0 W/m 5,4 C 4,0 C 14,5 km/h (3 Bft) 100,00 %
16.05.2016 20:47 6,6 C 92 % 1017,9 hPa 0,0 l/m 10,4 km/h (2 Bft) S-SW 210 0 min 0,000 mm 0,0 UV-I 0 W/m 5,4 C 3,6 C 16,1 km/h (3 Bft) 100,00 %
16.05.2016 20:48 6,6 C 92 % 1017,9 hPa 0,0 l/m 10,3 km/h (2 Bft) S-SW 200 0 min 0,000 mm 0,0 UV-I 0 W/m 5,4 C 3,6 C 16,1 km/h (3 Bft) 100,00 %
16.05.2016 20:49 6,6 C 91 % 1017,9 hPa 0,0 l/m 11,1 km/h (2 Bft) SW 231 0 min 0,000 mm 0,0 UV-I 0 W/m 5,2 C 3,1 C 17,7 km/h (3 Bft) 100,00 %
16.05.2016 20:50 6,6 C 91 % 1017,9 hPa 0,0 l/m 11,3 km/h (2 Bft) SW 233 0 min 0,000 mm 0,0 UV-I 0 W/m 5,2 C 3,0 C 14,5 km/h (3 Bft) 100,00 %
16.05.2016 20:51 6,6 C 92 % 1017,9 hPa 0,0 l/m 12,6 km/h (3 Bft) S-SW 202 0 min 0,000 mm 0,0 UV-I 0 W/m 5,4 C 2,3 C 17,7 km/h (3 Bft) 100,00 %
16.05.2016 20:52 6,6 C 92 % 1018,0 hPa 0,0 l/m 13,1 km/h (3 Bft) SW 217 0 min 0,000 mm 0,0 UV-I 0 W/m 5,4 C 2,0 C 19,3 km/h (3 Bft) 100,00 %
16.05.2016 20:53 6,6 C 91 % 1018,0 hPa 0,0 l/m 15,6 km/h (3 Bft) S-SW 204 0 min 0,000 mm 0,0 UV-I 0 W/m 5,2 C 0,7 C 19,3 km/h (3 Bft) 100,00 %
16.05.2016 20:54 6,6 C 91 % 1018,0 hPa 0,0 l/m 11,2 km/h (2 Bft) W-SW 241 0 min 0,000 mm 0,0 UV-I 0 W/m 5,2 C 3,1 C 16,1 km/h (3 Bft) 100,00 %
16.05.2016 20:55 6,6 C 91 % 1018,0 hPa 0,0 l/m 11,6 km/h (2 Bft) S 175 0 min 0,000 mm 0,0 UV-I 0 W/m 5,2 C 2,8 C 17,7 km/h (3 Bft) 100,00 %
16.05.2016 20:56 6,6 C 91 % 1018,1 hPa 0,0 l/m 11,0 km/h (2 Bft) S 183 0 min 0,000 mm 0,0 UV-I 0 W/m 5,2 C 3,2 C 19,3 km/h (3 Bft) 100,00 %
16.05.2016 20:57 6,6 C 91 % 1018,0 hPa 0,0 l/m 11,9 km/h (2 Bft) SW 217 0 min 0,000 mm 0,0 UV-I 0 W/m 5,2 C 2,7 C 17,7 km/h (3 Bft) 96,30 %
16.05.2016 20:58 6,6 C 91 % 1018,1 hPa 0,0 l/m 13,6 km/h (3 Bft) S 184 0 min 0,000 mm 0,0 UV-I 0 W/m 5,2 C 1,7 C 20,9 km/h (4 Bft) 100,00 %
16.05.2016 20:59 6,6 C 91 % 1018,1 hPa 0,0 l/m 16,4 km/h (3 Bft) W-SW 251 0 min 0,000 mm 0,0 UV-I 0 W/m 5,2 C 0,4 C 27,4 km/h (4 Bft) 95,65 %
16.05.2016 21:00 6,6 C 91 % 1018,1 hPa 0,0 l/m 17,7 km/h (3 Bft) S 175 0 min 0,000 mm 0,0 UV-I 0 W/m 5,2 C -0,2 C 25,7 km/h (4 Bft) 96,30 %
16.05.2016 21:02 6,6 C 91 % 1018,1 hPa 0,0 l/m 13,2 km/h (3 Bft) S 175 0 min 0,000 mm 0,0 UV-I 0 W/m 5,2 C 1,9 C 20,9 km/h (4 Bft) 96,00 %
16.05.2016 21:03 6,6 C 91 % 1018,0 hPa 0,0 l/m 9,6 km/h (2 Bft) S-SW 198 0 min 0,000 mm 0,0 UV-I 0 W/m 5,2 C 4,1 C 11,3 km/h (2 Bft) 100,00 %
16.05.2016 21:04 6,6 C 91 % 1018,1 hPa 0,0 l/m 14,9 km/h (3 Bft) W-SW 248 0 min 0,000 mm 0,0 UV-I 0 W/m 5,2 C 1,1 C 19,3 km/h (3 Bft) 96,30 %
16.05.2016 21:05 6,6 C 91 % 1018,0 hPa 0,0 l/m 15,3 km/h (3 Bft) W-SW 251 0 min 0,000 mm 0,0 UV-I 0 W/m 5,2 C 0,9 C 19,3 km/h (3 Bft) 100,00 %
16.05.2016 21:06 6,6 C 91 % 1018,1 hPa 0,0 l/m 14,6 km/h (3 Bft) W 263 0 min 0,000 mm 0,0 UV-I 0 W/m 5,2 C 1,2 C 20,9 km/h (4 Bft) 100,00 %
16.05.2016 21:07 6,6 C 91 % 1018,0 hPa 0,0 l/m 12,8 km/h (3 Bft) SW 224 0 min 0,000 mm 0,0 UV-I 0 W/m 5,2 C 2,1 C 16,1 km/h (3 Bft) 100,00 %
16.05.2016 21:08 6,6 C 91 % 1018,1 hPa 0,0 l/m 14,7 km/h (3 Bft) W-SW 242 0 min 0,000 mm 0,0 UV-I 0 W/m 5,2 C 1,2 C 19,3 km/h (3 Bft) 100,00 %
16.05.2016 21:09 6,6 C 91 % 1018,1 hPa 0,0 l/m 10,8 km/h (2 Bft) SW 220 0 min 0,000 mm 0,0 UV-I 0 W/m 5,2 C 3,3 C 19,3 km/h (3 Bft) 100,00 %
16.05.2016 21:10 6,6 C 90 % 1018,1 hPa 0,0 l/m 8,8 km/h (2 Bft) S-SW 192 0 min 0,000 mm 0,0 UV-I 0 W/m 5,1 C 4,7 C 14,5 km/h (3 Bft) 100,00 %
16.05.2016 21:11 6,6 C 90 % 1018,2 hPa 0,0 l/m 9,3 km/h (2 Bft) SW 223 0 min 0,000 mm 0,0 UV-I 0 W/m 5,1 C 4,3 C 16,1 km/h (3 Bft) 100,00 %
16.05.2016 21:12 6,6 C 90 % 1018,2 hPa 0,0 l/m 7,9 km/h (2 Bft) W-SW 237 0 min 0,000 mm 0,0 UV-I 0 W/m 5,1 C 5,4 C 12,9 km/h (3 Bft) 91,67 %
16.05.2016 21:13 6,5 C 90 % 1018,2 hPa 0,0 l/m 11,9 km/h (2 Bft) SW 236 0 min 0,000 mm 0,0 UV-I 0 W/m 5,0 C 2,5 C 19,3 km/h (3 Bft) 100,00 %
16.05.2016 21:14 6,5 C 90 % 1018,2 hPa 0,0 l/m 11,1 km/h (2 Bft) S 178 0 min 0,000 mm 0,0 UV-I 0 W/m 5,0 C 3,0 C 16,1 km/h (3 Bft) 100,00 %
16.05.2016 21:15 6,5 C 90 % 1018,2 hPa 0,0 l/m 12,5 km/h (3 Bft) SW 223 0 min 0,000 mm 0,0 UV-I 0 W/m 5,0 C 2,2 C 17,7 km/h (3 Bft) 100,00 %
16.05.2016 21:16 6,5 C 90 % 1018,2 hPa 0,0 l/m 12,7 km/h (3 Bft) W-SW 242 0 min 0,000 mm 0,0 UV-I 0 W/m 5,0 C 2,1 C 17,7 km/h (3 Bft) 100,00 %
16.05.2016 21:17 6,5 C 90 % 1018,2 hPa 0,0 l/m 12,8 km/h (3 Bft) SW 223 0 min 0,000 mm 0,0 UV-I 0 W/m 5,0 C 2,0 C 16,1 km/h (3 Bft) 100,00 %
16.05.2016 21:18 6,5 C 90 % 1018,2 hPa 0,0 l/m 10,1 km/h (2 Bft) SW 229 0 min 0,000 mm 0,0 UV-I 0 W/m 5,0 C 3,7 C 17,7 km/h (3 Bft) 96,30 %
16.05.2016 21:19 6,5 C 90 % 1018,3 hPa 0,0 l/m 10,1 km/h (2 Bft) S-SW 198 0 min 0,000 mm 0,0 UV-I 0 W/m 5,0 C 3,7 C 16,1 km/h (3 Bft) 100,00 %
16.05.2016 21:20 6,5 C 90 % 1018,3 hPa 0,0 l/m 7,9 km/h (2 Bft) S-SW 198 0 min 0,000 mm 0,0 UV-I 0 W/m 5,0 C 5,3 C 12,9 km/h (3 Bft) 93,75 %
16.05.2016 21:21 6,5 C 90 % 1018,3 hPa 0,0 l/m 11,9 km/h (2 Bft) SW 232 0 min 0,000 mm 0,0 UV-I 0 W/m 5,0 C 2,5 C 16,1 km/h (3 Bft) 100,00 %
16.05.2016 21:22 6,4 C 90 % 1018,3 hPa 0,0 l/m 11,1 km/h (2 Bft) SW 232 0 min 0,000 mm 0,0 UV-I 0 W/m 4,9 C 2,9 C 16,1 km/h (3 Bft) 100,00 %
16.05.2016 21:23 6,4 C 90 % 1018,3 hPa 0,0 l/m 10,8 km/h (2 Bft) SW 223 0 min 0,000 mm 0,0 UV-I 0 W/m 4,9 C 3,1 C 17,7 km/h (3 Bft) 100,00 %
16.05.2016 21:24 6,4 C 90 % 1018,4 hPa 0,0 l/m 12,8 km/h (3 Bft) W-SW 242 0 min 0,000 mm 0,0 UV-I 0 W/m 4,9 C 1,9 C 22,5 km/h (4 Bft) 100,00 %
16.05.2016 21:25 6,4 C 90 % 1018,3 hPa 0,0 l/m 14,6 km/h (3 Bft) W-SW 250 0 min 0,000 mm 0,0 UV-I 0 W/m 4,9 C 1,0 C 20,9 km/h (4 Bft) 100,00 %
16.05.2016 21:26 6,4 C 90 % 1018,3 hPa 0,0 l/m 13,8 km/h (3 Bft) S-SW 202 0 min 0,000 mm 0,0 UV-I 0 W/m 4,9 C 1,4 C 19,3 km/h (3 Bft) 100,00 %
16.05.2016 21:27 6,4 C 90 % 1018,3 hPa 0,0 l/m 12,3 km/h (3 Bft) S-SW 198 0 min 0,000 mm 0,0 UV-I 0 W/m 4,9 C 2,2 C 24,1 km/h (4 Bft) 100,00 %
16.05.2016 21:28 6,4 C 90 % 1018,3 hPa 0,0 l/m 14,7 km/h (3 Bft) SW 220 0 min 0,000 mm 0,0 UV-I 0 W/m 4,9 C 0,9 C 19,3 km/h (3 Bft) 100,00 %
16.05.2016 21:29 6,4 C 90 % 1018,3 hPa 0,0 l/m 13,2 km/h (3 Bft) S-SW 195 0 min 0,000 mm 0,0 UV-I 0 W/m 4,9 C 1,7 C 19,3 km/h (3 Bft) 100,00 %
16.05.2016 21:30 6,4 C 90 % 1018,3 hPa 0,0 l/m 16,2 km/h (3 Bft) W-SW 238 0 min 0,000 mm 0,0 UV-I 0 W/m 4,9 C 0,2 C 20,9 km/h (4 Bft) 100,00 %
16.05.2016 21:31 6,4 C 90 % 1018,3 hPa 0,0 l/m 12,3 km/h (3 Bft) SW 225 0 min 0,000 mm 0,0 UV-I 0 W/m 4,9 C 2,2 C 19,3 km/h (3 Bft) 100,00 %
16.05.2016 21:32 6,4 C 90 % 1018,4 hPa 0,0 l/m 12,4 km/h (3 Bft) W-SW 237 0 min 0,000 mm 0,0 UV-I 0 W/m 4,9 C 2,1 C 20,9 km/h (4 Bft) 100,00 %
16.05.2016 21:33 6,4 C 90 % 1018,4 hPa 0,0 l/m 15,5 km/h (3 Bft) SW 228 0 min 0,000 mm 0,0 UV-I 0 W/m 4,9 C 0,5 C 20,9 km/h (4 Bft) 100,00 %
16.05.2016 21:34 6,4 C 90 % 1018,4 hPa 0,0 l/m 11,9 km/h (2 Bft) SW 226 0 min 0,000 mm 0,0 UV-I 0 W/m 4,9 C 2,4 C 16,1 km/h (3 Bft) 96,55 %
16.05.2016 21:35 6,4 C 90 % 1018,4 hPa 0,0 l/m 8,8 km/h (2 Bft) S 191 0 min 0,000 mm 0,0 UV-I 0 W/m 4,9 C 4,5 C 12,9 km/h (3 Bft) 100,00 %
16.05.2016 21:36 6,4 C 90 % 1018,3 hPa 0,0 l/m 10,0 km/h (2 Bft) W-SW 249 0 min 0,000 mm 0,0 UV-I 0 W/m 4,9 C 3,6 C 16,1 km/h (3 Bft) 100,00 %
16.05.2016 21:37 6,4 C 90 % 1018,4 hPa 0,0 l/m 11,3 km/h (2 Bft) SW 229 0 min 0,000 mm 0,0 UV-I 0 W/m 4,9 C 2,8 C 17,7 km/h (3 Bft) 100,00 %
16.05.2016 21:38 6,4 C 90 % 1018,3 hPa 0,0 l/m 11,1 km/h (2 Bft) SW 219 0 min 0,000 mm 0,0 UV-I 0 W/m 4,9 C 2,9 C 19,3 km/h (3 Bft) 100,00 %
16.05.2016 21:39 6,4 C 90 % 1018,4 hPa 0,0 l/m 13,6 km/h (3 Bft) SW 221 0 min 0,000 mm 0,0 UV-I 0 W/m 4,9 C 1,5 C 19,3 km/h (3 Bft) 100,00 %
16.05.2016 21:40 6,4 C 90 % 1018,4 hPa 0,0 l/m 11,0 km/h (2 Bft) S-SW 204 0 min 0,000 mm 0,0 UV-I 0 W/m 4,9 C 3,0 C 16,1 km/h (3 Bft) 100,00 %
16.05.2016 21:41 6,4 C 90 % 1018,4 hPa 0,0 l/m 10,5 km/h (2 Bft) SW 229 0 min 0,000 mm 0,0 UV-I 0 W/m 4,9 C 3,3 C 16,1 km/h (3 Bft) 95,65 %
16.05.2016 21:42 6,4 C 90 % 1018,4 hPa 0,0 l/m 12,9 km/h (3 Bft) W-SW 246 0 min 0,000 mm 0,0 UV-I 0 W/m 4,9 C 1,9 C 19,3 km/h (3 Bft) 100,00 %
16.05.2016 21:43 6,4 C 90 % 1018,4 hPa 0,0 l/m 9,0 km/h (2 Bft) S 189 0 min 0,000 mm 0,0 UV-I 0 W/m 4,9 C 4,3 C 19,3 km/h (3 Bft) 100,00 %
16.05.2016 21:44 6,4 C 90 % 1018,4 hPa 0,0 l/m 11,7 km/h (2 Bft) W-SW 254 0 min 0,000 mm 0,0 UV-I 0 W/m 4,9 C 2,5 C 19,3 km/h (3 Bft) 100,00 %
16.05.2016 21:45 6,4 C 90 % 1018,4 hPa 0,0 l/m 12,5 km/h (3 Bft) W-SW 241 0 min 0,000 mm 0,0 UV-I 0 W/m 4,9 C 2,1 C 17,7 km/h (3 Bft) 100,00 %
16.05.2016 21:46 6,4 C 90 % 1018,4 hPa 0,0 l/m 10,7 km/h (2 Bft) W-SW 248 0 min 0,000 mm 0,0 UV-I 0 W/m 4,9 C 3,2 C 16,1 km/h (3 Bft) 100,00 %
16.05.2016 21:47 6,4 C 90 % 1018,4 hPa 0,0 l/m 8,5 km/h (2 Bft) SW 230 0 min 0,000 mm 0,0 UV-I 0 W/m 4,9 C 4,7 C 14,5 km/h (3 Bft) 100,00 %
16.05.2016 21:48 6,4 C 90 % 1018,5 hPa 0,0 l/m 7,6 km/h (2 Bft) S 191 0 min 0,000 mm 0,0 UV-I 0 W/m 4,9 C 5,4 C 12,9 km/h (3 Bft) 95,24 %
16.05.2016 21:49 6,3 C 90 % 1018,4 hPa 0,0 l/m 6,5 km/h (2 Bft) S-SW 207 0 min 0,000 mm 0,0 UV-I 0 W/m 4,8 C 6,2 C 9,7 km/h (2 Bft) 92,86 %
16.05.2016 21:50 6,3 C 91 % 1018,4 hPa 0,0 l/m 11,6 km/h (2 Bft) S-SW 201 0 min 0,000 mm 0,0 UV-I 0 W/m 4,9 C 2,5 C 17,7 km/h (3 Bft) 100,00 %
16.05.2016 21:51 6,3 C 91 % 1018,4 hPa 0,0 l/m 10,3 km/h (2 Bft) SW 225 0 min 0,000 mm 0,0 UV-I 0 W/m 4,9 C 3,3 C 16,1 km/h (3 Bft) 100,00 %
16.05.2016 21:52 6,3 C 91 % 1018,5 hPa 0,0 l/m 10,7 km/h (2 Bft) SW 229 0 min 0,000 mm 0,0 UV-I 0 W/m 4,9 C 3,0 C 17,7 km/h (3 Bft) 98,64 %
16.05.2016 21:53 6,3 C 91 % 1018,5 hPa 0,0 l/m 10,7 km/h (2 Bft) SW 228 0 min 0,000 mm 0,0 UV-I 0 W/m 4,9 C 3,0 C 14,5 km/h (3 Bft) 100,00 %
16.05.2016 21:54 6,3 C 91 % 1018,5 hPa 0,0 l/m 8,8 km/h (2 Bft) SW 217 0 min 0,000 mm 0,0 UV-I 0 W/m 4,9 C 4,4 C 12,9 km/h (3 Bft) 100,00 %
16.05.2016 21:55 6,3 C 91 % 1018,5 hPa 0,0 l/m 6,4 km/h (2 Bft) SW 234 0 min 0,000 mm 0,0 UV-I 0 W/m 4,9 C 6,3 C 9,7 km/h (2 Bft) 100,00 %
16.05.2016 21:56 6,3 C 91 % 1018,5 hPa 0,0 l/m 10,5 km/h (2 Bft) S-SW 211 0 min 0,000 mm 0,0 UV-I 0 W/m 4,9 C 3,2 C 17,7 km/h (3 Bft) 100,00 %
16.05.2016 21:57 6,3 C 91 % 1018,5 hPa 0,0 l/m 9,9 km/h (2 Bft) W-SW 240 0 min 0,000 mm 0,0 UV-I 0 W/m 4,9 C 3,6 C 14,5 km/h (3 Bft) 100,00 %
16.05.2016 21:58 6,3 C 91 % 1018,5 hPa 0,0 l/m 9,4 km/h (2 Bft) SW 232 0 min 0,000 mm 0,0 UV-I 0 W/m 4,9 C 3,9 C 16,1 km/h (3 Bft) 100,00 %
16.05.2016 21:59 6,3 C 91 % 1018,6 hPa 0,0 l/m 7,2 km/h (2 Bft) S-SW 209 0 min 0,000 mm 0,0 UV-I 0 W/m 4,9 C 5,6 C 9,7 km/h (2 Bft) 100,00 %
16.05.2016 22:00 6,3 C 91 % 1018,5 hPa 0,0 l/m 7,8 km/h (2 Bft) W-SW 238 0 min 0,000 mm 0,0 UV-I 0 W/m 4,9 C 5,1 C 12,9 km/h (3 Bft) 96,55 %
16.05.2016 22:01 6,3 C 91 % 1018,6 hPa 0,0 l/m 9,3 km/h (2 Bft) W-SW 242 0 min 0,000 mm 0,0 UV-I 0 W/m 4,9 C 4,0 C 12,9 km/h (3 Bft) 100,00 %
16.05.2016 22:02 6,3 C 91 % 1018,5 hPa 0,0 l/m 15,1 km/h (3 Bft) SW 223 0 min 0,000 mm 0,0 UV-I 0 W/m 4,9 C 0,6 C 19,3 km/h (3 Bft) 100,00 %
16.05.2016 22:03 6,3 C 91 % 1018,6 hPa 0,0 l/m 8,6 km/h (2 Bft) W-SW 244 0 min 0,000 mm 0,0 UV-I 0 W/m 4,9 C 4,5 C 12,9 km/h (3 Bft) 100,00 %
16.05.2016 22:04 6,3 C 91 % 1018,6 hPa 0,0 l/m 7,7 km/h (2 Bft) W-SW 237 0 min 0,000 mm 0,0 UV-I 0 W/m 4,9 C 5,2 C 12,9 km/h (3 Bft) 100,00 %
16.05.2016 22:05 6,3 C 91 % 1018,6 hPa 0,0 l/m 8,5 km/h (2 Bft) SW 219 0 min 0,000 mm 0,0 UV-I 0 W/m 4,9 C 4,6 C 11,3 km/h (2 Bft) 100,00 %
16.05.2016 22:06 6,3 C 91 % 1018,6 hPa 0,0 l/m 8,0 km/h (2 Bft) SW 216 0 min 0,000 mm 0,0 UV-I 0 W/m 4,9 C 5,0 C 9,7 km/h (2 Bft) 100,00 %
16.05.2016 22:07 6,3 C 91 % 1018,6 hPa 0,0 l/m 5,1 km/h (1 Bft) S-SW 211 0 min 0,000 mm 0,0 UV-I 0 W/m 4,9 C 6,3 C 8,0 km/h (2 Bft) 100,00 %
16.05.2016 22:08 6,2 C 91 % 1018,6 hPa 0,0 l/m 5,0 km/h (1 Bft) S 184 0 min 0,000 mm 0,0 UV-I 0 W/m 4,8 C 6,2 C 8,0 km/h (2 Bft) 96,55 %
16.05.2016 22:09 6,2 C 91 % 1018,6 hPa 0,0 l/m 9,5 km/h (2 Bft) S-SW 211 0 min 0,000 mm 0,0 UV-I 0 W/m 4,8 C 3,7 C 12,9 km/h (3 Bft) 93,33 %
16.05.2016 22:10 6,2 C 91 % 1018,6 hPa 0,0 l/m 6,9 km/h (2 Bft) W-SW 239 0 min 0,000 mm 0,0 UV-I 0 W/m 4,8 C 5,8 C 11,3 km/h (2 Bft) 96,15 %
16.05.2016 22:11 6,2 C 91 % 1018,6 hPa 0,0 l/m 5,5 km/h (1 Bft) SW 216 0 min 0,000 mm 0,0 UV-I 0 W/m 4,8 C 6,2 C 8,0 km/h (2 Bft) 100,00 %
16.05.2016 22:15 6,3 C 91 % 1018,8 hPa 0,0 l/m 8,0 km/h (2 Bft) SW 225 0 min 0,000 mm 0,0 UV-I 0 W/m 4,9 C 5,0 C 14,5 km/h (3 Bft) 100,00 %
16.05.2016 22:20 6,3 C 92 % 1018,8 hPa 0,0 l/m 11,3 km/h (2 Bft) SW 225 0 min 0,000 mm 0,0 UV-I 0 W/m 5,1 C 2,7 C 17,7 km/h (3 Bft) 100,00 %
16.05.2016 22:24 6,3 C 92 % 1018,7 hPa 0,0 l/m 7,4 km/h (2 Bft) SW 235 0 min 0,000 mm 0,0 UV-I 0 W/m 5,1 C 5,5 C 16,1 km/h (3 Bft) 97,19 %
16.05.2016 22:25 6,3 C 92 % 1018,8 hPa 0,0 l/m 9,9 km/h (2 Bft) W-SW 250 0 min 0,000 mm 0,0 UV-I 0 W/m 5,1 C 3,6 C 16,1 km/h (3 Bft) 95,65 %
16.05.2016 22:26 6,2 C 92 % 1018,8 hPa 0,0 l/m 8,7 km/h (2 Bft) SW 221 0 min 0,000 mm 0,0 UV-I 0 W/m 5,0 C 4,3 C 12,9 km/h (3 Bft) 100,00 %
16.05.2016 22:27 6,2 C 92 % 1018,8 hPa 0,0 l/m 11,9 km/h (2 Bft) W-SW 238 0 min 0,000 mm 0,0 UV-I 0 W/m 5,0 C 2,2 C 19,3 km/h (3 Bft) 96,55 %
16.05.2016 22:28 6,2 C 92 % 1018,8 hPa 0,0 l/m 12,7 km/h (3 Bft) SW 230 0 min 0,000 mm 0,0 UV-I 0 W/m 5,0 C 1,7 C 17,7 km/h (3 Bft) 100,00 %
16.05.2016 22:29 6,3 C 92 % 1018,9 hPa 0,0 l/m 10,2 km/h (2 Bft) W-SW 254 0 min 0,000 mm 0,0 UV-I 0 W/m 5,1 C 3,4 C 16,1 km/h (3 Bft) 92,31 %
16.05.2016 22:30 6,2 C 92 % 1018,9 hPa 0,0 l/m 15,6 km/h (3 Bft) SW 235 0 min 0,000 mm 0,0 UV-I 0 W/m 5,0 C 0,2 C 20,9 km/h (4 Bft) 100,00 %
16.05.2016 22:31 6,3 C 91 % 1018,8 hPa 0,0 l/m 9,4 km/h (2 Bft) SW 236 0 min 0,000 mm 0,0 UV-I 0 W/m 4,9 C 3,9 C 14,5 km/h (3 Bft) 96,15 %
16.05.2016 22:32 6,3 C 91 % 1018,8 hPa 0,0 l/m 16,1 km/h (3 Bft) W-SW 239 0 min 0,000 mm 0,0 UV-I 0 W/m 4,9 C 0,1 C 20,9 km/h (4 Bft) 100,00 %
16.05.2016 22:33 6,3 C 91 % 1018,9 hPa 0,0 l/m 14,8 km/h (3 Bft) SW 219 0 min 0,000 mm 0,0 UV-I 0 W/m 4,9 C 0,7 C 19,3 km/h (3 Bft) 96,30 %
16.05.2016 22:34 6,3 C 91 % 1018,9 hPa 0,0 l/m 13,1 km/h (3 Bft) W 265 0 min 0,000 mm 0,0 UV-I 0 W/m 4,9 C 1,6 C 17,7 km/h (3 Bft) 86,96 %
16.05.2016 22:35 6,3 C 91 % 1018,9 hPa 0,0 l/m 13,7 km/h (3 Bft) W-SW 242 0 min 0,000 mm 0,0 UV-I 0 W/m 4,9 C 1,3 C 19,3 km/h (3 Bft) 100,00 %
16.05.2016 22:36 6,3 C 91 % 1018,9 hPa 0,0 l/m 14,2 km/h (3 Bft) W-SW 246 0 min 0,000 mm 0,0 UV-I 0 W/m 4,9 C 1,1 C 19,3 km/h (3 Bft) 95,65 %
16.05.2016 22:37 6,3 C 91 % 1018,9 hPa 0,0 l/m 13,9 km/h (3 Bft) W-SW 238 0 min 0,000 mm 0,0 UV-I 0 W/m 4,9 C 1,2 C 20,9 km/h (4 Bft) 100,00 %
16.05.2016 22:38 6,3 C 91 % 1018,9 hPa 0,0 l/m 16,5 km/h (3 Bft) SW 222 0 min 0,000 mm 0,0 UV-I 0 W/m 4,9 C -0,1 C 20,9 km/h (4 Bft) 95,65 %
16.05.2016 22:39 6,3 C 91 % 1018,8 hPa 0,0 l/m 14,1 km/h (3 Bft) W 259 0 min 0,000 mm 0,0 UV-I 0 W/m 4,9 C 1,1 C 19,3 km/h (3 Bft) 100,00 %
16.05.2016 22:40 6,3 C 91 % 1018,9 hPa 0,0 l/m 13,1 km/h (3 Bft) SW 235 0 min 0,000 mm 0,0 UV-I 0 W/m 4,9 C 1,6 C 16,1 km/h (3 Bft) 96,15 %
16.05.2016 22:41 6,3 C 91 % 1018,9 hPa 0,0 l/m 15,2 km/h (3 Bft) SW 216 0 min 0,000 mm 0,0 UV-I 0 W/m 4,9 C 0,6 C 19,3 km/h (3 Bft) 100,00 %
16.05.2016 22:42 6,3 C 91 % 1018,9 hPa 0,0 l/m 17,9 km/h (3 Bft) SW 223 0 min 0,000 mm 0,0 UV-I 0 W/m 4,9 C -0,7 C 25,7 km/h (4 Bft) 96,15 %
16.05.2016 22:43 6,3 C 91 % 1018,9 hPa 0,0 l/m 17,8 km/h (3 Bft) W 261 0 min 0,000 mm 0,0 UV-I 0 W/m 4,9 C -0,6 C 27,4 km/h (4 Bft) 100,00 %
16.05.2016 22:44 6,3 C 91 % 1018,9 hPa 0,0 l/m 10,4 km/h (2 Bft) W-SW 239 0 min 0,000 mm 0,0 UV-I 0 W/m 4,9 C 3,2 C 20,9 km/h (4 Bft) 96,15 %
16.05.2016 22:45 6,3 C 91 % 1018,9 hPa 0,0 l/m 13,6 km/h (3 Bft) SW 226 0 min 0,000 mm 0,0 UV-I 0 W/m 4,9 C 1,4 C 19,3 km/h (3 Bft) 93,33 %
16.05.2016 22:46 6,3 C 91 % 1018,9 hPa 0,0 l/m 16,1 km/h (3 Bft) W 259 0 min 0,000 mm 0,0 UV-I 0 W/m 4,9 C 0,1 C 22,5 km/h (4 Bft) 100,00 %
16.05.2016 22:47 6,3 C 91 % 1018,9 hPa 0,0 l/m 16,1 km/h (3 Bft) W-SW 241 0 min 0,000 mm 0,0 UV-I 0 W/m 4,9 C 0,1 C 22,5 km/h (4 Bft) 100,00 %
16.05.2016 22:48 6,3 C 91 % 1018,9 hPa 0,0 l/m 11,0 km/h (2 Bft) W-SW 246 0 min 0,000 mm 0,0 UV-I 0 W/m 4,9 C 2,9 C 16,1 km/h (3 Bft) 100,00 %
16.05.2016 22:49 6,3 C 91 % 1018,9 hPa 0,0 l/m 12,3 km/h (3 Bft) SW 225 0 min 0,000 mm 0,0 UV-I 0 W/m 4,9 C 2,1 C 19,3 km/h (3 Bft) 95,83 %
16.05.2016 22:50 6,3 C 91 % 1018,9 hPa 0,0 l/m 10,4 km/h (2 Bft) SW 223 0 min 0,000 mm 0,0 UV-I 0 W/m 4,9 C 3,2 C 14,5 km/h (3 Bft) 95,65 %
16.05.2016 22:51 6,2 C 91 % 1018,9 hPa 0,0 l/m 14,1 km/h (3 Bft) W-SW 247 0 min 0,000 mm 0,0 UV-I 0 W/m 4,8 C 1,0 C 22,5 km/h (4 Bft) 100,00 %
16.05.2016 22:52 6,2 C 91 % 1018,9 hPa 0,0 l/m 13,1 km/h (3 Bft) SW 225 0 min 0,000 mm 0,0 UV-I 0 W/m 4,8 C 1,5 C 17,7 km/h (3 Bft) 100,00 %
16.05.2016 22:53 6,2 C 91 % 1018,9 hPa 0,0 l/m 13,2 km/h (3 Bft) W-SW 241 0 min 0,000 mm 0,0 UV-I 0 W/m 4,8 C 1,5 C 19,3 km/h (3 Bft) 100,00 %
16.05.2016 22:54 6,2 C 91 % 1018,9 hPa 0,0 l/m 13,4 km/h (3 Bft) SW 231 0 min 0,000 mm 0,0 UV-I 0 W/m 4,8 C 1,4 C 19,3 km/h (3 Bft) 100,00 %
16.05.2016 22:55 6,2 C 91 % 1018,9 hPa 0,0 l/m 11,1 km/h (2 Bft) SW 229 0 min 0,000 mm 0,0 UV-I 0 W/m 4,8 C 2,7 C 17,7 km/h (3 Bft) 96,88 %
16.05.2016 22:56 6,2 C 91 % 1018,9 hPa 0,0 l/m 16,1 km/h (3 Bft) SW 235 0 min 0,000 mm 0,0 UV-I 0 W/m 4,8 C 0,0 C 20,9 km/h (4 Bft) 100,00 %
16.05.2016 22:57 6,2 C 91 % 1018,9 hPa 0,0 l/m 14,4 km/h (3 Bft) W 267 0 min 0,000 mm 0,0 UV-I 0 W/m 4,8 C 0,8 C 19,3 km/h (3 Bft) 100,00 %
16.05.2016 22:58 6,2 C 91 % 1018,9 hPa 0,0 l/m 14,0 km/h (3 Bft) SW 232 0 min 0,000 mm 0,0 UV-I 0 W/m 4,8 C 1,0 C 19,3 km/h (3 Bft) 100,00 %
16.05.2016 22:59 6,2 C 91 % 1018,9 hPa 0,0 l/m 11,9 km/h (2 Bft) W-SW 244 0 min 0,000 mm 0,0 UV-I 0 W/m 4,8 C 2,2 C 16,1 km/h (3 Bft) 98,60 %
16.05.2016 23:00 6,2 C 91 % 1018,9 hPa 0,0 l/m 11,9 km/h (2 Bft) SW 225 0 min 0,000 mm 0,0 UV-I 0 W/m 4,8 C 2,2 C 22,5 km/h (4 Bft) 100,00 %
16.05.2016 23:02 6,2 C 91 % 1019,0 hPa 0,0 l/m 13,5 km/h (3 Bft) W-SW 241 0 min 0,000 mm 0,0 UV-I 0 W/m 4,8 C 1,3 C 19,3 km/h (3 Bft) 98,00 %
16.05.2016 23:03 6,2 C 91 % 1019,0 hPa 0,0 l/m 13,6 km/h (3 Bft) W-SW 250 0 min 0,000 mm 0,0 UV-I 0 W/m 4,8 C 1,2 C 17,7 km/h (3 Bft) 100,00 %
16.05.2016 23:04 6,2 C 91 % 1019,0 hPa 0,0 l/m 15,6 km/h (3 Bft) SW 230 0 min 0,000 mm 0,0 UV-I 0 W/m 4,8 C 0,2 C 20,9 km/h (4 Bft) 100,00 %
16.05.2016 23:05 6,1 C 91 % 1019,0 hPa 0,0 l/m 13,3 km/h (3 Bft) S-SW 212 0 min 0,000 mm 0,0 UV-I 0 W/m 4,7 C 1,3 C 17,7 km/h (3 Bft) 100,00 %
16.05.2016 23:06 6,2 C 91 % 1019,0 hPa 0,0 l/m 17,3 km/h (3 Bft) W-SW 250 0 min 0,000 mm 0,0 UV-I 0 W/m 4,8 C -0,5 C 22,5 km/h (4 Bft) 100,00 %
16.05.2016 23:07 6,2 C 91 % 1019,0 hPa 0,0 l/m 15,4 km/h (3 Bft) SW 217 0 min 0,000 mm 0,0 UV-I 0 W/m 4,8 C 0,3 C 20,9 km/h (4 Bft) 100,00 %
16.05.2016 23:08 6,2 C 91 % 1019,0 hPa 0,0 l/m 18,3 km/h (3 Bft) SW 223 0 min 0,000 mm 0,0 UV-I 0 W/m 4,8 C -1,0 C 22,5 km/h (4 Bft) 100,00 %
16.05.2016 23:09 6,1 C 91 % 1019,0 hPa 0,0 l/m 14,6 km/h (3 Bft) SW 217 0 min 0,000 mm 0,0 UV-I 0 W/m 4,7 C 0,6 C 20,9 km/h (4 Bft) 98,61 %
16.05.2016 23:10 6,1 C 91 % 1019,0 hPa 0,0 l/m 17,9 km/h (3 Bft) SW 220 0 min 0,000 mm 0,0 UV-I 0 W/m 4,7 C -0,9 C 22,5 km/h (4 Bft) 97,73 %
16.05.2016 23:11 6,2 C 91 % 1019,0 hPa 0,0 l/m 16,2 km/h (3 Bft) W-SW 244 0 min 0,000 mm 0,0 UV-I 0 W/m 4,8 C -0,0 C 20,9 km/h (4 Bft) 100,00 %
16.05.2016 23:12 6,1 C 91 % 1019,0 hPa 0,0 l/m 13,5 km/h (3 Bft) W-SW 251 0 min 0,000 mm 0,0 UV-I 0 W/m 4,7 C 1,2 C 20,9 km/h (4 Bft) 100,00 %
16.05.2016 23:13 6,1 C 91 % 1019,0 hPa 0,0 l/m 9,4 km/h (2 Bft) W-SW 250 0 min 0,000 mm 0,0 UV-I 0 W/m 4,7 C 3,7 C 12,9 km/h (3 Bft) 100,00 %
16.05.2016 23:14 6,1 C 91 % 1019,0 hPa 0,0 l/m 12,4 km/h (3 Bft) W-SW 248 0 min 0,000 mm 0,0 UV-I 0 W/m 4,7 C 1,8 C 16,1 km/h (3 Bft) 95,65 %
16.05.2016 23:15 6,1 C 91 % 1019,0 hPa 0,0 l/m 13,0 km/h (3 Bft) SW 223 0 min 0,000 mm 0,0 UV-I 0 W/m 4,7 C 1,5 C 16,1 km/h (3 Bft) 100,00 %
16.05.2016 23:16 6,1 C 91 % 1019,0 hPa 0,0 l/m 12,2 km/h (2 Bft) S 190 0 min 0,000 mm 0,0 UV-I 0 W/m 4,7 C 1,9 C 14,5 km/h (3 Bft) 100,00 %
16.05.2016 23:17 6,1 C 91 % 1019,0 hPa 0,0 l/m 11,8 km/h (2 Bft) SW 229 0 min 0,000 mm 0,0 UV-I 0 W/m 4,7 C 2,1 C 17,7 km/h (3 Bft) 100,00 %
16.05.2016 23:18 6,1 C 91 % 1019,0 hPa 0,0 l/m 11,2 km/h (2 Bft) S-SW 198 0 min 0,000 mm 0,0 UV-I 0 W/m 4,7 C 2,5 C 17,7 km/h (3 Bft) 93,10 %
16.05.2016 23:19 6,1 C 91 % 1019,0 hPa 0,0 l/m 12,2 km/h (2 Bft) W 260 0 min 0,000 mm 0,0 UV-I 0 W/m 4,7 C 1,9 C 14,5 km/h (3 Bft) 100,00 %
16.05.2016 23:20 6,1 C 91 % 1019,0 hPa 0,0 l/m 14,2 km/h (3 Bft) S-SW 196 0 min 0,000 mm 0,0 UV-I 0 W/m 4,7 C 0,8 C 20,9 km/h (4 Bft) 100,00 %
16.05.2016 23:21 6,1 C 91 % 1019,0 hPa 0,0 l/m 14,8 km/h (3 Bft) SW 235 0 min 0,000 mm 0,0 UV-I 0 W/m 4,7 C 0,5 C 22,5 km/h (4 Bft) 95,83 %
16.05.2016 23:22 6,1 C 91 % 1019,0 hPa 0,0 l/m 13,5 km/h (3 Bft) W-SW 244 0 min 0,000 mm 0,0 UV-I 0 W/m 4,7 C 1,2 C 19,3 km/h (3 Bft) 100,00 %
16.05.2016 23:23 6,1 C 91 % 1019,0 hPa 0,0 l/m 15,4 km/h (3 Bft) SW 215 0 min 0,000 mm 0,0 UV-I 0 W/m 4,7 C 0,2 C 25,7 km/h (4 Bft) 96,30 %
16.05.2016 23:24 6,1 C 91 % 1019,0 hPa 0,0 l/m 18,3 km/h (3 Bft) SW 233 0 min 0,000 mm 0,0 UV-I 0 W/m 4,7 C -1,1 C 25,7 km/h (4 Bft) 96,55 %
16.05.2016 23:25 6,1 C 91 % 1019,0 hPa 0,0 l/m 14,9 km/h (3 Bft) SW 224 0 min 0,000 mm 0,0 UV-I 0 W/m 4,7 C 0,5 C 25,7 km/h (4 Bft) 100,00 %
16.05.2016 23:26 6,1 C 91 % 1019,0 hPa 0,0 l/m 16,7 km/h (3 Bft) SW 223 0 min 0,000 mm 0,0 UV-I 0 W/m 4,7 C -0,4 C 20,9 km/h (4 Bft) 96,30 %
16.05.2016 23:27 6,1 C 91 % 1019,0 hPa 0,0 l/m 15,4 km/h (3 Bft) SW 219 0 min 0,000 mm 0,0 UV-I 0 W/m 4,7 C 0,2 C 22,5 km/h (4 Bft) 100,00 %
16.05.2016 23:28 6,1 C 91 % 1018,9 hPa 0,0 l/m 17,3 km/h (3 Bft) SW 228 0 min 0,000 mm 0,0 UV-I 0 W/m 4,7 C -0,7 C 22,5 km/h (4 Bft) 100,00 %
16.05.2016 23:29 6,1 C 91 % 1018,9 hPa 0,0 l/m 14,4 km/h (3 Bft) W-SW 244 0 min 0,000 mm 0,0 UV-I 0 W/m 4,7 C 0,7 C 20,9 km/h (4 Bft) 100,00 %
16.05.2016 23:30 6,1 C 91 % 1018,9 hPa 0,0 l/m 17,7 km/h (3 Bft) SW 217 0 min 0,000 mm 0,0 UV-I 0 W/m 4,7 C -0,8 C 24,1 km/h (4 Bft) 100,00 %
16.05.2016 23:31 6,1 C 91 % 1018,9 hPa 0,0 l/m 16,5 km/h (3 Bft) SW 234 0 min 0,000 mm 0,0 UV-I 0 W/m 4,7 C -0,3 C 24,1 km/h (4 Bft) 100,00 %
16.05.2016 23:32 6,1 C 91 % 1018,9 hPa 0,0 l/m 15,4 km/h (3 Bft) W-SW 241 0 min 0,000 mm 0,0 UV-I 0 W/m 4,7 C 0,2 C 22,5 km/h (4 Bft) 100,00 %
16.05.2016 23:33 6,1 C 91 % 1018,9 hPa 0,0 l/m 15,8 km/h (3 Bft) SW 227 0 min 0,000 mm 0,0 UV-I 0 W/m 4,7 C 0,0 C 19,3 km/h (3 Bft) 100,00 %
16.05.2016 23:34 6,1 C 91 % 1019,0 hPa 0,0 l/m 20,9 km/h (4 Bft) W-SW 252 0 min 0,000 mm 0,0 UV-I 0 W/m 4,7 C -2,1 C 29,0 km/h (5 Bft) 100,00 %
16.05.2016 23:35 6,1 C 90 % 1019,0 hPa 0,0 l/m 19,1 km/h (3 Bft) W-SW 244 0 min 0,000 mm 0,0 UV-I 0 W/m 4,6 C -1,4 C 25,7 km/h (4 Bft) 96,15 %
16.05.2016 23:36 6,2 C 90 % 1018,9 hPa 0,0 l/m 16,6 km/h (3 Bft) SW 218 0 min 0,000 mm 0,0 UV-I 0 W/m 4,7 C -0,2 C 20,9 km/h (4 Bft) 96,30 %
16.05.2016 23:37 6,1 C 90 % 1019,0 hPa 0,0 l/m 15,0 km/h (3 Bft) W-SW 237 0 min 0,000 mm 0,0 UV-I 0 W/m 4,6 C 0,4 C 20,9 km/h (4 Bft) 100,00 %
16.05.2016 23:38 6,2 C 90 % 1019,0 hPa 0,0 l/m 13,7 km/h (3 Bft) SW 216 0 min 0,000 mm 0,0 UV-I 0 W/m 4,7 C 1,2 C 17,7 km/h (3 Bft) 100,00 %
16.05.2016 23:39 6,2 C 90 % 1018,9 hPa 0,0 l/m 19,9 km/h (4 Bft) SW 230 0 min 0,000 mm 0,0 UV-I 0 W/m 4,7 C -1,6 C 25,7 km/h (4 Bft) 100,00 %
16.05.2016 23:40 6,2 C 90 % 1018,9 hPa 0,0 l/m 11,6 km/h (2 Bft) S-SW 212 0 min 0,000 mm 0,0 UV-I 0 W/m 4,7 C 2,4 C 20,9 km/h (4 Bft) 96,30 %
16.05.2016 23:41 6,2 C 90 % 1019,0 hPa 0,0 l/m 14,2 km/h (3 Bft) SW 228 0 min 0,000 mm 0,0 UV-I 0 W/m 4,7 C 0,9 C 20,9 km/h (4 Bft) 100,00 %
16.05.2016 23:42 6,2 C 90 % 1018,9 hPa 0,0 l/m 14,0 km/h (3 Bft) S-SW 209 0 min 0,000 mm 0,0 UV-I 0 W/m 4,7 C 1,0 C 17,7 km/h (3 Bft) 100,00 %
16.05.2016 23:43 6,2 C 90 % 1019,0 hPa 0,0 l/m 12,0 km/h (2 Bft) W-SW 246 0 min 0,000 mm 0,0 UV-I 0 W/m 4,7 C 2,1 C 17,7 km/h (3 Bft) 100,00 %
16.05.2016 23:44 6,2 C 90 % 1019,0 hPa 0,0 l/m 12,7 km/h (3 Bft) S-SW 213 0 min 0,000 mm 0,0 UV-I 0 W/m 4,7 C 1,7 C 17,7 km/h (3 Bft) 100,00 %
16.05.2016 23:45 6,2 C 90 % 1019,0 hPa 0,0 l/m 16,0 km/h (3 Bft) SW 217 0 min 0,000 mm 0,0 UV-I 0 W/m 4,7 C 0,1 C 19,3 km/h (3 Bft) 100,00 %
16.05.2016 23:46 6,1 C 90 % 1019,0 hPa 0,0 l/m 22,3 km/h (4 Bft) W-SW 248 0 min 0,000 mm 0,0 UV-I 0 W/m 4,6 C -2,6 C 30,6 km/h (5 Bft) 96,15 %
16.05.2016 23:47 6,2 C 90 % 1019,0 hPa 0,0 l/m 18,0 km/h (3 Bft) W-SW 238 0 min 0,000 mm 0,0 UV-I 0 W/m 4,7 C -0,8 C 24,1 km/h (4 Bft) 100,00 %
16.05.2016 23:48 6,2 C 90 % 1019,0 hPa 0,0 l/m 16,5 km/h (3 Bft) SW 214 0 min 0,000 mm 0,0 UV-I 0 W/m 4,7 C -0,2 C 22,5 km/h (4 Bft) 100,00 %
16.05.2016 23:49 6,2 C 90 % 1019,0 hPa 0,0 l/m 13,9 km/h (3 Bft) SW 220 0 min 0,000 mm 0,0 UV-I 0 W/m 4,7 C 1,1 C 22,5 km/h (4 Bft) 100,00 %
16.05.2016 23:50 6,1 C 90 % 1019,0 hPa 0,0 l/m 18,2 km/h (3 Bft) SW 230 0 min 0,000 mm 0,0 UV-I 0 W/m 4,6 C -1,0 C 27,4 km/h (4 Bft) 100,00 %
16.05.2016 23:51 6,2 C 90 % 1019,0 hPa 0,0 l/m 14,9 km/h (3 Bft) W-SW 245 0 min 0,000 mm 0,0 UV-I 0 W/m 4,7 C 0,6 C 20,9 km/h (4 Bft) 100,00 %
16.05.2016 23:52 6,2 C 90 % 1019,0 hPa 0,0 l/m 15,2 km/h (3 Bft) W-SW 239 0 min 0,000 mm 0,0 UV-I 0 W/m 4,7 C 0,4 C 20,9 km/h (4 Bft) 100,00 %
16.05.2016 23:53 6,2 C 90 % 1019,0 hPa 0,0 l/m 16,3 km/h (3 Bft) S-SW 207 0 min 0,000 mm 0,0 UV-I 0 W/m 4,7 C -0,1 C 22,5 km/h (4 Bft) 93,33 %
16.05.2016 23:54 6,2 C 90 % 1019,0 hPa 0,0 l/m 16,7 km/h (3 Bft) W-SW 240 0 min 0,000 mm 0,0 UV-I 0 W/m 4,7 C -0,3 C 22,5 km/h (4 Bft) 96,15 %
16.05.2016 23:55 6,2 C 90 % 1019,0 hPa 0,0 l/m 16,3 km/h (3 Bft) SW 220 0 min 0,000 mm 0,0 UV-I 0 W/m 4,7 C -0,1 C 22,5 km/h (4 Bft) 100,00 %
16.05.2016 23:56 6,2 C 90 % 1019,0 hPa 0,0 l/m 13,4 km/h (3 Bft) SW 231 0 min 0,000 mm 0,0 UV-I 0 W/m 4,7 C 1,4 C 16,1 km/h (3 Bft) 100,00 %
16.05.2016 23:57 6,2 C 90 % 1019,0 hPa 0,0 l/m 14,1 km/h (3 Bft) W-SW 249 0 min 0,000 mm 0,0 UV-I 0 W/m 4,7 C 1,0 C 20,9 km/h (4 Bft) 100,00 %
16.05.2016 23:58 6,1 C 90 % 1019,1 hPa 0,0 l/m 18,1 km/h (3 Bft) SW 227 0 min 0,000 mm 0,0 UV-I 0 W/m 4,6 C -1,0 C 24,1 km/h (4 Bft) 100,00 %
16.05.2016 23:59 6,2 C 90 % 1019,1 hPa 0,0 l/m 14,4 km/h (3 Bft) W-SW 252 0 min 0,000 mm 0,0 UV-I 0 W/m 4,7 C 0,8 C 19,3 km/h (3 Bft) 98,62 %
_ Min-Zeit 07:08 11:15 18:25 - 18:31 - - - - - - 03:23 04:14 15:10 04:46
Minimum _ 5,7 C 64 % 1017,1 hPa - 0,1 km/h (0 Bft) - - - - - - 2,5 C -3,2 C 1,6 km/h (1 Bft) 83,33 %
_ Max-Zeit 12:34 15:15 08:50 14:52 13:52 - - 11:30 12:02 12:27 10:44 15:26 12:35 13:47 00:00
Maximum _ 10,7 C 92 % 1019,4 hPa 0,4 l/m 31,8 km/h
SW (5 Bft)
- - 5 min 0,304 mm 4,4 UV-I 937 W/m 7,5 C 10,7 C 43,5 km/h
W-SW (6 Bft)
100,00 %
Durchschnitt _ 7,4 C 82 % 1018,5 hPa #2,8 l/m 11,9 km/h (2 Bft) SW - #3:58 h #2,184 mm 1,7 UV-I 256 W/m 4,6 C 3,9 C 17,3 km/h (3 Bft) 98,63 %